ECMWFNIL_sfc_temp_000.txt.gz
Temp
57 57 56 55 55 57 55 54 53 55 54 53 52 53 52 54 54 53 53 51 52 52 52 51 51 52 54 53 52 53 54 53 54 54 54 54 53 54 55 55 56 56
56 57 57 56 55 55 55 55 55 55 54 53 54 53 52 54 53 53 52 52 53 51 51 51 52 52 51 51 52 52 51 51 52 55 53 53 53 53 53 54 54 56
55 55 56 55 55 54 55 55 55 54 54 53 53 53 54 54 53 52 52 52 51 51 50 50 50 50 51 50 50 50 50 50 50 51 52 51 52 52 53 53 53 54
55 56 56 56 55 55 55 54 53 53 53 53 53 54 55 55 53 52 52 55 51 50 49 50 50 50 50 49 49 49 48 49 50 50 50 50 51 52 52 53 54 54
56 55 55 55 54 54 54 54 53 53 54 54 52 53 54 53 52 52 51 50 50 49 49 49 48 48 48 48 49 48 49 49 48 49 49 49 50 51 52 52 51 52
56 56 55 55 54 53 54 54 54 54 53 51 52 53 52 52 51 51 50 49 49 49 48 48 47 47 48 48 47 48 47 48 48 49 49 48 49 50 52 51 51 50
56 55 54 55 54 53 54 53 53 54 52 53 51 51 51 50 50 49 49 49 48 50 48 47 47 47 47 47 47 47 46 47 47 48 48 47 48 49 50 51 51 50
56 55 55 54 53 53 54 53 52 52 51 51 52 50 50 50 49 48 48 48 48 47 47 47 47 47 46 47 47 46 46 48 48 47 47 47 47 47 48 50 50 49
56 55 54 53 53 52 53 52 52 51 52 52 50 49 49 49 48 47 48 47 48 46 46 46 46 46 46 46 46 46 45 46 47 46 46 47 46 47 47 48 48 49
55 54 54 53 53 52 52 52 51 51 51 51 50 49 49 49 47 47 47 46 46 46 45 45 45 45 45 45 46 46 46 46 45 46 46 47 47 47 48 48 48 48
54 54 54 53 53 51 52 51 51 51 51 51 49 48 48 47 48 46 46 46 46 45 44 44 45 44 45 45 45 45 45 45 45 45 46 47 48 50 52 51 51 50
54 53 53 53 52 51 51 51 51 51 50 49 49 48 46 46 46 46 47 45 44 44 45 45 45 45 45 45 45 45 45 46 46 47 48 50 51 52 52 52 52 52
54 53 53 52 52 52 51 51 51 50 49 49 48 47 47 46 45 45 46 44 44 44 44 44 45 45 45 44 44 44 44 45 46 47 49 51 52 52 53 53 52 52
54 53 53 52 52 51 51 51 50 48 48 47 47 46 46 45 45 45 45 44 43 44 45 45 44 44 44 44 44 44 44 44 45 46 47 50 52 52 53 53 53 53
52 52 52 52 51 51 50 49 49 47 47 46 46 46 47 45 44 43 43 43 42 42 43 44 44 45 45 45 44 43 43 44 45 46 46 47 48 50 51 52 52 52
53 53 53 51 51 50 50 48 48 47 46 45 45 45 44 44 43 43 43 42 43 42 42 43 43 44 48 46 45 45 43 44 44 45 45 45 46 46 47 48 50 51
53 53 53 52 51 50 47 48 48 47 46 44 44 43 43 45 44 42 41 41 42 42 42 41 42 45 45 43 42 43 45 44 44 44 44 44 44 44 45 46 47 48
53 53 52 52 51 49 49 48 47 46 45 43 43 43 43 43 41 41 40 41 41 41 40 41 42 45 43 42 42 42 44 45 44 44 44 44 44 44 45 45 46 46
52 52 52 51 51 51 50 48 46 45 43 43 43 42 42 40 39 40 42 40 41 40 40 41 41 43 42 42 42 42 42 43 43 43 44 44 44 44 45 45 46 46
53 52 52 52 51 51 50 47 45 44 43 43 42 41 39 39 39 40 39 39 40 40 39 40 41 43 42 42 42 41 41 41 42 42 43 43 44 44 45 45 45 45
53 52 51 51 51 50 48 47 46 42 43 42 41 40 41 39 38 38 40 41 39 38 38 39 42 42 41 41 41 41 41 41 41 42 42 43 44 44 44 45 45 45
53 52 51 51 50 49 48 46 44 45 42 41 41 39 38 37 36 37 38 37 37 36 37 37 40 41 40 41 41 41 41 42 42 42 42 43 43 43 44 45 46 46
51 51 51 51 50 49 47 46 43 41 42 42 40 39 38 38 37 36 37 36 37 38 36 37 38 41 41 41 41 41 41 42 42 43 43 42 42 43 43 45 46 46
52 51 51 50 48 48 46 43 43 44 43 42 42 38 38 37 37 35 34 36 37 36 37 38 39 42 42 41 41 41 41 41 42 42 41 42 42 43 43 44 45 47
53 53 51 49 47 45 45 45 44 44 42 40 39 38 38 37 39 34 34 33 34 37 44 41 39 41 42 41 41 40 41 41 41 40 40 40 41 41 42 43 44 45
52 51 49 48 47 46 45 45 43 42 40 39 38 38 39 36 37 34 33 33 34 37 38 38 38 39 41 40 41 41 41 41 40 38 38 39 40 41 41 42 43 43

ECMWFNIL_sfc_temp_003.txt.gz
Temp
56 56 56 55 55 55 54 53 51 52 52 50 51 52 51 51 51 50 50 49 49 49 49 49 49 49 51 49 49 51 51 50 51 51 50 51 50 51 52 51 51 51
56 56 57 56 55 54 53 54 53 53 52 51 52 51 50 50 50 50 50 50 50 48 48 49 49 49 48 49 49 49 48 48 48 52 50 49 49 49 50 50 50 51
55 55 55 55 55 53 53 53 53 53 52 52 50 50 51 50 50 49 48 49 49 48 48 48 47 49 48 48 48 48 48 47 47 48 49 48 48 48 48 49 49 50
55 56 56 56 55 54 53 53 51 52 50 51 51 51 52 53 50 48 49 52 48 47 46 47 47 47 47 46 46 47 46 48 48 48 48 48 49 49 48 49 49 49
55 55 55 55 55 55 53 53 52 52 52 52 50 50 53 51 50 49 48 47 47 46 47 47 46 47 46 46 47 47 48 48 47 47 47 47 47 49 49 49 47 47
55 55 55 55 54 54 53 53 53 52 51 50 51 52 50 51 50 49 48 47 46 46 46 46 46 46 45 45 45 46 45 47 47 46 47 47 47 47 50 48 46 47
55 54 54 54 53 53 54 53 53 53 52 52 51 50 50 49 49 48 47 47 46 47 46 46 46 45 44 44 44 45 45 44 45 46 46 46 47 47 47 47 48 47
54 54 54 53 52 52 53 52 52 52 51 51 51 50 50 49 48 47 46 46 46 46 45 45 45 45 44 44 46 44 43 46 46 44 45 45 45 46 46 48 47 46
54 54 53 52 52 51 51 51 51 50 51 51 50 49 48 49 48 47 47 45 45 43 43 43 44 45 44 44 44 44 44 43 45 43 44 45 45 45 46 46 46 46
53 53 52 52 52 51 51 50 50 49 50 50 50 48 48 46 47 46 46 45 45 43 43 43 44 45 44 43 45 44 43 44 43 44 44 45 45 45 45 45 46 47
51 51 52 51 51 50 50 49 49 49 49 49 48 47 46 47 46 45 45 45 45 44 43 43 43 42 43 43 42 43 43 43 43 43 44 44 45 45 48 48 50 50
52 50 50 50 51 51 50 50 49 49 49 48 48 46 44 44 45 44 46 44 44 43 43 42 41 41 42 42 42 42 42 42 42 43 44 44 45 46 47 48 50 51
54 53 52 52 52 51 51 50 49 49 49 48 47 46 46 45 44 45 44 45 43 43 43 42 42 41 41 41 41 41 41 42 42 42 43 44 44 46 46 47 49 50
53 53 53 53 52 52 52 51 50 48 47 47 47 46 45 45 45 44 43 43 43 42 42 42 41 41 40 40 41 41 41 41 42 43 43 43 44 45 45 46 47 47
51 53 53 53 52 51 51 51 50 49 47 47 46 46 46 45 44 43 43 42 41 42 41 42 41 42 42 43 42 42 40 42 42 43 43 43 43 43 44 45 45 46
52 52 52 52 52 52 51 50 49 48 47 46 46 46 46 44 42 42 43 42 41 39 39 41 41 42 46 45 45 43 42 43 43 42 43 42 43 43 43 43 44 44
52 52 51 51 51 51 50 51 49 48 47 46 46 45 44 44 43 41 40 41 42 40 39 40 41 43 44 41 41 42 42 41 42 42 42 42 42 42 42 43 43 44
51 51 52 51 51 50 50 51 49 48 47 46 45 44 43 42 41 41 41 40 40 38 37 40 41 44 41 41 41 41 42 42 41 41 42 41 42 42 42 42 43 43
52 52 51 51 51 51 50 49 48 48 46 45 45 44 42 42 41 41 40 39 39 38 38 39 40 42 41 41 41 41 41 41 40 40 40 41 41 42 42 42 42 43
53 53 51 51 50 50 49 48 47 47 46 45 43 42 42 42 40 40 39 39 38 38 37 37 38 42 41 41 41 40 40 40 39 39 40 40 41 41 42 42 42 42
52 53 52 51 50 50 49 48 47 45 44 43 43 43 42 42 41 40 39 39 38 35 35 36 38 42 40 40 40 40 40 40 39 39 39 40 40 41 41 41 42 42
50 49 48 48 48 48 48 46 45 44 43 42 41 41 41 40 38 39 39 37 36 35 35 35 35 40 39 40 40 40 40 40 38 38 38 39 39 40 41 41 42 42
51 50 49 48 48 48 47 44 43 41 41 42 42 41 40 39 40 39 39 38 36 35 33 33 34 39 39 40 40 40 39 38 37 38 38 38 38 39 40 41 41 42
51 51 49 48 47 46 44 43 42 42 41 43 42 39 39 39 39 38 37 37 37 36 35 34 34 38 40 40 40 40 40 37 37 37 37 37 37 38 39 39 40 44
50 50 50 49 48 47 44 43 43 44 43 42 41 40 40 38 39 38 36 35 36 36 42 39 34 37 40 39 39 39 40 38 37 36 36 36 36 36 37 38 39 41
49 49 48 48 47 45 44 44 44 44 42 41 38 39 38 36 37 37 37 37 36 36 37 36 34 33 36 39 40 40 40 39 37 35 35 35 36 37 37 38 39 39

ECMWFNIL_sfc_temp_006.txt.gz
Temp
54 54 54 54 53 54 53 52 51 52 52 51 53 52 53 52 51 51 51 50 51 51 50 50 51 51 51 51 51 52 52 51 51 51 50 51 50 51 51 51 51 51
54 54 55 54 54 54 52 53 52 53 52 51 52 51 51 52 51 51 50 51 51 50 50 50 50 50 50 51 50 50 50 50 50 52 50 50 50 50 50 50 51 51
53 53 54 53 54 52 52 52 52 52 53 52 51 51 51 52 51 50 50 50 50 49 49 50 50 50 50 49 49 50 50 49 49 49 51 50 50 50 50 50 50 50
54 55 55 55 54 53 52 52 51 51 50 50 51 52 52 52 51 50 50 53 50 49 48 49 50 49 49 49 49 49 49 49 49 49 50 50 50 50 50 51 51 50
54 54 54 55 54 53 52 52 52 51 51 52 50 50 52 51 50 50 50 49 50 49 49 49 47 47 48 48 48 48 49 48 48 48 48 49 49 50 50 51 49 49
53 54 54 54 54 53 52 52 53 52 51 50 50 51 51 51 50 50 50 49 48 49 48 48 47 46 47 47 47 47 47 48 47 47 48 48 48 48 49 49 48 48
53 52 53 53 53 53 53 53 52 53 52 52 51 51 50 50 50 50 50 49 48 49 48 48 47 46 47 47 48 47 46 47 47 47 47 47 48 48 48 48 49 48
55 54 53 52 52 52 53 52 51 52 51 51 51 50 51 51 50 50 49 48 48 47 46 46 47 47 46 48 47 46 46 47 46 46 46 46 47 47 47 48 48 47
53 53 53 52 52 52 52 52 51 51 51 51 51 49 50 50 50 49 48 48 47 46 46 46 47 46 46 47 46 46 46 46 46 46 46 46 46 46 46 47 47 47
55 53 52 52 52 52 52 51 51 51 51 51 51 49 49 49 49 48 48 47 47 46 46 46 46 46 45 46 47 46 46 46 45 45 45 45 45 46 46 46 47 46
54 53 53 53 53 52 52 51 51 50 51 51 49 49 48 48 48 48 48 47 47 46 46 45 46 46 46 45 44 45 45 45 44 45 45 45 45 45 47 47 47 47
53 52 52 53 53 52 52 51 51 51 51 50 51 49 48 48 48 48 49 47 46 46 46 46 45 44 45 45 44 44 44 44 44 45 45 45 45 46 46 47 47 47
54 54 54 54 54 53 52 51 51 51 51 50 50 50 49 48 48 48 47 47 46 46 46 46 45 44 44 44 43 42 42 44 44 44 44 44 45 46 46 46 47 47
54 54 54 53 52 52 51 51 51 51 51 50 50 49 49 49 48 47 46 47 46 46 45 45 44 43 42 42 42 42 43 44 43 44 44 44 44 45 45 46 46 46
52 51 51 52 52 51 51 50 50 50 50 49 50 50 49 49 48 47 46 45 44 44 44 44 44 43 42 43 44 44 43 43 43 43 43 43 43 44 44 45 45 46
52 52 52 52 51 51 51 51 51 50 50 49 49 49 48 47 46 47 47 45 43 43 44 44 43 43 46 43 44 45 43 42 42 42 42 42 42 42 43 44 44 45
51 51 51 51 51 51 50 51 50 49 49 48 48 47 46 46 46 45 44 44 44 44 42 42 42 45 43 41 41 41 43 42 42 42 42 41 41 41 41 43 44 45
50 50 50 50 50 50 50 50 49 48 47 47 46 45 45 45 44 44 43 44 43 43 42 43 43 45 41 41 41 40 42 43 41 41 41 41 41 41 42 42 42 43
50 50 50 50 51 52 51 50 49 49 48 46 45 45 45 45 44 44 43 43 43 42 42 43 43 42 41 41 40 40 40 41 41 40 40 41 40 41 41 41 42 42
50 50 49 50 51 50 49 48 48 48 46 45 44 44 44 44 44 43 42 42 42 42 42 41 41 42 40 40 40 39 39 39 41 40 40 40 40 40 41 41 41 41
49 49 49 49 49 48 47 46 46 44 45 44 43 43 43 43 43 42 42 42 42 41 41 40 41 42 40 40 39 39 39 39 39 39 39 39 40 40 40 40 41 41
49 48 48 48 48 48 47 46 45 45 44 44 43 42 43 43 42 43 42 41 40 40 40 39 39 40 39 39 39 38 39 41 39 38 38 39 39 40 40 41 41 41
49 49 48 48 48 48 47 46 45 44 42 44 43 42 42 42 42 43 42 41 40 39 39 38 39 40 38 39 38 38 39 39 38 38 38 37 38 39 39 40 40 41
49 49 48 48 49 48 46 45 44 44 43 44 43 42 42 42 42 40 40 40 40 39 39 39 39 39 39 38 38 38 39 38 38 37 36 37 37 38 39 39 39 41
49 50 49 49 48 46 45 44 44 43 43 43 42 42 41 40 40 39 38 38 39 39 41 40 38 39 39 38 38 38 40 39 38 37 36 36 37 37 38 38 39 40
49 50 49 49 47 45 45 44 44 43 42 42 41 41 40 38 39 38 38 38 38 38 40 40 38 38 39 38 39 39 39 40 38 36 36 37 37 38 38 38 39 39

ECMWFNIL_sfc_temp_009.txt.gz
Temp
66 67 66 66 67 67 66 65 65 66 66 66 66 66 66 66 65 65 64 64 64 63 63 63 63 63 63 63 63 63 63 61 61 61 61 60 60 59 59 59 58 59
65 65 66 67 66 66 66 65 65 66 66 66 67 67 67 65 64 65 64 64 64 64 64 63 64 64 64 64 63 62 62 61 60 62 60 60 60 60 58 58 58 59
65 64 65 65 65 64 64 64 65 65 66 66 66 66 65 65 64 65 65 64 64 63 63 63 63 63 63 63 63 62 61 60 60 61 61 60 60 59 59 59 59 57
64 64 65 65 65 65 65 64 64 64 65 64 64 65 65 64 64 63 63 64 64 63 63 63 63 63 63 63 62 62 61 61 61 61 60 60 60 60 59 59 59 59
64 64 65 65 65 65 64 64 64 64 64 65 64 64 64 63 63 63 63 63 64 63 63 62 63 62 62 63 63 61 61 60 60 60 60 59 59 59 59 59 58 57
65 66 66 65 65 64 64 64 65 64 64 63 63 64 64 64 64 64 63 63 63 63 62 62 62 62 62 62 62 61 61 61 60 60 59 58 59 59 59 58 57 57
63 64 64 65 65 64 64 64 65 64 65 65 65 64 64 64 64 65 65 64 64 64 63 62 61 61 61 62 61 60 60 60 60 60 59 59 58 57 58 57 58 57
64 65 64 65 64 64 63 64 64 64 64 64 63 64 64 65 66 64 65 64 64 64 63 63 62 62 61 61 61 59 59 59 58 59 58 57 57 57 57 57 56 57
65 65 65 64 63 64 63 64 64 64 64 63 64 64 64 65 65 64 64 65 64 63 63 62 62 62 61 61 60 60 59 58 58 58 57 56 56 56 57 57 56 56
65 66 64 63 63 64 63 64 64 64 64 64 65 64 63 64 65 65 64 64 63 63 62 62 61 61 61 62 61 61 60 58 58 57 57 56 56 57 57 57 56 55
65 65 64 63 63 64 63 64 64 64 63 64 64 64 64 63 63 64 64 64 62 62 62 62 61 61 61 61 60 59 59 58 57 57 56 57 56 56 55 56 56 55
64 65 64 64 64 63 63 64 63 63 63 63 65 64 63 63 63 63 64 64 64 63 63 62 62 62 62 61 60 58 58 57 57 56 56 56 56 56 56 56 55 56
65 65 65 64 64 64 64 64 63 63 63 63 63 62 61 62 63 63 63 64 64 63 62 62 61 61 60 59 58 58 57 57 56 56 56 55 55 56 56 56 56 55
64 65 65 65 64 64 64 63 63 62 62 62 59 56 57 60 62 63 63 63 62 63 62 61 60 59 59 59 58 57 57 56 56 55 55 55 54 55 55 55 55 55
63 64 64 65 64 63 62 62 61 62 60 59 59 59 58 59 59 59 59 60 61 60 60 60 59 58 58 58 57 57 57 56 55 55 54 53 54 54 54 54 54 54
63 63 63 64 63 62 62 62 62 61 60 59 59 60 59 57 55 56 58 58 59 59 59 57 57 56 51 46 50 57 56 55 54 54 54 53 53 52 53 53 53 54
62 62 63 62 62 62 62 62 62 61 60 60 59 58 57 56 56 57 57 58 58 57 56 56 55 54 42 41 41 44 53 54 54 54 53 53 52 52 52 52 53 54
61 62 62 62 62 62 62 63 61 60 59 58 57 56 56 56 55 56 56 56 56 57 55 55 55 46 40 41 40 41 46 54 54 53 52 52 52 52 52 52 52 51
61 61 61 62 62 61 62 61 60 59 58 56 55 54 53 53 54 53 54 54 55 55 55 55 55 43 41 41 40 39 40 47 55 53 52 52 52 51 51 51 51 50
60 61 61 61 62 61 61 60 58 57 56 57 56 55 54 54 53 53 54 53 54 55 54 55 55 44 41 41 40 39 38 43 54 52 51 51 51 51 50 51 50 50
59 60 60 61 61 60 59 58 56 55 54 54 53 54 54 53 53 52 52 51 52 53 52 52 53 42 40 40 39 39 37 41 52 51 51 51 51 51 51 50 50 49
58 58 59 59 59 58 56 55 54 53 53 52 51 51 52 51 50 51 50 51 52 53 53 53 52 40 40 40 39 39 38 50 52 51 51 51 51 51 51 52 51 50
57 57 58 58 58 56 55 54 52 52 52 52 50 49 49 49 49 50 52 52 52 51 51 50 50 43 39 39 39 38 42 53 52 52 52 50 51 51 51 51 50 50
57 58 57 57 57 55 54 53 53 53 51 52 51 49 49 49 49 49 49 50 50 49 51 52 51 46 39 39 39 38 44 52 53 52 51 50 51 51 51 51 50 45
57 57 57 57 56 56 55 53 52 51 49 48 47 48 48 49 49 48 47 48 49 49 46 48 49 46 40 39 39 38 44 51 52 52 50 50 50 50 50 50 50 48
56 56 56 56 56 55 54 52 50 48 47 48 48 49 46 45 46 48 47 47 47 46 46 47 46 47 45 38 39 39 40 50 52 50 49 49 50 49 48 49 49 50

ECMWFNIL_sfc_temp_012.txt.gz
Temp
76 76 75 75 75 76 74 74 74 73 74 74 74 73 72 72 72 72 71 71 70 70 70 69 70 69 70 70 70 71 70 68 68 68 67 67 67 66 65 65 65 67
74 75 76 76 76 76 75 75 74 74 74 74 75 74 74 72 71 72 71 70 70 70 70 69 70 70 70 70 69 69 68 67 66 68 66 65 66 65 64 64 65 66
74 74 74 74 75 74 74 74 74 74 75 74 74 74 73 72 71 72 71 71 70 70 69 70 70 70 70 69 69 68 68 66 66 67 67 66 66 66 65 66 65 63
73 74 74 74 74 74 74 74 74 74 75 74 73 74 73 72 72 71 71 71 71 70 70 70 69 70 70 69 68 68 67 67 67 67 66 66 66 66 65 66 65 65
73 73 74 75 75 75 74 73 73 74 74 74 74 74 73 71 71 71 71 70 71 70 70 69 69 69 69 69 69 67 67 67 66 67 67 65 65 65 65 65 64 63
74 75 75 75 75 74 73 73 74 74 74 73 73 74 73 72 72 72 71 70 70 70 69 70 69 69 69 69 68 68 68 67 66 66 66 65 66 66 66 65 64 64
72 73 73 75 74 74 73 73 74 74 74 74 75 73 74 72 72 73 73 71 71 71 71 70 69 68 69 69 69 67 68 67 67 67 66 66 65 63 64 64 65 64
72 73 74 74 73 73 73 74 74 74 74 75 73 74 74 74 74 73 73 72 72 72 71 71 70 70 69 69 69 66 65 66 65 66 66 65 64 64 63 63 62 63
72 73 74 73 72 72 72 73 73 73 74 73 74 74 75 74 74 74 73 74 73 72 72 71 71 70 69 68 67 67 66 65 65 65 64 63 63 63 65 65 63 62
71 72 73 73 72 72 72 72 73 73 74 73 74 74 74 74 75 75 74 73 72 72 72 71 70 69 69 69 68 67 66 65 65 64 64 64 63 64 65 64 63 62
69 70 69 70 71 72 72 72 72 73 73 74 73 73 74 74 74 75 73 73 71 72 72 71 70 70 69 68 68 67 66 65 65 65 64 64 63 63 60 63 62 62
68 68 69 70 71 71 71 72 72 73 73 72 74 74 74 73 72 72 72 73 74 73 73 72 71 70 70 69 68 67 66 65 65 64 64 64 63 63 63 63 61 62
67 69 71 71 71 72 73 73 73 72 73 73 73 73 73 72 72 72 72 73 73 73 72 71 71 70 69 68 67 67 65 65 63 63 63 62 63 63 63 62 62 62
70 70 70 72 72 72 72 72 73 73 72 73 73 72 72 72 71 71 72 72 73 72 72 71 70 69 70 68 67 66 65 64 64 62 63 62 61 62 61 61 61 61
68 69 70 71 71 72 71 71 71 72 72 72 72 71 71 72 72 72 72 72 72 71 71 69 68 67 67 66 66 66 65 63 63 63 62 61 61 61 61 61 61 61
68 68 69 70 71 71 71 72 72 71 70 71 71 72 71 70 72 72 72 71 70 69 69 66 65 66 57 52 56 65 65 64 62 62 62 61 60 60 60 60 60 60
70 70 70 70 70 70 71 71 71 71 70 70 70 70 69 69 69 70 68 67 69 68 66 64 64 59 45 45 46 51 62 62 62 61 61 60 60 59 59 59 60 61
70 70 70 70 70 71 71 71 70 70 70 70 69 68 68 68 67 68 66 68 67 67 65 63 61 47 43 43 45 45 51 62 62 61 60 60 60 59 60 60 59 58
70 70 70 70 70 70 70 70 70 70 70 69 68 68 68 67 67 66 66 66 66 65 63 62 59 43 42 42 42 43 43 52 63 61 60 60 59 59 59 58 58 58
69 69 69 69 70 70 69 70 69 68 68 69 68 67 66 66 66 65 65 65 65 64 62 61 58 43 42 41 42 41 40 46 63 60 59 59 59 59 58 58 57 57
68 68 68 68 69 69 69 69 68 67 67 68 67 67 66 65 65 64 64 63 63 63 62 58 55 41 41 41 40 41 39 44 61 58 59 59 58 58 58 57 57 56
66 67 66 68 68 68 68 67 67 66 65 66 65 65 65 65 64 64 62 62 62 60 58 57 53 40 41 41 40 40 39 54 58 57 58 59 59 59 58 59 59 58
65 65 65 66 66 67 67 66 66 65 65 66 65 64 63 62 62 62 62 61 58 58 57 55 52 43 40 40 40 39 44 56 58 59 59 58 58 58 59 59 58 58
65 66 65 65 66 66 66 66 66 66 66 66 63 62 61 62 62 60 59 58 56 55 56 55 53 45 40 40 40 39 46 58 60 59 58 58 58 59 59 59 58 50
65 64 64 65 65 65 66 65 65 64 65 65 63 62 60 60 59 58 56 56 56 56 52 55 54 46 39 40 39 39 47 57 58 59 57 57 57 57 58 58 59 54
63 63 63 63 64 65 65 65 65 65 64 63 62 62 58 57 54 53 51 50 51 53 54 56 54 51 46 39 40 39 41 54 56 55 55 55 57 57 57 57 58 58

ECMWFNIL_sfc_temp_015.txt.gz
Temp
77 77 76 76 77 77 75 76 76 75 75 76 75 74 74 73 73 73 73 73 73 72 72 72 72 72 72 72 72 73 72 71 71 71 70 69 68 68 67 67 67 68
76 77 77 77 77 78 77 76 76 76 75 76 76 75 75 74 73 73 72 72 72 72 72 72 72 72 72 73 72 71 71 70 69 71 69 69 69 69 67 67 67 68
77 76 77 76 76 77 76 76 76 76 76 76 76 76 75 74 73 74 73 72 72 72 71 71 72 72 72 72 71 71 70 69 69 71 70 69 69 69 68 68 68 67
76 76 76 77 77 77 77 76 76 76 76 75 75 76 75 74 73 73 72 72 72 71 71 71 71 72 72 72 71 71 70 70 70 70 69 69 69 69 68 68 68 68
75 76 77 77 77 78 77 76 76 76 76 76 76 76 75 73 73 73 72 72 72 72 71 71 71 71 71 71 71 70 70 70 69 69 69 68 69 68 68 68 67 66
76 78 78 77 77 76 75 76 76 76 76 75 75 76 75 74 74 74 73 72 73 72 72 72 72 71 71 71 70 70 70 70 69 69 69 68 68 69 70 68 66 66
76 76 76 77 77 77 75 73 74 74 77 76 77 75 75 74 74 74 75 73 74 73 73 72 71 71 71 71 70 70 70 70 69 70 69 69 68 67 68 68 68 68
76 76 76 76 75 75 75 74 73 73 72 77 76 76 76 75 75 75 75 74 74 74 74 74 72 72 71 71 70 69 69 69 68 69 69 69 67 67 67 67 66 66
75 75 76 75 75 75 73 74 71 69 71 74 75 76 77 76 75 75 75 75 75 74 74 74 73 73 71 71 70 70 69 68 68 68 68 66 66 67 68 68 65 65
74 75 74 74 74 75 75 74 73 72 72 70 73 76 77 76 77 77 76 75 74 74 74 74 73 73 72 72 72 71 69 68 68 68 68 67 67 67 69 67 66 65
71 72 72 70 67 68 68 69 71 73 73 72 70 71 73 75 76 77 76 75 73 74 74 74 73 73 72 71 71 71 70 69 69 69 68 68 67 67 64 66 66 65
69 68 69 70 68 68 68 69 70 69 72 71 73 73 73 72 75 76 76 76 76 76 76 76 75 74 73 72 72 71 70 69 68 68 67 68 67 66 67 66 64 65
70 69 70 69 69 68 68 68 67 67 72 73 73 73 71 71 74 76 76 76 76 76 75 75 75 75 73 72 72 71 70 69 67 67 67 67 67 67 67 66 65 65
65 67 68 70 70 71 69 68 68 69 67 64 64 68 71 72 72 73 76 76 76 76 76 75 75 74 74 73 72 70 69 68 67 66 66 65 65 66 66 65 64 64
64 66 67 67 69 70 70 71 71 68 64 62 62 64 67 69 74 75 75 75 76 75 76 75 73 73 73 72 71 70 69 67 67 66 66 65 64 64 64 64 64 64
69 68 68 69 70 71 71 72 72 73 73 70 66 65 66 71 72 74 74 73 72 74 74 73 72 72 66 57 60 69 68 68 66 66 66 65 64 63 63 63 63 64
72 72 72 72 72 72 72 73 74 74 73 73 72 72 71 71 71 72 72 68 62 67 71 70 67 65 50 50 52 55 66 66 65 64 65 64 63 63 62 62 63 64
72 73 73 72 73 73 73 74 73 73 73 73 73 71 71 71 70 70 70 70 68 66 64 64 65 49 46 47 48 50 56 66 65 64 63 63 63 63 63 63 63 62
72 72 72 72 73 73 73 73 72 72 72 72 71 72 71 70 69 69 69 69 66 65 67 66 62 45 45 46 46 47 49 58 66 64 63 63 64 63 63 63 62 62
71 72 71 72 72 72 72 72 72 71 71 72 71 71 70 69 69 68 68 68 66 66 66 66 57 45 44 45 45 44 44 51 66 63 63 63 63 62 61 61 60 61
71 71 70 70 71 71 70 71 71 70 71 71 71 70 70 69 68 67 67 66 65 65 63 59 55 43 43 43 43 43 41 47 63 61 61 61 61 61 61 60 60 59
70 69 69 70 70 70 70 70 70 70 69 70 70 70 71 71 70 69 67 66 67 65 62 56 53 41 42 43 43 42 41 56 61 59 59 60 61 61 60 60 60 59
69 68 68 68 68 68 69 68 68 69 70 71 69 69 69 68 68 68 68 67 66 65 63 56 53 44 41 42 42 41 46 59 59 59 59 59 59 60 60 61 61 61
69 69 68 68 68 68 68 68 69 70 70 70 69 68 68 68 68 68 67 67 65 63 60 56 53 45 40 41 41 41 49 58 59 59 59 60 60 61 62 62 62 55
69 68 68 67 67 67 67 67 68 68 69 70 69 69 68 69 68 66 65 64 63 61 52 53 51 45 40 40 41 41 48 58 60 61 60 60 60 60 61 61 62 57
68 67 67 66 66 66 66 67 68 68 68 68 68 69 68 68 67 65 62 59 58 56 54 53 49 47 44 39 41 40 40 53 59 57 56 57 58 59 59 60 60 60

ECMWFNIL_sfc_temp_018.txt.gz
Temp
71 71 70 70 70 70 69 69 69 69 69 69 67 68 67 67 68 68 68 68 67 67 67 67 67 67 68 67 66 67 66 64 64 64 64 63 62 62 62 62 61 61
71 71 71 71 71 70 70 70 70 69 69 69 69 68 68 68 67 68 67 67 67 67 68 67 67 67 66 66 66 65 64 64 63 67 64 63 63 62 61 61 61 62
71 71 70 70 69 70 70 71 71 70 70 70 70 69 68 68 67 67 67 66 66 66 67 67 67 68 67 66 67 65 64 65 63 64 63 63 63 62 62 62 62 62
71 71 71 71 71 71 70 70 71 70 70 70 70 70 70 69 67 67 67 68 66 66 65 66 66 66 67 66 66 65 65 65 64 64 63 63 63 63 61 61 61 61
71 71 72 72 72 72 71 71 70 70 70 69 70 70 69 67 66 67 66 66 66 66 65 65 65 65 66 65 66 64 64 64 64 64 63 62 62 62 63 62 62 61
72 74 73 73 72 70 72 71 71 70 70 69 69 70 69 69 67 68 67 66 66 67 66 66 66 65 65 65 64 64 64 64 63 64 64 62 62 63 66 63 61 60
71 71 72 72 72 72 71 70 70 71 71 70 70 69 69 69 68 68 69 68 68 67 67 66 65 65 65 64 64 63 63 63 64 64 64 63 62 62 64 64 62 62
71 72 71 72 70 71 71 70 69 69 70 69 69 69 70 70 70 69 69 69 68 69 68 68 67 66 65 64 64 63 62 65 63 63 62 63 61 61 61 63 61 61
70 72 72 70 70 67 68 69 69 69 70 68 68 69 70 70 69 69 69 69 69 68 69 68 67 67 65 65 64 64 64 63 63 62 61 61 60 61 63 62 61 60
63 62 64 67 66 66 67 68 67 68 69 68 69 68 69 70 70 70 70 69 69 69 69 68 68 67 66 66 66 65 64 63 63 61 62 61 61 61 63 61 60 59
61 60 61 65 64 64 65 65 65 65 68 69 68 68 68 66 66 67 69 70 68 70 70 69 69 68 67 66 65 64 65 63 63 63 62 62 62 62 62 61 60 59
63 64 64 65 63 60 61 63 66 66 66 65 66 65 63 63 62 63 66 69 70 71 71 71 71 69 69 67 67 65 64 63 63 62 62 62 62 62 62 61 61 60
63 63 62 65 64 62 63 64 64 63 62 63 62 62 62 62 62 63 64 67 70 70 70 70 70 70 69 67 67 67 65 65 63 62 62 61 61 62 61 61 60 60
63 63 62 62 64 66 66 66 66 64 62 62 62 62 61 61 62 62 62 64 66 65 63 64 66 67 67 69 69 68 65 64 63 61 61 61 60 60 61 60 60 60
63 63 62 62 63 64 64 65 66 64 63 62 60 60 60 60 61 63 64 65 65 64 63 61 59 60 63 68 68 67 66 64 63 63 61 60 60 60 60 59 59 59
65 64 64 64 64 63 64 65 65 66 64 63 62 61 61 61 62 62 62 61 60 60 60 59 59 61 59 57 60 67 65 65 63 62 62 60 59 58 58 58 59 58
67 67 67 67 66 66 66 67 68 67 67 65 63 63 63 62 62 63 62 61 60 58 58 59 60 62 54 51 51 56 64 62 61 61 61 59 59 57 56 57 57 59
67 68 67 67 68 67 67 68 68 68 68 68 67 66 64 65 64 64 65 64 61 59 58 59 61 55 50 48 49 51 56 62 61 60 60 59 59 59 59 58 58 57
67 67 67 66 67 68 67 66 66 66 66 66 66 66 66 65 65 65 64 65 63 60 60 61 59 44 46 47 47 49 51 57 62 60 60 59 59 59 59 59 58 57
67 67 66 67 68 67 66 65 65 64 65 66 66 66 64 64 64 64 64 64 63 62 63 61 56 45 45 46 46 46 49 53 60 59 58 59 60 60 59 58 57 56
68 67 66 66 65 65 65 64 64 63 64 63 64 64 64 63 63 62 62 63 62 62 60 56 55 44 44 44 45 45 47 49 57 58 58 58 58 58 57 57 57 56
66 66 66 65 65 64 63 63 62 62 62 63 63 63 64 64 63 64 62 62 62 61 56 54 50 41 44 44 43 44 47 52 56 56 57 56 57 57 57 56 56 55
67 66 65 64 64 63 63 62 62 62 62 63 62 62 62 63 62 62 64 63 62 61 54 52 48 43 42 43 43 45 49 54 56 56 55 55 55 57 56 56 55 55
66 66 64 64 63 63 62 61 62 61 62 62 61 61 61 62 62 62 63 62 61 60 53 51 48 44 41 43 44 46 50 54 55 55 54 54 54 55 55 55 57 57
66 65 64 63 63 62 61 61 60 61 62 61 62 62 61 62 63 62 62 59 55 54 51 50 47 43 41 42 43 43 49 54 55 56 54 54 54 54 54 55 56 54
64 63 63 63 62 61 61 61 61 61 61 61 61 63 62 62 62 62 57 53 54 52 51 50 47 46 44 41 41 40 40 49 54 53 53 52 53 53 53 55 55 54

ECMWFNIL_sfc_temp_021.txt.gz
Temp
64 64 63 63 62 62 62 62 61 61 60 60 60 59 59 60 59 59 59 60 59 58 58 58 57 58 61 59 59 60 58 57 57 58 58 57 55 56 57 56 55 55
63 63 64 63 62 62 62 62 62 62 61 60 61 60 60 60 59 59 59 59 59 58 58 58 58 58 58 58 58 58 57 56 57 60 57 56 55 55 54 54 54 54
62 62 63 63 62 62 61 62 62 62 61 61 61 61 61 61 59 58 59 59 58 58 58 57 58 57 58 58 57 58 56 55 55 56 56 55 54 55 54 54 54 54
62 61 62 62 62 63 62 62 61 62 61 61 62 62 63 62 60 60 60 61 58 57 57 57 57 58 57 57 57 58 57 57 56 55 55 55 55 55 55 55 53 54
61 61 61 61 62 63 62 62 62 62 62 62 62 61 62 61 59 60 59 58 58 57 57 57 58 58 56 57 56 56 56 57 57 55 54 55 56 55 56 54 54 54
63 63 62 64 62 63 63 61 63 62 61 61 62 62 61 61 60 60 59 58 57 58 57 57 57 58 56 57 55 56 56 58 57 55 56 55 56 56 59 56 55 54
64 63 63 63 63 64 62 61 60 61 61 61 61 61 61 61 60 60 59 60 58 58 58 57 56 56 56 56 55 56 55 55 56 56 56 55 55 55 58 56 55 55
62 62 61 62 62 62 62 62 62 61 60 60 59 59 62 62 62 61 60 60 60 59 59 59 58 57 56 56 56 55 55 57 56 56 55 55 54 55 56 57 54 53
62 63 63 61 61 61 61 60 60 60 60 59 59 59 59 61 62 62 61 61 61 60 59 59 60 58 57 57 56 55 56 55 56 55 54 53 54 54 54 55 55 54
59 60 61 61 60 59 59 59 59 59 59 57 56 57 60 59 60 60 60 59 61 61 60 60 60 60 59 59 59 57 57 56 55 55 54 53 54 54 54 54 53 54
58 58 59 60 60 60 59 59 59 60 59 59 58 58 60 58 58 58 59 59 60 61 61 60 60 60 60 59 59 58 58 57 57 56 54 54 55 54 56 54 53 52
56 56 58 58 58 58 58 59 60 60 60 59 60 59 58 58 58 58 61 62 60 58 59 61 60 59 60 60 62 61 59 58 58 57 56 55 55 55 54 53 52 53
56 56 57 57 57 56 56 57 58 59 60 59 59 59 60 59 58 58 59 60 61 60 59 58 57 57 57 59 60 61 59 58 58 58 57 56 55 55 55 54 53 53
55 56 56 56 56 56 56 56 58 58 58 59 58 58 58 58 59 59 60 60 59 59 57 56 56 57 58 59 60 60 58 58 59 59 59 57 56 56 55 55 55 54
54 54 54 54 54 55 56 57 58 59 59 58 57 58 58 58 58 58 58 58 58 57 58 56 57 58 59 59 60 60 60 59 60 60 59 57 56 55 54 55 55 55
53 53 53 53 54 54 54 53 57 59 58 57 57 57 58 58 57 58 58 58 58 58 57 56 56 58 58 54 55 59 58 61 59 60 60 58 57 55 53 54 56 56
53 54 53 54 53 53 53 55 55 57 58 58 57 57 57 57 57 57 57 57 57 56 56 56 57 59 52 48 48 49 57 57 58 58 59 58 57 55 53 54 55 56
54 54 54 55 55 55 54 55 55 55 55 57 57 56 57 56 56 57 57 57 57 57 56 57 57 53 48 46 46 46 48 57 58 58 56 56 57 56 55 54 55 55
57 59 58 57 58 57 54 54 54 54 54 55 55 57 57 57 57 57 57 57 56 56 56 56 55 51 46 46 45 46 45 53 58 58 57 55 55 55 54 54 54 53
56 56 56 55 53 53 52 52 53 53 54 53 53 53 54 54 56 56 57 56 56 56 55 54 53 51 46 45 46 45 44 49 56 56 56 56 56 56 56 54 53 54
58 56 53 54 52 51 50 52 52 52 52 51 51 52 54 53 53 53 53 53 53 54 54 52 53 45 43 44 44 43 44 48 53 54 54 53 54 54 51 50 52 53
56 54 53 53 53 51 52 52 51 51 52 50 51 49 51 51 51 52 52 52 53 51 50 48 43 41 41 42 44 44 47 51 52 51 51 50 51 51 50 50 51 52
54 53 52 53 53 53 54 52 52 51 50 49 51 48 49 50 52 51 49 50 49 48 48 44 41 41 41 43 43 45 47 50 51 50 50 50 49 49 49 51 52 52
54 54 53 53 51 52 51 50 50 50 50 50 52 49 49 50 50 51 51 50 49 48 47 44 40 41 41 42 44 45 47 49 50 49 48 48 50 50 51 52 54 55
55 55 52 51 51 52 52 52 51 51 50 50 49 49 48 50 51 49 44 45 46 47 48 44 41 42 41 42 43 45 49 50 50 49 48 46 48 49 51 51 47 42
54 54 53 53 52 50 49 51 48 51 51 50 48 48 50 46 45 45 43 42 44 45 45 44 42 40 41 41 42 43 45 50 49 47 46 46 47 49 48 48 45 41

ECMWFNIL_sfc_temp_024.txt.gz
Temp
62 61 60 59 58 59 58 57 56 57 56 55 56 56 56 56 54 55 55 54 55 55 55 55 56 56 57 55 55 56 55 54 54 53 54 54 52 54 54 52 52 52
60 61 61 61 59 58 57 58 58 57 56 56 57 56 57 56 55 57 55 55 55 54 54 55 55 55 55 56 54 54 53 54 54 56 54 53 52 53 52 51 50 51
59 60 61 60 60 59 58 58 58 57 57 57 56 57 58 56 56 55 56 55 55 54 54 54 54 54 54 53 54 54 53 52 52 52 54 52 52 53 50 50 50 50
61 61 61 61 61 61 60 59 57 58 56 57 57 58 59 59 57 56 55 58 55 54 53 53 53 54 54 53 53 53 52 53 53 52 52 52 52 52 51 51 51 51
62 61 62 62 62 62 60 60 59 58 58 58 57 57 58 57 56 56 56 55 55 54 54 54 53 53 54 54 53 53 53 53 51 52 52 51 53 52 52 52 50 51
62 62 62 62 62 61 61 61 60 59 59 57 58 58 58 58 57 57 56 56 55 56 55 54 53 53 53 53 53 54 54 55 51 52 52 52 53 52 54 51 50 50
61 61 60 62 62 62 61 61 60 60 60 60 59 58 58 57 58 57 57 57 56 57 57 56 55 53 52 52 53 52 52 54 51 53 53 51 52 54 52 51 51 51
59 61 62 61 61 61 61 60 59 58 59 59 60 60 60 60 59 58 58 58 57 57 56 57 57 56 54 54 55 53 52 55 54 52 53 51 50 52 51 53 49 50
58 59 59 59 59 59 59 59 59 59 60 60 59 58 59 60 60 59 59 58 58 58 56 56 57 57 56 56 55 55 54 54 54 53 53 52 51 52 52 51 51 50
57 55 57 58 58 58 59 59 59 58 60 60 58 58 59 58 58 58 58 58 58 58 57 57 57 56 56 56 57 55 55 54 53 53 52 53 54 52 52 52 51 50
57 55 55 55 56 58 59 58 58 58 58 59 58 58 59 59 59 59 59 58 58 57 57 57 58 57 57 56 56 56 56 55 54 54 53 53 54 53 54 53 52 53
55 55 56 56 57 56 56 56 57 57 57 57 57 58 58 57 59 59 60 59 57 57 57 58 58 58 58 58 57 56 55 55 55 55 54 53 53 53 53 53 53 52
55 55 56 56 56 56 55 54 55 56 56 56 56 58 58 56 56 56 57 57 56 56 56 56 56 56 57 57 57 56 55 55 54 54 54 54 54 54 53 53 53 52
54 54 54 55 56 55 54 54 54 54 55 54 56 56 56 56 56 57 57 57 57 56 56 56 55 56 57 57 57 56 55 55 55 55 55 54 53 54 53 53 53 53
53 52 52 53 54 55 53 53 54 54 54 54 53 54 55 55 55 56 56 55 55 56 55 55 56 56 57 57 56 56 56 55 55 55 55 54 53 53 53 53 53 53
52 52 52 52 51 51 51 50 52 53 53 53 53 53 53 53 53 53 54 54 54 54 55 55 55 56 56 53 54 57 55 57 56 56 56 56 55 53 52 53 53 52
50 51 51 51 50 50 50 51 52 52 52 52 53 52 52 52 53 52 53 54 54 54 54 55 56 57 51 47 47 50 56 55 55 55 57 56 56 54 53 53 53 53
50 50 50 50 50 49 50 50 51 52 51 51 52 52 53 52 52 53 53 52 53 53 53 54 55 53 48 46 45 44 49 56 55 55 56 56 56 56 56 56 55 53
49 48 49 49 49 49 49 50 49 50 49 49 50 52 52 51 53 51 52 52 52 52 53 54 54 50 47 46 45 44 43 48 54 54 54 54 55 56 56 55 54 52
49 48 49 49 49 49 47 47 47 49 50 48 48 48 48 49 49 50 50 50 52 52 53 52 53 50 46 45 44 44 42 43 52 53 54 54 54 54 55 54 54 53
50 47 49 49 47 46 45 45 46 46 47 46 45 47 48 49 47 47 49 49 49 51 51 51 48 43 44 44 43 42 42 41 49 51 51 50 50 50 50 51 52 52
50 49 48 47 46 45 47 48 46 48 51 47 45 44 45 45 46 45 45 46 47 47 49 46 39 41 42 43 43 42 42 47 48 48 47 47 48 48 48 48 49 51
49 48 46 46 46 49 50 49 49 51 49 46 47 43 44 44 44 45 45 46 45 47 46 40 39 41 41 41 41 42 45 46 46 47 47 47 47 49 50 50 49 51
48 45 47 46 46 48 46 46 45 45 45 45 50 48 46 44 43 45 41 42 44 45 46 43 39 41 41 41 42 44 46 46 45 46 46 48 49 49 48 47 47 52
47 46 45 45 46 44 44 45 44 46 46 44 44 44 45 41 42 43 41 40 41 43 48 43 39 41 41 41 43 43 46 47 48 48 49 48 48 46 45 44 44 44
46 49 45 45 45 43 43 45 43 45 47 49 44 43 42 38 39 37 37 37 39 38 40 39 40 40 41 42 43 44 45 47 47 47 45 45 46 46 43 43 43 42

ECMWFNIL_sfc_temp_027.txt.gz
Temp
59 60 60 59 57 56 54 53 52 52 51 52 52 51 52 53 53 53 52 52 53 53 52 53 53 54 55 53 53 53 52 52 51 50 51 51 50 51 52 50 49 49
59 60 61 59 57 57 54 53 53 53 52 52 52 52 51 52 52 53 52 52 53 52 52 53 53 52 52 52 51 52 51 52 52 53 52 51 49 50 49 48 48 48
58 58 59 59 59 57 56 54 53 52 53 53 52 53 52 53 52 52 52 51 52 51 52 52 52 52 52 51 51 53 52 50 51 49 52 50 49 50 47 48 48 48
59 59 60 59 58 58 57 56 53 53 53 53 54 53 53 55 53 52 53 56 51 51 50 51 52 51 50 50 51 50 50 50 50 50 51 49 50 50 48 49 49 49
60 60 60 60 59 59 58 58 56 54 53 55 53 53 54 53 52 52 52 52 52 51 51 51 51 51 51 51 51 50 50 50 49 49 50 50 49 51 50 50 49 49
59 60 61 60 59 59 59 59 59 57 56 54 55 55 54 54 53 53 53 52 52 52 51 51 51 51 50 50 50 51 52 52 50 50 51 50 49 49 52 49 49 49
58 58 59 60 59 59 59 59 59 58 57 57 55 55 54 54 54 54 53 53 52 52 52 51 51 51 50 50 50 50 50 50 49 50 50 49 49 49 50 49 49 49
57 57 57 57 58 57 59 59 57 56 57 55 56 58 56 56 56 55 54 53 52 53 53 53 52 52 51 51 52 50 50 52 51 49 49 50 50 49 49 50 48 48
56 55 57 58 58 59 59 58 57 56 57 57 58 58 56 56 57 56 55 55 55 56 55 54 53 53 51 51 51 52 51 50 50 49 49 49 49 49 49 47 48 48
54 55 56 56 57 58 58 56 56 56 56 57 56 56 56 56 55 56 56 55 57 57 57 55 54 53 52 52 53 53 53 52 50 50 49 49 50 49 49 48 49 48
56 55 55 55 54 55 55 56 56 56 56 57 57 57 57 57 56 56 56 56 56 55 55 55 55 54 53 53 52 51 52 53 52 51 50 51 51 50 52 50 49 50
54 54 54 54 54 54 54 55 55 55 55 55 55 56 56 56 55 56 56 56 55 54 54 55 55 54 53 53 53 52 52 51 51 52 52 51 51 51 51 51 51 50
54 54 53 55 55 55 55 55 56 54 54 55 54 55 55 55 55 57 57 57 57 56 56 55 55 54 54 54 53 53 53 52 51 51 51 52 52 52 51 51 51 51
52 53 54 53 54 54 54 55 55 54 54 54 54 54 54 55 55 56 57 55 56 57 57 56 55 55 55 54 53 53 53 53 53 53 52 51 52 53 53 52 52 51
51 51 53 54 54 54 54 54 54 55 54 53 54 54 55 55 56 57 56 55 54 53 53 53 53 55 56 56 56 55 55 55 54 54 54 53 52 52 52 53 53 52
53 52 53 53 53 54 54 54 54 54 54 53 54 54 54 53 55 55 55 55 54 53 52 52 52 54 55 52 53 55 54 55 54 55 54 54 54 54 53 53 54 53
51 51 51 53 53 53 52 52 53 53 53 52 52 52 53 53 53 54 54 53 53 52 52 52 53 55 50 47 46 49 54 53 54 54 54 55 55 55 54 53 53 53
49 50 50 50 49 50 49 49 49 49 50 52 52 52 52 51 51 52 51 51 51 51 52 52 53 51 48 47 45 44 48 52 52 53 53 53 54 54 54 54 54 53
46 47 48 48 47 48 48 48 48 48 48 47 48 48 48 49 50 49 50 50 51 51 50 51 51 49 46 46 45 44 43 46 52 52 53 53 53 53 53 53 53 52
45 45 46 45 45 44 44 44 46 45 45 44 45 44 44 46 45 46 46 46 47 48 49 48 48 46 42 42 42 42 42 43 48 49 50 51 52 52 53 52 51 51
45 45 46 45 43 43 43 43 44 44 45 43 42 44 45 45 44 45 45 45 45 46 45 46 47 41 40 41 41 41 41 41 45 47 47 47 48 49 48 49 50 51
46 44 45 44 44 42 44 43 43 44 44 44 41 41 40 40 41 41 42 43 43 43 45 45 41 42 42 42 42 41 41 42 42 44 45 44 43 45 45 47 49 50
46 45 45 44 43 44 44 44 45 45 43 41 40 39 40 41 42 43 40 39 42 42 43 42 38 40 41 41 41 40 42 43 42 43 42 42 41 42 43 44 46 46
46 45 46 45 42 45 45 43 43 44 44 43 46 42 42 42 42 39 38 39 41 42 41 41 39 40 41 40 39 41 43 43 42 42 42 42 41 41 41 42 46 52
44 43 43 44 45 44 42 42 42 44 44 40 40 41 40 38 39 39 37 37 37 37 46 39 35 39 42 39 40 42 44 44 44 43 43 40 40 39 39 40 40 43
46 47 44 44 45 42 42 43 42 43 42 40 38 39 39 36 37 36 36 35 34 34 36 36 36 36 38 41 42 42 44 45 45 45 42 40 39 41 40 40 40 41

ECMWFNIL_sfc_temp_030.txt.gz
Temp
58 58 57 56 55 56 54 53 51 51 50 49 51 51 52 52 53 51 52 52 53 52 52 53 53 53 54 53 54 54 54 52 52 52 53 53 52 53 53 52 52 53
57 58 58 57 57 55 54 53 52 52 51 50 50 50 50 52 51 52 51 51 53 52 52 52 52 52 52 53 52 53 53 53 53 54 52 52 51 52 51 51 52 52
56 57 57 57 57 55 54 53 53 52 53 51 50 51 52 53 51 51 50 52 51 51 51 51 52 52 52 52 52 53 52 52 52 52 53 51 51 52 51 51 51 52
57 58 58 57 57 56 55 54 54 54 53 53 53 53 53 55 52 52 52 54 50 51 51 52 51 51 51 51 52 51 51 52 51 52 52 51 52 52 51 51 51 52
57 57 58 58 58 57 56 56 56 55 53 54 53 53 55 53 52 52 52 51 51 51 52 52 51 52 52 51 51 51 52 51 50 52 52 51 51 53 52 53 52 52
58 58 58 59 59 58 57 57 58 57 55 54 55 55 53 53 52 52 52 52 52 52 52 52 52 52 51 51 50 51 51 51 50 51 52 52 51 51 52 51 52 52
57 57 58 58 57 57 57 58 58 58 56 55 54 54 54 53 53 52 52 52 52 53 53 52 52 52 51 51 51 51 51 50 50 51 52 51 52 51 51 51 52 52
56 56 57 57 56 56 56 56 57 56 55 54 54 53 53 53 53 53 53 53 53 53 52 52 52 53 52 52 52 51 52 52 50 51 51 51 51 52 52 51 51 52
56 55 56 56 56 55 56 56 56 56 56 55 54 54 54 54 54 54 54 54 54 54 54 54 54 53 52 52 52 52 52 52 52 51 52 52 52 51 51 50 51 52
55 55 55 56 56 55 55 55 54 55 56 56 55 55 54 54 55 55 55 55 55 55 55 55 55 54 53 53 53 53 53 53 52 52 52 52 53 52 51 51 52 52
53 54 55 55 55 54 55 55 55 55 56 57 56 55 55 55 55 56 56 56 56 56 55 55 55 55 55 53 53 53 53 53 53 52 52 53 52 52 53 52 52 54
53 53 54 55 55 55 55 55 56 56 56 56 57 56 55 55 56 56 56 56 57 56 55 56 56 56 55 55 55 54 53 53 53 53 53 53 53 52 53 53 53 53
52 53 53 54 54 55 55 55 55 55 55 55 56 56 55 55 55 56 55 56 57 56 56 56 56 55 54 54 55 55 54 55 54 53 53 53 53 53 53 53 53 53
52 52 53 53 54 54 54 54 54 54 55 55 55 55 55 56 55 55 55 55 55 56 56 56 55 55 55 55 55 55 54 54 54 54 54 54 53 53 53 54 54 54
51 51 52 52 52 53 53 53 53 54 54 55 55 55 56 56 55 55 55 55 54 54 55 55 55 55 56 55 55 56 55 55 54 54 54 54 53 53 53 54 55 55
50 51 52 51 51 52 52 52 52 53 53 53 53 53 53 53 54 54 53 54 54 54 54 54 54 55 55 51 52 56 54 55 54 54 54 53 53 53 53 53 55 55
51 51 50 51 50 51 51 51 52 53 53 53 52 52 52 53 53 53 53 53 53 53 53 53 54 55 50 46 45 46 53 54 54 53 53 53 54 54 54 53 54 55
49 50 49 50 50 50 50 50 50 51 51 51 51 51 52 51 51 52 52 52 52 52 52 53 54 51 46 45 44 43 46 53 53 53 53 53 53 54 55 54 54 54
47 48 48 48 49 49 48 48 48 49 49 49 51 52 51 51 52 51 51 51 51 52 52 53 53 47 42 42 41 42 41 47 53 53 53 53 53 54 54 54 53 53
47 48 48 47 47 47 47 46 47 47 45 45 46 47 48 48 50 50 50 50 50 51 51 50 49 46 41 41 40 40 40 42 50 51 52 52 52 52 53 53 53 53
45 46 46 45 45 45 44 44 44 42 44 44 45 45 45 45 45 46 47 47 47 47 47 48 48 41 39 39 39 39 39 40 48 48 48 48 49 49 50 51 51 51
46 45 45 44 43 43 44 44 44 46 46 43 43 42 42 42 42 43 42 42 41 42 43 43 43 39 40 40 40 39 39 44 45 46 46 45 44 45 47 48 49 50
48 48 47 46 44 45 45 45 45 43 43 42 44 42 43 44 43 41 39 40 41 42 43 42 41 40 39 40 40 38 41 44 44 44 44 43 43 43 44 46 48 49
44 45 47 47 46 48 48 47 45 45 45 44 46 44 45 44 42 39 37 39 41 42 44 43 41 40 40 40 39 40 43 44 44 44 42 42 42 42 42 43 47 50
44 45 45 46 46 47 46 46 46 47 45 44 44 45 46 43 42 40 38 38 38 40 45 40 39 40 40 39 39 40 43 44 45 44 43 41 42 41 41 42 43 45
47 47 45 46 47 45 43 44 44 43 43 43 40 41 41 39 40 39 38 37 36 37 38 38 40 39 40 40 40 40 42 45 45 45 43 41 42 43 42 42 43 44

ECMWFNIL_sfc_temp_033.txt.gz
Temp
68 68 68 68 68 67 66 66 67 67 67 68 68 68 68 66 67 66 66 66 66 66 65 65 66 65 65 66 66 68 68 65 65 66 66 66 66 65 64 65 66 67
66 66 67 67 66 66 66 67 66 68 67 67 68 67 67 67 66 67 66 66 66 66 66 66 66 66 66 67 66 66 67 66 65 66 65 65 65 65 64 64 65 66
65 65 65 66 66 65 65 65 64 65 67 67 67 68 67 68 67 67 67 68 67 66 66 66 66 66 66 66 66 66 66 65 65 65 66 65 65 65 65 65 66 65
64 65 66 66 65 65 65 63 62 63 64 64 66 67 68 67 68 67 67 67 68 67 66 67 67 67 67 67 67 67 66 66 65 65 65 65 65 66 65 66 66 67
65 65 66 66 66 66 66 64 61 61 63 65 66 66 68 68 68 68 68 67 67 67 67 67 67 67 67 67 68 67 66 66 65 67 67 65 65 65 65 66 66 65
66 68 67 66 66 66 66 66 64 63 64 65 66 68 68 68 69 68 67 67 67 67 67 67 67 66 67 67 67 67 67 67 66 67 67 66 66 66 67 67 66 66
65 66 66 66 66 66 66 67 66 65 65 65 66 66 67 67 68 68 68 67 67 67 68 67 66 66 66 67 67 67 67 66 66 67 67 67 67 65 66 67 68 67
66 66 67 67 66 65 66 68 66 65 64 65 65 66 67 68 69 67 67 67 68 68 67 67 67 66 66 66 67 66 66 65 66 67 67 67 66 67 66 66 66 67
66 66 67 66 65 66 66 67 66 65 66 66 66 66 66 68 68 68 68 68 68 68 69 68 67 67 66 66 65 65 66 65 65 66 66 66 66 66 68 67 66 66
65 65 66 66 65 65 65 66 67 66 66 66 67 67 66 67 68 69 68 68 68 68 68 68 68 67 66 67 66 66 65 65 65 64 65 67 67 68 68 67 67 66
64 64 64 65 65 65 65 66 66 66 66 67 67 67 67 65 64 67 67 68 66 68 67 67 67 67 67 67 66 64 63 63 63 63 63 63 65 67 65 67 67 67
64 64 64 65 65 65 65 66 66 66 66 66 68 68 66 64 63 61 63 66 67 67 67 68 68 67 67 67 67 65 63 61 60 61 62 62 62 61 65 66 66 67
64 64 65 65 65 65 66 66 66 66 66 67 67 67 66 64 61 61 62 65 67 66 65 64 64 65 65 64 64 63 62 61 62 62 61 60 60 62 63 65 66 67
64 65 65 65 65 65 65 65 66 65 65 65 65 65 65 65 65 64 63 64 65 66 65 64 63 65 66 67 66 65 64 64 64 63 63 61 60 62 63 63 64 65
63 63 64 64 64 64 63 63 63 63 63 64 64 65 65 66 66 66 64 63 63 64 64 64 64 65 66 66 66 65 65 64 65 65 64 64 64 65 65 65 66 66
64 63 63 63 62 62 63 62 63 62 62 63 63 64 65 65 66 66 66 64 63 63 62 61 62 63 60 53 55 65 65 64 63 64 64 64 64 65 65 65 66 66
63 63 63 63 63 63 62 62 63 62 62 63 64 63 62 62 63 64 64 65 65 64 63 63 63 64 50 46 45 46 60 64 64 64 64 64 64 64 64 65 66 66
64 64 63 63 63 64 64 64 63 63 64 64 63 62 63 63 62 63 64 63 63 64 64 64 64 53 46 45 44 42 47 62 64 64 63 64 65 65 65 65 65 65
63 63 63 63 63 63 63 63 63 63 63 62 62 62 62 61 63 62 62 63 63 64 63 63 65 46 41 41 42 41 40 50 66 65 64 64 64 64 64 64 64 63
62 62 63 62 62 62 62 62 61 61 61 62 62 59 57 57 56 57 59 60 61 62 62 61 62 44 42 41 41 39 39 43 63 64 65 65 64 63 63 63 64 63
63 62 62 61 61 61 61 61 60 59 59 58 57 57 58 57 57 58 58 58 57 57 59 57 55 39 40 39 39 39 38 43 60 60 61 62 62 61 61 61 63 62
61 60 58 59 61 61 61 61 60 60 60 59 60 60 61 61 61 62 60 57 55 55 56 56 52 38 39 40 39 38 39 54 57 58 60 61 60 59 60 61 61 61
61 61 58 58 58 57 56 59 60 60 60 61 62 62 62 62 60 58 56 55 53 53 56 57 55 44 38 39 39 38 46 60 60 62 61 59 58 58 60 60 60 61
62 62 61 59 58 60 58 57 57 57 56 56 57 57 60 60 58 56 55 56 57 58 59 61 58 45 38 40 38 38 50 62 63 62 59 58 57 57 59 59 54 48
61 61 61 60 60 60 59 58 58 59 59 58 60 61 60 59 60 60 58 57 56 55 49 56 59 50 39 39 38 39 53 63 63 63 59 58 58 56 57 58 55 49
60 61 61 61 62 59 58 57 58 60 59 59 60 63 61 60 59 60 58 56 54 54 53 54 56 56 48 38 40 40 45 62 63 62 59 57 59 58 57 56 56 54

ECMWFNIL_sfc_temp_036.txt.gz
Temp
77 77 75 76 76 75 75 74 75 74 75 75 74 74 74 74 74 74 73 74 74 74 73 73 73 73 74 74 74 76 75 73 73 73 73 73 72 71 71 72 72 74
75 76 76 76 76 75 75 75 74 75 74 74 75 75 74 74 74 74 74 74 74 74 74 74 74 74 74 75 74 74 74 73 72 75 72 72 72 72 71 71 72 73
75 74 74 74 74 74 73 74 74 75 75 75 74 75 74 74 74 75 74 75 74 74 73 74 74 74 74 74 74 74 73 72 72 73 72 72 72 72 72 72 72 72
74 74 74 74 74 74 74 73 74 74 74 74 74 74 75 74 74 74 74 74 74 73 73 74 73 74 75 74 74 74 73 73 73 73 72 72 73 73 72 72 72 73
72 73 74 75 75 75 74 74 73 72 71 72 73 74 75 74 74 74 74 74 74 74 74 73 74 73 74 74 74 73 73 73 73 74 73 72 72 72 72 72 72 71
73 75 76 75 75 74 74 74 73 72 72 72 73 76 75 75 75 75 74 74 74 74 73 74 74 74 74 74 74 73 74 74 73 73 73 73 73 74 75 73 72 72
72 74 74 76 75 75 75 73 73 73 73 73 75 75 75 75 75 76 76 75 75 75 75 74 73 73 74 74 74 73 73 73 73 74 74 74 73 71 74 73 74 73
72 74 74 75 74 74 74 74 74 73 73 74 73 74 76 76 77 76 76 76 76 76 75 75 74 74 74 74 74 72 71 72 72 73 73 72 72 72 72 72 71 73
73 73 74 74 73 74 74 75 74 73 74 73 74 74 76 76 76 75 76 76 76 75 76 75 75 75 74 73 73 73 73 71 71 72 71 71 71 72 74 74 71 71
73 73 73 73 72 74 74 74 74 74 74 74 75 75 75 75 76 77 76 76 75 76 76 75 75 74 74 75 74 74 73 72 72 71 71 71 71 73 74 73 72 71
72 72 72 71 72 73 73 74 74 74 75 76 75 74 76 75 75 77 76 76 75 76 76 76 76 76 75 74 73 73 73 72 73 73 71 71 70 70 68 70 71 71
71 71 71 71 71 72 73 74 74 74 75 75 76 75 75 75 75 76 76 76 76 76 76 76 77 76 76 75 75 73 73 72 72 72 71 71 70 70 69 69 68 69
70 71 71 72 71 71 72 73 74 74 75 75 76 76 75 75 75 76 75 75 76 75 76 76 75 75 75 74 74 74 73 73 70 70 70 70 71 71 71 70 69 68
70 71 71 72 72 73 72 72 73 73 74 76 76 75 75 76 76 75 75 76 76 75 76 75 74 74 75 75 75 74 72 72 72 70 71 71 70 72 71 71 70 70
70 70 71 71 72 72 71 69 69 72 74 75 75 75 74 76 76 76 75 75 75 74 74 73 72 72 74 73 74 73 73 71 71 72 71 71 71 71 71 71 71 70
71 71 71 72 72 71 72 72 72 72 72 73 73 74 74 75 75 75 75 74 74 74 74 72 72 73 64 56 59 72 72 72 70 70 71 71 70 71 71 70 71 71
70 70 70 70 71 71 71 71 72 71 71 72 72 72 72 73 73 73 73 73 74 73 72 71 70 70 48 47 47 48 66 71 71 70 71 71 71 70 70 70 71 72
71 71 71 70 70 70 71 71 71 71 71 71 71 71 71 71 69 68 68 69 69 71 69 70 71 51 42 43 42 43 49 68 71 70 70 71 71 71 71 71 70 70
71 71 71 70 71 71 70 70 70 70 70 69 68 64 63 62 64 64 64 66 66 67 66 65 69 44 43 41 43 41 42 53 74 72 71 71 71 71 71 71 70 69
72 72 71 71 70 70 70 70 70 69 69 68 64 63 63 62 62 60 61 63 63 65 66 65 66 44 42 40 41 40 40 48 73 71 71 72 71 71 70 70 70 70
73 72 71 71 71 70 70 70 69 68 67 66 66 65 64 63 61 60 60 61 63 65 66 66 61 40 41 39 39 39 38 49 70 70 71 71 70 69 69 68 69 69
72 71 70 70 70 70 70 70 69 69 68 68 67 67 66 66 65 65 63 62 62 63 63 65 58 38 39 39 39 40 40 64 70 70 70 70 70 69 69 70 69 69
71 71 71 71 70 70 70 70 69 69 69 70 68 68 67 67 66 66 66 65 65 65 64 66 63 44 38 38 39 38 48 70 70 71 70 68 68 68 69 67 66 66
70 71 71 70 71 70 70 70 70 70 70 70 70 69 68 69 69 69 69 70 69 69 70 69 67 48 36 40 38 39 49 69 71 70 68 68 67 67 68 65 58 44
70 69 69 69 70 70 69 69 69 69 70 70 71 71 69 70 70 70 69 70 69 68 56 65 67 54 38 39 38 40 50 69 70 72 67 67 67 66 66 66 62 53
68 68 68 68 69 69 69 69 70 70 69 69 70 72 71 71 70 70 68 67 66 66 66 68 67 65 53 37 39 39 40 61 71 69 67 66 67 67 65 64 63 60

ECMWFNIL_sfc_temp_039.txt.gz
Temp
76 76 76 76 77 77 76 76 77 76 76 77 75 75 75 75 76 75 75 75 75 75 75 75 75 75 76 76 76 77 76 74 74 74 74 73 73 73 72 73 74 75
76 76 76 76 76 77 77 77 76 77 76 76 76 76 75 75 75 75 75 75 75 75 76 75 76 76 76 76 75 75 75 74 74 77 74 74 74 74 72 73 73 75
76 76 76 76 76 76 76 77 77 77 76 77 76 76 75 75 75 76 75 75 75 75 75 75 75 75 76 76 75 75 74 73 73 74 74 74 73 73 73 74 74 74
76 76 76 76 76 76 76 76 76 76 76 76 75 76 76 75 75 75 75 75 75 74 75 75 75 76 76 76 75 75 75 74 75 75 74 74 74 74 73 74 73 74
75 76 77 77 77 77 76 76 75 76 75 76 75 75 76 75 75 75 75 75 75 75 75 75 75 75 75 75 76 74 74 74 75 75 74 73 74 74 74 74 73 73
75 77 77 77 76 75 75 75 76 76 76 75 75 76 76 76 76 76 75 75 76 75 75 75 75 75 76 75 75 75 75 75 74 75 75 74 75 76 77 75 75 73
74 75 75 76 76 75 75 75 75 75 75 75 76 75 76 76 76 77 77 76 77 76 77 75 75 75 75 75 75 75 75 75 76 76 76 75 74 74 76 75 75 75
74 74 75 76 75 75 75 75 75 75 75 76 75 76 77 78 78 77 77 77 77 78 77 77 76 76 76 76 75 73 73 75 75 76 75 74 74 74 73 74 73 74
74 74 75 75 74 74 75 75 75 75 76 75 75 77 78 78 78 77 78 78 78 77 78 77 77 76 76 75 74 74 74 74 74 74 73 73 72 73 76 75 73 72
73 73 73 74 74 74 75 75 75 75 76 75 76 77 77 78 78 78 78 78 77 78 78 77 77 76 76 76 76 76 75 74 74 73 74 74 74 75 76 74 73 72
72 73 72 72 73 75 75 75 75 76 76 77 77 76 77 77 77 79 78 78 76 77 77 77 77 77 76 76 75 75 75 74 74 75 74 74 74 73 71 74 73 73
72 72 72 72 73 74 74 75 75 75 76 76 78 77 77 76 76 77 78 78 78 79 78 78 78 77 77 76 76 75 75 74 74 74 73 74 73 73 73 73 71 72
72 72 71 72 72 74 74 76 76 75 76 76 77 77 76 76 77 77 77 78 79 79 78 78 78 77 76 76 76 76 75 75 73 73 73 73 73 73 74 72 72 72
73 73 73 69 72 73 74 74 74 75 76 77 77 76 76 76 76 76 77 78 79 78 78 77 76 76 77 77 77 76 74 74 74 72 72 73 72 73 73 72 72 72
72 71 71 74 71 71 72 74 74 74 74 75 74 74 74 76 77 77 76 77 77 76 76 75 75 74 76 75 74 74 74 73 74 73 71 71 72 71 71 73 73 72
73 72 72 71 72 70 68 70 71 71 71 71 71 71 69 69 73 75 75 73 75 75 75 74 73 74 66 59 60 73 74 74 72 72 72 70 68 69 67 67 71 72
73 73 73 73 72 72 72 70 69 69 69 69 69 67 65 64 63 70 72 70 68 72 72 70 70 65 49 53 53 51 68 72 72 69 69 70 69 66 65 66 68 72
74 73 72 72 72 72 73 73 72 70 70 69 66 63 62 62 61 62 63 62 64 66 65 62 61 52 45 48 49 47 50 66 70 66 63 62 62 62 63 69 67 71
73 73 72 71 72 72 72 72 72 72 70 66 65 65 63 62 63 65 66 66 67 69 67 65 67 47 42 43 43 44 43 50 68 60 59 57 58 63 66 67 70 70
74 74 73 72 72 72 72 71 71 71 71 71 68 66 66 66 66 67 69 69 69 69 68 68 70 46 43 42 44 41 42 47 67 64 60 60 61 63 68 71 70 71
75 74 73 73 74 73 71 71 71 71 70 70 70 68 67 67 67 67 67 68 68 68 68 68 62 40 42 40 42 40 41 44 63 64 61 63 68 71 71 71 71 71
74 73 73 73 73 73 73 72 72 71 69 69 69 70 70 70 69 69 68 68 68 68 68 66 56 39 40 39 40 40 39 55 65 65 67 72 71 71 72 72 72 71
73 73 72 73 73 72 72 72 72 71 71 73 70 70 70 69 69 69 70 69 69 68 67 65 62 44 40 39 39 40 43 61 67 71 71 70 70 70 70 68 66 65
72 73 72 71 72 72 72 72 72 73 72 73 71 71 70 70 70 70 70 70 69 68 67 65 65 49 39 40 40 39 46 61 69 70 71 69 69 70 69 65 59 46
71 70 70 70 70 71 71 71 71 71 73 73 72 72 71 72 71 70 69 70 70 68 61 65 66 52 39 41 39 41 44 59 68 73 69 69 69 68 68 66 63 54
70 70 69 69 69 69 70 70 71 72 72 71 71 73 73 72 72 72 70 70 70 70 68 69 67 61 50 39 41 40 41 60 70 70 68 68 69 68 66 65 63 60

ECMWFNIL_sfc_temp_042.txt.gz
Temp
71 71 71 71 71 71 71 71 71 71 71 70 68 69 69 69 69 68 68 69 69 68 69 69 69 68 70 68 68 69 68 66 66 67 67 66 65 66 67 67 65 65
71 71 71 72 71 72 72 72 71 71 71 70 70 69 69 69 69 68 68 68 68 68 69 70 69 69 68 68 67 66 66 66 66 71 66 66 65 66 65 65 65 66
71 71 70 71 70 71 71 72 72 72 71 70 70 69 70 70 68 69 69 68 68 68 68 68 68 68 68 68 67 67 66 65 65 66 66 67 65 65 65 65 65 66
71 71 71 71 71 71 71 71 72 71 70 69 69 70 70 70 69 68 68 69 67 68 69 69 69 69 69 68 67 67 66 66 67 66 66 66 66 66 65 66 65 66
70 71 71 71 71 71 71 70 70 70 70 70 70 69 69 68 68 68 68 68 68 68 68 68 69 68 68 67 67 66 67 66 67 67 65 65 66 66 67 66 65 65
71 73 73 71 70 70 70 70 71 71 70 69 69 70 69 69 69 69 69 68 68 68 68 68 69 69 68 69 68 67 67 68 67 67 68 66 67 69 72 68 65 65
70 70 71 72 71 71 70 70 70 70 70 70 70 69 69 69 69 69 70 69 70 70 69 68 68 68 69 68 68 67 67 69 70 68 68 66 67 66 69 68 67 66
70 70 71 71 70 70 70 70 70 69 69 70 69 70 70 71 71 70 70 70 70 71 70 70 69 69 69 68 67 67 67 69 70 69 67 67 66 66 65 68 66 65
71 71 71 70 69 69 70 70 69 70 71 69 69 70 70 70 71 70 71 70 70 70 70 69 70 69 69 68 67 67 68 68 68 66 66 66 67 68 68 67 65 65
70 71 71 70 69 69 69 69 70 69 70 70 71 70 71 70 71 71 71 70 70 70 70 70 70 69 70 70 70 68 68 68 68 67 68 68 69 69 69 67 65 65
69 70 69 69 69 69 69 69 70 70 70 72 71 71 71 70 71 72 70 71 70 71 71 70 70 70 69 69 69 69 69 68 68 68 68 69 69 67 68 67 66 67
69 69 69 69 69 69 69 69 69 71 70 70 71 71 71 71 70 70 71 71 71 71 71 71 70 70 70 70 70 70 70 68 68 68 68 69 69 69 68 68 67 67
70 69 66 62 63 63 60 62 68 69 70 71 71 71 70 70 70 70 71 71 72 71 71 71 71 71 70 70 71 71 69 69 69 68 68 69 68 68 69 67 67 68
62 64 66 64 64 63 62 61 61 67 69 69 71 71 70 70 70 70 70 71 71 71 72 71 70 70 72 71 71 69 68 68 68 68 68 68 68 68 69 67 67 67
64 65 64 65 64 64 63 62 63 65 65 67 69 69 68 70 70 71 70 71 71 71 72 69 62 62 61 62 65 68 68 68 67 68 67 65 64 64 62 64 65 63
65 66 68 66 66 65 65 65 66 66 65 65 66 66 66 66 66 65 67 68 70 69 65 61 63 63 60 54 51 60 67 68 68 64 61 58 58 58 59 61 60 60
64 65 66 68 68 67 67 67 68 68 66 66 66 66 64 64 63 64 65 64 64 64 61 61 62 63 54 49 50 49 60 64 62 58 59 59 58 58 58 59 59 60
67 67 67 68 68 68 67 68 68 67 66 66 66 65 64 63 63 64 64 63 63 64 61 61 61 58 50 49 46 46 48 58 62 60 60 59 59 59 59 59 58 59
70 70 70 69 68 68 68 68 68 67 67 66 65 65 64 62 63 62 62 64 64 64 62 62 63 51 45 43 44 43 43 52 63 60 60 59 60 60 59 59 59 58
70 70 69 69 69 69 68 68 66 65 65 65 64 62 61 62 61 61 62 63 64 65 64 63 64 51 43 43 42 42 42 49 63 62 61 61 61 61 60 59 59 58
71 70 69 69 69 69 67 67 67 64 64 63 62 62 61 60 60 60 61 62 63 64 64 65 62 48 42 42 41 42 40 45 61 62 61 60 60 59 60 59 60 60
70 69 68 69 69 68 68 69 67 66 64 63 61 61 61 61 60 60 59 59 60 63 63 62 53 40 41 41 42 40 40 53 60 62 61 60 60 60 59 61 62 61
69 68 67 67 68 68 68 68 68 67 66 67 65 64 62 62 61 60 60 60 61 64 63 62 55 44 41 41 41 40 44 56 60 61 62 61 61 61 62 59 57 57
67 67 66 66 66 66 65 65 66 65 66 66 65 64 64 65 65 64 63 63 64 64 64 63 60 49 40 40 40 40 47 57 60 61 61 62 62 61 59 57 52 51
67 66 66 65 65 64 64 64 64 65 66 66 66 66 65 66 66 65 64 64 64 64 61 62 62 51 40 40 40 40 45 56 60 62 62 61 61 59 59 56 53 48
65 65 64 64 64 63 63 63 64 64 64 65 64 66 66 66 65 65 64 64 64 64 62 63 62 56 44 40 40 40 42 53 60 61 61 61 62 61 58 56 54 52

ECMWFNIL_sfc_temp_045.txt.gz
Temp
66 66 65 65 64 65 64 64 64 64 63 63 63 62 61 62 63 62 61 62 61 61 62 62 62 62 63 62 61 62 60 59 61 60 60 60 60 61 61 61 60 60
65 65 65 65 64 64 64 64 64 64 63 63 62 62 62 62 61 62 62 62 61 60 60 60 61 62 61 60 58 58 58 57 59 63 60 60 59 60 60 60 59 58
65 64 64 64 64 63 63 64 64 64 64 63 63 63 63 62 62 60 59 59 59 60 61 62 62 61 61 60 59 60 60 58 59 59 60 59 59 60 59 60 59 59
64 64 64 64 64 64 64 64 63 63 63 63 63 64 65 64 60 60 61 63 60 60 60 60 60 60 60 60 59 59 59 59 59 58 58 58 60 60 59 58 58 59
63 63 63 63 64 64 64 64 63 64 64 63 63 63 63 61 61 61 60 59 58 58 58 60 60 60 59 59 59 58 58 59 58 58 58 58 59 61 59 60 57 58
63 64 63 64 64 64 64 63 64 64 64 63 63 63 62 61 62 61 60 58 59 60 60 60 60 61 62 60 59 60 61 61 58 58 59 58 59 60 64 59 57 58
63 63 63 64 64 64 63 62 63 64 64 64 63 63 63 61 61 61 61 60 60 60 60 58 60 60 59 58 58 59 59 59 59 60 60 57 60 59 60 59 59 58
62 62 63 63 63 63 63 63 63 63 64 64 63 63 64 63 62 63 62 62 62 61 59 59 59 59 59 60 59 58 58 62 60 59 58 58 58 60 59 61 57 56
62 63 63 63 62 61 62 63 62 63 64 64 63 63 63 63 63 63 63 62 61 61 61 60 60 59 59 60 58 58 58 59 60 58 59 58 59 59 61 60 58 57
63 63 63 63 62 61 61 61 62 62 63 63 63 63 64 62 63 64 62 62 62 62 62 61 60 60 61 62 61 58 58 58 57 58 58 57 58 59 61 60 58 57
61 61 62 63 62 62 62 63 63 63 62 63 62 64 64 62 64 64 62 62 62 63 62 61 62 61 61 61 60 58 59 60 59 58 58 58 60 59 61 59 58 59
58 59 58 58 61 62 62 63 63 62 62 62 62 64 63 62 64 64 64 63 63 63 63 62 62 62 61 61 60 60 59 60 59 58 59 58 58 59 58 58 58 57
58 59 58 58 58 59 62 63 62 62 63 63 62 64 63 61 64 64 62 63 64 62 62 62 63 63 62 61 61 61 60 60 59 58 58 58 58 59 58 58 57 58
57 58 58 59 58 59 58 58 59 59 61 63 62 62 61 61 64 64 61 61 61 63 62 61 61 60 60 60 60 60 60 58 59 58 56 56 57 58 58 57 57 57
58 59 58 58 58 58 58 58 60 59 58 59 60 59 61 60 60 60 60 62 61 60 59 59 60 60 59 58 58 58 59 60 59 57 56 55 55 56 55 57 55 55
58 59 59 58 58 57 58 58 59 59 58 58 59 59 58 59 59 59 59 59 58 57 56 57 58 59 57 53 55 57 57 60 57 56 56 56 56 55 54 55 55 55
59 59 59 58 59 58 58 59 59 59 58 58 58 57 57 56 57 58 58 58 57 56 55 56 57 59 48 43 45 52 58 57 56 56 56 56 56 55 55 55 55 56
58 58 59 59 59 59 59 58 59 59 59 59 58 58 57 56 56 56 56 55 56 55 55 56 56 55 46 45 43 46 52 57 57 56 56 56 56 56 55 55 55 54
58 59 59 58 58 59 59 58 58 59 60 59 58 58 57 57 55 55 55 55 56 55 55 55 56 51 45 44 42 41 44 53 57 56 56 55 56 56 56 55 54 54
59 59 58 58 57 58 58 58 59 58 58 57 56 56 56 55 55 54 55 55 56 56 56 56 56 52 45 42 41 40 42 48 57 56 56 56 56 56 56 55 55 54
60 58 58 59 59 60 59 58 57 56 56 54 54 55 54 53 53 53 53 54 54 55 56 57 58 52 45 42 41 40 40 44 56 57 56 55 56 56 56 56 56 56
58 58 58 58 57 56 55 56 56 57 57 55 55 54 53 53 52 52 52 52 53 53 53 54 56 46 41 41 41 40 40 50 53 56 55 55 55 54 53 53 54 55
57 57 56 56 56 56 55 54 53 56 56 56 55 54 54 54 55 54 53 52 51 53 52 52 54 47 39 40 40 39 44 51 52 55 55 55 54 53 53 52 52 54
57 56 56 56 55 55 54 54 54 54 55 55 55 54 54 55 55 55 55 54 53 54 55 54 54 49 40 41 40 40 46 52 53 54 54 55 52 51 49 48 49 52
55 55 54 55 56 55 54 54 54 55 54 54 54 54 55 56 56 55 55 55 55 54 56 56 55 52 42 41 40 40 46 52 53 54 54 51 51 49 47 47 46 47
54 54 54 55 55 54 55 54 54 55 55 55 54 55 55 52 52 56 56 56 56 56 57 56 54 51 45 41 41 40 42 51 53 52 53 51 51 51 49 46 45 45

ECMWFNIL_sfc_temp_048.txt.gz
Temp
63 62 63 62 62 62 61 61 61 61 60 58 58 57 58 58 58 58 57 58 59 59 59 59 59 59 60 58 57 59 58 56 56 56 58 58 56 57 58 57 57 57
62 63 63 62 61 61 60 62 61 61 60 59 59 58 58 58 59 59 58 58 58 58 58 58 58 58 57 57 56 57 55 56 57 59 59 57 56 57 56 55 56 56
61 62 63 62 61 60 60 61 61 61 60 60 59 60 60 58 57 57 57 56 57 57 58 57 57 57 56 55 55 56 57 55 56 55 58 57 56 57 54 55 55 55
62 63 63 62 61 60 60 60 60 60 60 60 60 61 61 59 57 56 58 59 57 57 56 57 57 57 57 56 55 56 55 56 55 56 57 55 55 55 54 55 55 55
62 62 63 62 62 62 62 62 61 61 61 61 61 60 60 57 56 57 56 55 56 55 56 56 56 56 56 56 56 55 55 55 55 56 56 54 54 56 54 56 55 55
61 62 63 63 63 63 63 63 62 62 61 60 61 61 59 59 59 58 57 55 56 56 56 55 55 56 55 55 55 55 55 57 54 55 56 55 55 55 58 55 54 55
62 62 62 63 62 62 63 63 63 62 62 62 60 60 59 59 59 58 56 56 56 56 56 55 55 55 55 54 55 55 55 55 54 55 55 54 54 55 55 54 54 54
61 62 62 62 62 62 63 63 62 62 61 60 61 60 61 60 59 57 57 57 57 57 56 56 56 55 54 54 55 54 55 57 55 54 54 54 54 55 54 55 53 54
61 62 63 63 62 62 63 63 63 62 62 62 61 60 60 60 59 58 58 58 57 57 56 56 56 55 54 55 54 54 54 55 54 54 54 54 54 54 56 54 54 54
61 60 62 63 62 62 62 62 62 62 62 62 61 59 60 58 59 59 58 57 58 57 57 57 56 56 55 55 56 55 55 55 53 54 54 54 56 55 55 55 53 55
59 60 59 60 60 60 61 61 62 62 61 62 61 60 60 59 58 59 59 59 59 59 59 57 57 57 57 56 54 54 56 55 54 53 53 53 54 55 58 55 54 55
59 59 58 58 58 59 61 62 62 62 60 60 62 61 59 59 60 59 61 60 60 60 60 59 58 58 58 57 55 54 54 54 54 54 54 54 54 55 55 54 54 55
58 58 58 57 57 58 59 60 61 61 61 60 59 60 58 58 59 60 59 60 61 61 60 60 59 59 58 57 56 56 56 56 54 54 54 55 55 56 55 54 54 54
58 58 58 57 56 57 57 57 57 58 58 57 59 59 58 59 60 60 58 59 61 61 61 60 60 59 59 58 58 58 57 55 55 56 55 55 55 55 55 54 54 55
56 57 56 56 56 55 55 56 56 56 56 57 56 57 58 57 59 59 57 57 57 58 58 58 59 59 60 59 58 57 58 57 57 56 56 55 54 54 54 54 54 54
56 56 56 56 56 55 55 55 55 55 56 56 57 56 56 55 56 56 56 56 56 55 55 57 58 57 58 56 56 58 58 60 57 56 56 55 55 54 53 53 53 52
56 56 56 56 55 55 55 55 56 56 55 56 56 56 56 55 55 55 55 55 56 55 54 56 57 57 48 48 49 52 58 57 57 55 55 55 55 55 55 54 52 53
55 56 56 55 55 55 55 55 55 55 55 55 55 56 54 54 55 54 54 54 54 54 54 55 55 53 43 46 47 48 53 57 56 56 55 55 55 55 55 54 54 54
55 55 55 54 55 55 54 55 55 54 54 55 55 55 54 54 53 53 53 53 54 54 54 54 54 46 43 44 45 45 47 53 56 56 55 55 55 55 54 54 54 53
54 54 54 54 54 54 54 53 53 53 53 52 54 55 54 52 52 52 53 53 53 53 54 53 53 47 42 43 42 42 43 49 56 56 55 55 55 55 54 54 54 54
54 54 53 54 54 53 53 52 53 52 53 53 53 54 54 54 53 52 52 52 52 53 52 54 54 45 41 41 41 41 41 46 54 54 54 54 54 54 54 54 55 55
52 52 52 52 52 52 53 53 53 54 54 54 53 53 53 51 51 50 50 50 51 51 51 52 53 45 41 40 41 41 41 48 52 53 53 53 53 53 54 54 54 54
51 51 50 50 50 51 51 52 52 51 51 51 52 52 51 51 52 51 51 49 49 50 52 53 52 46 41 41 40 40 41 50 51 53 53 53 53 53 54 54 53 54
51 51 50 50 50 50 49 49 49 50 50 51 50 51 50 51 51 51 51 51 50 51 52 53 53 49 42 41 40 39 45 51 51 52 53 53 52 52 51 51 51 53
50 50 49 49 49 49 50 49 49 50 50 50 49 49 50 50 50 50 51 51 50 50 53 53 52 52 44 40 40 40 44 50 51 52 52 51 50 49 46 45 45 49
51 50 50 50 50 50 49 49 48 49 49 50 50 50 49 49 48 50 50 51 52 52 51 52 52 52 49 41 40 40 42 50 51 51 51 50 49 49 48 45 43 43

ECMWFNIL_sfc_temp_051.txt.gz
Temp
62 61 60 59 58 60 60 59 58 58 58 57 57 57 57 56 56 55 55 55 56 56 55 55 55 56 56 54 55 55 54 54 54 54 55 55 54 55 56 54 54 54
61 61 60 59 59 59 60 61 58 58 57 56 57 55 55 56 56 56 56 56 55 55 54 54 54 54 54 54 54 55 54 55 55 56 56 55 53 54 54 52 53 54
61 60 59 59 59 59 60 59 58 57 57 56 56 56 57 55 55 54 55 55 56 54 54 54 53 54 53 52 53 54 55 54 55 53 55 53 52 54 51 52 53 53
61 61 60 60 60 59 59 59 56 57 56 57 57 57 57 57 55 55 56 57 54 53 53 53 53 52 52 51 52 52 52 52 52 52 54 52 52 52 51 52 52 53
61 60 59 59 59 59 59 59 59 58 57 57 55 55 57 55 54 54 53 52 53 52 53 53 52 52 52 51 52 52 53 52 52 52 53 52 51 52 52 53 53 53
61 61 60 61 60 60 60 60 61 59 56 55 56 56 54 55 55 54 54 53 53 53 53 52 52 52 51 51 51 51 51 54 51 52 53 51 51 51 54 52 53 53
59 59 59 59 59 60 60 60 60 59 58 58 56 55 53 54 54 54 54 54 53 54 53 52 52 53 52 51 52 52 51 50 51 51 53 51 51 52 51 52 53 52
60 58 59 58 58 59 60 60 59 58 57 56 55 54 54 54 53 54 54 54 54 54 54 53 53 53 52 51 52 52 52 52 51 50 51 51 50 51 51 53 51 53
62 60 59 58 58 58 59 59 58 58 57 58 56 54 54 55 54 54 54 54 54 54 54 54 54 53 52 53 52 52 53 53 52 51 51 52 52 52 53 51 52 52
59 59 59 59 59 59 60 60 59 59 58 58 56 55 56 54 54 54 54 53 55 54 54 55 54 54 53 53 53 51 52 52 52 52 51 51 51 52 52 51 51 52
57 57 57 58 59 59 60 60 59 59 59 59 57 56 55 54 54 54 54 54 56 54 54 53 53 53 54 54 53 52 51 51 51 51 51 51 51 51 55 51 51 52
57 57 57 57 58 59 60 60 60 60 60 59 59 58 54 55 55 54 55 53 53 53 53 53 53 53 53 53 52 52 52 52 51 51 51 51 51 51 53 50 52 51
57 58 57 56 56 57 58 59 60 60 60 60 59 59 57 56 55 55 55 55 54 54 54 54 53 53 53 52 52 52 52 51 51 51 52 51 51 52 53 52 51 51
58 58 58 57 56 56 58 58 59 58 59 59 58 57 58 57 57 56 55 55 54 54 54 53 53 53 53 52 52 53 53 51 51 52 52 53 53 53 53 52 52 52
57 58 58 57 57 57 56 56 56 56 56 57 56 56 57 57 57 57 55 54 54 55 55 55 55 56 56 55 54 53 52 53 53 53 53 53 53 53 53 53 52 52
56 56 56 57 57 56 55 54 56 57 57 56 55 54 54 55 55 56 57 57 57 56 55 56 57 56 57 55 55 57 54 56 54 54 54 53 53 52 52 52 52 51
56 55 56 56 56 55 54 56 56 56 55 55 53 53 53 54 54 54 54 55 56 56 56 56 57 58 53 49 48 51 57 55 55 54 54 54 54 54 54 54 52 52
56 56 56 55 55 54 54 54 55 55 55 55 54 53 52 52 52 51 52 51 52 52 54 55 56 55 49 47 47 47 51 57 55 55 54 54 54 54 55 53 54 53
55 55 54 54 54 54 54 54 54 54 53 54 53 52 52 52 50 51 50 51 52 52 51 52 52 49 44 45 46 46 47 53 55 55 55 54 54 54 54 53 52 52
53 53 52 52 53 53 53 53 53 52 51 51 52 51 51 50 50 50 50 50 51 52 51 51 51 48 42 42 43 43 43 47 54 54 55 55 54 54 54 53 53 53
51 50 50 50 51 51 51 50 50 50 52 50 49 49 50 49 49 49 49 49 50 52 51 52 54 48 42 41 41 40 40 41 52 52 52 53 53 53 54 54 54 54
49 48 48 48 48 49 49 49 48 48 48 48 48 48 48 48 48 48 47 49 50 49 49 51 52 44 41 41 41 40 40 46 50 52 52 52 52 52 52 53 53 53
48 47 47 47 47 47 47 46 46 47 47 47 47 47 47 47 48 48 48 48 49 49 49 50 51 47 41 41 41 40 41 47 50 51 51 52 52 52 52 52 52 52
47 47 46 46 46 46 45 45 45 45 46 47 46 46 47 47 47 47 48 48 47 49 49 48 50 49 44 42 41 40 43 49 50 51 51 51 52 51 51 50 51 53
46 46 46 46 45 45 45 45 45 45 45 45 45 45 45 45 47 47 47 47 47 47 51 50 49 49 46 42 41 41 42 47 50 50 50 51 51 51 50 50 49 50
47 47 46 46 44 44 44 45 45 45 45 45 45 45 45 44 45 45 44 45 45 45 46 46 47 48 48 43 42 41 40 45 50 49 50 51 50 51 51 50 49 47

ECMWFNIL_sfc_temp_054.txt.gz
Temp
62 61 60 60 59 59 58 57 56 57 57 56 58 57 56 57 56 56 56 56 57 57 56 56 57 57 57 56 56 57 56 55 55 55 56 56 55 56 56 56 57 58
60 61 61 59 58 59 58 59 58 58 57 57 57 56 55 56 55 57 57 57 57 55 55 55 56 56 56 56 55 56 55 56 56 57 55 55 54 55 55 55 55 56
60 60 60 60 59 59 58 58 59 58 57 56 56 56 56 55 55 55 55 56 56 55 54 54 55 55 55 55 55 56 55 55 55 54 55 54 54 54 53 54 55 56
61 61 61 61 60 59 58 57 56 57 56 56 56 56 56 57 55 55 56 58 55 54 53 54 54 54 54 54 55 54 53 53 53 54 55 55 54 54 54 55 55 56
60 60 60 60 60 59 58 57 57 56 57 56 55 56 57 55 54 55 54 53 54 54 54 53 53 53 54 54 55 55 55 54 53 53 55 54 53 55 54 55 55 55
59 60 60 60 59 58 58 57 58 57 56 56 56 56 55 55 55 55 54 54 53 54 53 53 53 52 53 54 53 53 53 54 52 53 55 54 54 54 55 54 55 55
59 58 58 59 58 58 57 57 58 58 57 57 56 55 55 55 55 54 54 55 54 55 55 54 53 53 52 53 54 53 52 52 52 54 55 54 55 55 54 55 55 55
57 58 58 58 58 57 58 58 58 58 57 56 56 55 55 55 54 54 54 55 55 55 54 53 53 53 52 53 54 54 53 53 52 53 54 53 54 55 54 54 54 55
59 59 58 57 57 56 57 58 58 58 58 56 56 55 54 55 54 54 54 55 55 54 54 54 54 54 53 53 53 54 55 53 52 52 55 55 55 55 56 54 55 55
58 57 58 58 57 57 58 58 58 58 58 56 56 56 56 54 54 54 54 54 55 54 54 54 54 54 54 54 55 55 55 54 53 52 53 54 55 55 55 55 56 56
57 56 57 57 57 57 58 58 58 58 58 57 56 57 55 54 55 54 53 54 55 55 54 54 54 54 54 53 53 53 54 54 54 53 53 52 53 53 56 54 55 57
56 57 57 56 56 57 57 57 57 58 57 56 58 57 54 54 54 54 55 55 54 54 55 54 53 54 55 54 54 53 53 53 53 53 53 53 53 52 55 52 54 54
56 57 56 56 55 55 56 57 58 58 57 57 57 57 57 55 54 54 55 54 54 54 54 54 54 53 54 53 53 53 54 54 53 53 53 53 53 54 54 53 53 54
56 56 57 56 56 56 56 56 57 57 56 55 56 56 56 56 55 55 54 54 54 55 54 54 54 54 53 54 54 53 54 53 54 54 55 54 54 54 54 54 54 54
56 57 57 57 57 56 56 57 56 56 56 56 56 56 56 56 55 55 55 55 54 54 55 55 54 55 54 54 55 54 53 54 54 55 54 55 55 55 55 54 54 54
55 56 56 56 56 56 57 57 55 55 55 56 56 55 55 55 55 55 55 55 56 55 55 55 55 55 56 53 53 56 54 55 55 55 54 55 56 55 55 55 55 54
55 55 55 55 55 55 55 56 56 55 54 54 53 53 53 54 55 54 54 55 55 56 55 55 56 57 52 48 47 50 56 55 56 55 55 55 55 56 57 57 56 55
55 55 55 54 55 55 55 55 55 55 54 54 53 53 53 52 52 51 52 53 54 54 54 55 55 54 49 47 46 45 50 57 56 56 55 55 55 55 56 56 56 56
54 54 54 53 54 54 54 54 55 54 53 53 53 52 52 52 51 52 51 50 52 54 53 52 53 48 45 46 46 45 44 50 57 56 56 55 55 56 56 55 55 55
51 51 50 50 50 50 51 51 51 51 51 50 51 52 52 52 52 51 50 51 51 52 51 51 52 46 41 40 41 41 41 44 55 55 56 56 56 56 55 55 55 55
48 50 50 49 49 48 48 48 48 48 49 49 49 49 50 49 49 49 49 49 49 50 50 51 51 42 41 40 39 39 39 41 51 52 54 54 55 55 55 55 55 55
47 47 48 48 49 48 47 47 47 46 46 47 47 47 47 47 47 47 48 49 49 49 49 50 51 43 42 42 41 40 40 47 49 51 52 53 53 54 54 55 55 54
48 47 46 46 47 46 46 45 45 45 45 46 46 46 45 45 45 46 46 47 48 48 48 49 49 45 41 41 41 41 43 48 49 50 51 52 53 54 54 54 54 54
47 47 46 46 46 45 44 44 44 44 44 45 44 45 45 45 45 45 45 45 46 46 48 46 47 45 41 40 41 41 43 48 50 50 51 51 52 53 52 52 53 52
46 46 45 44 44 44 45 44 44 44 45 45 44 43 43 44 45 44 44 44 44 45 48 46 45 45 42 40 40 40 44 48 48 50 50 51 51 52 52 51 51 51
46 45 45 45 44 44 44 44 45 45 44 44 44 44 44 43 44 44 43 43 44 44 44 45 45 45 44 39 40 40 41 46 48 49 50 51 51 51 51 52 51 51

ECMWFNIL_sfc_temp_057.txt.gz
Temp
71 71 71 71 71 71 69 69 71 71 71 71 72 72 72 69 69 70 69 70 70 70 70 70 70 70 70 70 69 72 72 69 69 70 70 70 71 70 70 70 70 72
69 70 71 71 71 70 69 69 69 70 70 70 71 71 69 68 68 70 70 70 70 70 69 69 69 70 70 71 69 70 71 70 68 69 68 68 69 69 69 68 69 71
68 69 69 69 69 68 68 68 69 70 70 69 68 69 68 68 68 69 70 70 70 69 68 69 69 69 70 70 69 70 70 69 68 69 70 69 68 69 68 69 69 69
67 68 69 70 69 68 68 68 68 68 67 67 68 68 68 67 68 68 68 69 70 69 68 68 69 70 70 70 69 69 69 69 69 69 69 68 68 69 68 69 69 70
67 68 69 70 70 69 69 69 68 68 68 67 67 68 68 68 68 69 69 69 69 69 69 68 69 69 69 70 70 69 69 69 68 70 70 68 68 68 68 69 69 68
68 70 70 70 69 68 69 70 70 69 68 67 67 69 69 69 70 69 69 69 69 70 69 70 70 69 70 70 70 70 70 70 69 70 72 70 69 69 70 70 69 69
67 68 68 69 69 69 70 69 69 69 69 69 69 68 68 69 69 70 71 70 70 71 71 70 70 69 69 70 70 70 70 70 70 72 73 71 70 68 70 71 71 71
66 67 68 69 68 68 69 69 69 68 68 68 68 68 70 70 71 69 70 71 71 71 71 71 71 71 70 71 71 69 68 69 70 72 72 71 71 70 69 69 69 70
65 66 66 67 66 67 68 69 68 67 68 68 69 68 69 70 70 70 70 71 71 70 71 71 71 71 70 71 71 71 71 69 69 71 71 71 71 71 72 71 70 69
64 64 65 65 65 66 67 68 68 68 68 69 69 69 69 68 69 71 70 70 70 70 71 71 71 70 70 72 72 72 71 71 71 70 71 72 72 73 74 73 71 69
63 63 64 64 65 67 67 67 68 68 68 69 68 69 69 68 68 69 70 71 70 71 71 71 71 71 71 71 70 71 72 71 71 71 71 71 70 70 68 72 72 71
63 63 64 64 66 67 67 67 67 67 67 68 70 69 68 69 69 69 71 72 72 72 72 72 72 71 72 72 72 71 70 70 70 71 71 71 71 71 71 71 71 72
63 63 63 63 64 64 65 67 66 66 67 68 68 68 68 68 69 69 69 71 72 71 71 71 71 71 71 71 71 71 71 71 70 70 69 69 70 71 71 71 71 72
62 62 63 63 64 65 66 65 65 66 66 66 67 67 68 70 70 70 69 71 70 71 71 71 71 70 71 72 72 71 71 71 71 70 71 70 69 70 70 71 71 71
62 62 63 64 65 66 66 66 65 65 65 67 67 66 67 68 68 70 70 70 69 69 70 69 69 70 71 71 72 70 71 71 70 71 71 71 70 70 69 70 71 71
62 63 64 64 65 64 63 64 64 64 64 64 63 64 64 66 67 67 69 69 69 69 69 67 68 69 61 54 58 71 71 71 69 69 70 71 71 70 69 69 70 70
59 59 60 60 61 61 60 59 58 58 59 60 59 59 61 60 60 62 65 67 68 68 68 68 67 64 46 48 46 48 65 69 70 69 69 69 70 70 70 70 70 70
58 58 57 57 58 58 59 60 60 59 59 59 58 58 56 57 57 58 60 62 63 64 66 66 65 46 41 43 46 44 49 65 68 69 68 69 69 69 71 71 70 69
57 56 55 56 58 60 61 61 60 60 59 59 57 57 56 56 57 58 59 60 62 64 64 63 58 42 40 40 41 43 42 52 68 68 68 68 69 69 70 70 70 69
54 55 53 53 53 54 55 55 55 55 55 55 55 55 55 56 58 58 59 60 61 62 62 58 51 43 40 40 40 38 39 48 66 66 67 68 68 68 68 68 68 68
54 52 51 50 51 52 52 53 53 53 53 52 51 53 55 55 55 56 56 56 57 59 59 55 48 39 39 40 40 40 39 45 62 62 65 66 66 65 66 66 66 66
50 52 52 51 50 53 54 54 53 52 52 52 52 52 54 55 55 55 55 56 57 58 58 56 51 39 39 40 39 40 41 56 59 61 63 64 65 65 66 67 67 66
50 50 50 50 52 53 53 52 51 50 49 52 54 52 49 50 52 52 53 54 54 54 55 55 53 43 38 39 40 39 47 58 58 61 62 63 64 64 66 66 65 66
50 50 50 50 51 51 51 51 51 50 48 48 50 51 49 51 52 52 53 53 52 52 52 53 53 45 38 39 39 39 45 55 56 59 60 61 63 64 65 65 64 55
52 51 49 48 47 48 48 49 50 51 51 51 52 52 49 50 52 53 52 52 52 51 48 51 52 48 40 38 39 39 46 54 55 58 59 59 60 61 63 64 65 59
50 49 49 48 48 48 48 47 48 48 48 49 49 50 50 49 49 51 50 50 50 51 49 49 49 50 45 38 39 39 39 51 55 55 55 55 56 57 58 61 62 64

ECMWFNIL_sfc_temp_060.txt.gz
Temp
67 75 75 76 76 77 76 77 77 77 77 77 77 77 77 77 77 77 77 77 77 77 77 76 76 76 77 77 76 79 78 76 76 77 76 75 76 75 74 75 74 76
63 66 74 76 76 77 77 77 77 77 77 77 78 78 78 77 77 77 76 76 77 77 77 77 77 77 77 78 76 76 76 76 75 78 75 75 76 75 75 74 74 76
63 64 71 74 75 76 76 77 77 77 77 78 78 78 77 77 76 77 77 77 77 76 76 76 77 77 77 78 77 77 76 75 75 76 76 76 76 76 75 75 76 75
67 69 72 75 76 76 76 76 77 77 77 77 77 77 77 76 77 76 76 77 76 76 76 76 76 77 79 78 77 77 77 77 77 77 76 76 76 77 76 77 76 77
69 71 74 75 76 77 76 76 76 76 76 76 77 77 77 76 76 77 76 76 76 76 76 76 76 76 77 77 78 77 77 77 77 78 78 76 77 76 76 76 76 75
70 73 74 75 76 75 75 76 77 76 76 75 75 77 77 77 77 77 76 76 77 76 76 76 76 77 78 77 77 77 77 78 77 78 78 77 77 78 79 77 76 76
70 72 74 76 76 76 76 76 77 77 76 76 77 76 77 77 77 77 78 77 77 77 77 76 76 76 77 77 77 77 77 77 78 79 78 78 77 76 78 78 78 77
72 74 75 76 75 75 75 77 77 76 76 76 75 77 77 78 78 77 78 77 78 78 77 78 77 77 77 77 77 76 75 77 78 79 78 78 77 77 76 77 76 77
74 75 75 75 74 74 75 76 76 76 78 76 76 75 77 78 77 77 77 78 78 77 78 78 78 77 77 77 76 76 77 76 77 77 76 76 76 77 79 77 75 76
74 74 74 74 73 74 75 76 76 76 77 76 76 75 77 77 77 78 77 77 77 77 78 78 77 76 77 78 78 78 77 77 77 76 77 77 77 79 79 78 77 75
72 73 73 73 73 74 74 75 75 75 76 77 76 76 77 76 77 78 77 77 76 77 78 78 77 78 77 77 76 77 77 77 77 78 77 78 77 77 75 78 77 77
65 69 72 73 73 74 74 74 74 75 75 76 77 77 76 76 76 77 77 78 78 79 79 79 79 78 78 78 78 77 77 76 77 77 77 78 77 78 78 78 77 78
64 65 70 73 73 73 74 75 75 75 76 77 77 76 76 75 76 77 77 78 79 78 78 78 78 78 78 77 78 78 77 77 76 76 76 76 77 78 78 78 78 78
66 66 69 71 73 74 74 74 74 75 75 76 76 75 75 77 77 76 76 78 78 78 78 78 77 78 78 78 79 78 76 77 76 76 76 76 76 77 77 77 77 78
69 67 66 67 71 73 73 74 74 74 74 75 75 75 75 77 77 77 76 77 77 77 77 77 76 76 78 78 79 77 78 77 77 78 77 76 77 77 77 77 78 78
69 67 67 68 69 70 71 72 72 73 73 73 73 74 74 75 76 76 77 75 75 76 76 75 75 71 55 47 53 74 78 79 76 76 77 77 76 76 76 76 77 77
68 67 67 66 65 66 67 68 69 70 71 72 71 70 70 71 72 73 73 74 75 74 74 72 63 54 40 41 44 47 69 76 76 76 77 76 76 76 75 76 76 78
66 64 63 63 64 64 63 63 63 64 66 67 66 65 66 68 67 67 66 66 68 71 68 62 55 44 39 41 40 42 49 70 76 76 75 76 76 76 76 76 75 76
67 67 65 64 63 61 60 60 61 62 62 63 62 62 64 63 63 62 62 64 64 62 60 57 53 41 41 40 40 40 41 52 76 75 75 75 75 76 76 76 76 75
63 63 61 61 60 59 60 61 60 57 57 59 60 61 61 59 58 58 60 63 62 59 56 54 49 42 40 39 41 39 40 45 73 74 74 75 75 75 75 75 74 75
59 60 59 59 57 56 58 60 59 59 59 59 60 59 59 59 58 58 59 61 60 58 57 52 47 39 39 39 39 40 40 45 72 71 73 74 74 74 74 74 74 73
59 60 58 58 59 59 58 57 58 59 58 59 59 59 60 60 59 60 60 62 62 60 58 55 50 38 38 40 39 40 39 64 71 71 72 73 73 73 73 74 74 74
58 59 59 58 57 55 55 55 57 59 61 62 60 59 58 59 60 60 61 59 60 62 60 57 54 42 38 39 39 38 50 70 69 72 72 71 71 72 73 73 72 72
52 53 54 55 57 57 56 56 57 58 57 58 59 58 59 59 59 58 58 58 58 58 59 57 53 44 38 39 39 37 46 66 69 70 69 70 71 70 71 71 69 58
54 53 52 51 52 55 56 55 55 56 57 58 59 58 55 56 57 57 56 57 56 55 52 55 55 48 39 39 39 39 48 65 67 68 67 67 67 68 70 70 71 61
57 55 54 53 53 53 54 55 56 55 56 57 57 58 56 56 55 53 54 55 57 56 54 54 54 52 45 38 39 41 40 57 64 63 62 63 64 65 64 68 68 68

ECMWFNIL_sfc_temp_063.txt.gz
Temp
68 68 66 68 72 76 76 77 77 77 77 78 77 78 78 78 79 78 78 78 78 78 78 78 78 77 78 78 78 78 78 77 77 77 77 76 75 74 74 73 72 74
66 67 68 70 73 76 77 77 77 77 77 77 78 79 79 79 78 78 78 77 78 78 78 78 78 78 78 78 77 77 76 77 76 79 76 76 76 76 75 74 72 73
67 67 68 70 73 75 76 76 77 77 78 79 79 79 79 79 78 78 78 78 78 78 78 78 78 78 79 78 78 77 76 76 76 77 76 77 76 76 75 76 74 73
69 69 70 71 73 75 76 76 77 77 78 78 78 79 79 78 78 77 78 79 78 77 77 78 78 79 80 79 78 77 77 77 77 77 76 76 76 77 76 76 76 75
71 71 72 72 73 76 76 76 76 77 78 78 78 78 78 77 78 78 78 78 77 77 77 77 78 79 79 79 79 77 77 78 77 78 77 76 77 76 76 76 75 75
73 74 74 72 74 75 75 77 77 78 78 77 77 78 78 78 79 78 78 77 77 77 77 78 78 78 79 79 78 78 78 79 78 79 78 77 77 77 78 76 76 76
73 74 73 73 75 76 76 77 77 77 77 77 78 77 78 78 78 78 79 78 78 78 78 77 77 77 78 78 78 78 79 79 79 80 80 79 77 76 77 77 76 76
74 74 73 73 74 76 76 77 77 77 76 77 76 77 79 79 79 79 79 79 79 79 78 79 78 79 79 79 78 77 77 79 79 80 80 78 77 77 76 77 76 77
74 73 73 73 74 75 76 77 77 77 77 77 77 77 79 79 79 78 79 79 79 78 79 79 79 79 78 78 77 77 78 78 79 79 77 77 76 76 78 78 77 76
72 73 73 73 74 76 76 77 77 76 77 77 78 78 78 78 79 79 79 79 78 79 79 79 79 78 78 79 79 78 78 78 78 78 78 78 78 78 78 78 77 75
72 73 72 74 75 76 75 76 77 77 77 78 77 77 78 77 77 79 79 79 77 79 79 79 79 79 79 79 78 78 78 78 78 78 78 79 79 79 77 77 76 76
68 68 67 73 74 76 75 76 77 77 77 77 78 77 77 77 77 78 79 79 79 80 80 80 80 79 80 80 79 79 78 78 78 78 79 80 79 79 80 79 77 78
68 68 70 73 75 75 75 76 77 76 77 77 77 77 77 77 78 78 78 79 80 80 80 79 80 80 79 79 79 79 78 78 77 77 78 78 79 80 80 79 79 79
72 73 74 75 75 75 76 75 76 75 76 77 78 77 77 78 78 78 78 80 80 80 80 80 79 79 80 80 80 79 77 77 77 77 77 77 78 79 79 79 79 79
72 73 74 75 75 75 75 75 75 76 76 77 76 76 76 78 78 78 78 79 79 79 79 79 78 72 65 64 73 79 78 77 77 78 77 77 77 78 78 78 79 79
73 72 74 75 75 75 75 75 75 75 75 76 76 77 77 78 78 78 78 78 77 78 78 72 66 61 48 43 46 62 75 79 77 78 78 77 77 76 76 78 78 78
72 72 73 73 74 75 75 75 75 74 74 75 75 75 75 76 77 77 77 77 78 75 68 65 59 52 41 40 42 41 61 76 77 77 77 77 77 76 75 76 77 79
71 72 72 71 73 74 74 73 72 72 71 71 71 71 73 74 73 72 71 71 68 68 65 61 56 45 39 41 41 40 44 63 77 77 76 77 77 77 77 77 77 77
67 68 67 67 68 67 66 68 69 68 67 66 65 67 69 69 70 70 68 65 64 61 59 57 54 41 40 40 41 40 41 52 75 77 77 77 77 77 77 77 77 76
63 65 65 63 61 61 61 61 61 60 60 62 63 63 63 64 67 67 65 62 59 56 52 51 48 42 39 39 40 39 40 45 72 74 75 76 76 76 76 76 75 75
60 60 61 60 58 57 57 58 57 57 56 56 58 59 60 60 60 61 60 58 57 55 52 48 44 39 39 39 39 40 40 44 69 73 75 75 75 75 75 75 75 75
58 58 58 58 57 57 57 56 55 55 55 55 55 57 58 58 57 59 59 58 57 55 53 50 46 39 39 40 40 39 39 58 70 73 73 74 75 75 75 76 75 74
56 55 56 56 56 56 58 58 58 57 56 56 56 57 57 58 58 59 60 59 58 56 53 50 48 41 39 40 41 39 47 66 70 72 73 73 74 74 74 74 74 73
52 54 54 55 56 56 56 55 56 59 60 63 63 61 60 59 59 60 60 60 59 58 56 52 49 43 39 40 41 40 45 62 69 71 71 70 71 71 71 72 64 56
51 52 52 54 55 56 55 54 55 57 59 61 60 60 58 59 60 59 58 58 58 58 55 56 53 48 40 40 40 40 48 63 68 69 69 68 68 69 70 71 69 55
56 55 55 54 54 55 56 56 58 58 57 57 57 59 58 56 54 55 53 52 54 56 55 57 55 51 44 39 40 41 41 57 64 64 63 64 66 65 66 68 68 62

ECMWFNIL_sfc_temp_066.txt.gz
Temp
68 68 68 69 70 71 71 72 72 72 72 72 71 72 72 73 74 73 73 73 73 73 73 73 73 73 74 72 72 73 71 70 70 71 71 70 69 69 69 70 68 68
68 68 69 70 70 71 72 72 72 72 72 73 73 72 73 73 73 73 73 73 73 73 73 73 72 73 73 72 73 71 70 70 69 73 70 71 69 70 69 69 69 69
68 68 69 69 70 71 72 73 73 72 72 73 73 73 73 73 72 73 72 72 73 73 72 73 72 72 73 72 73 71 71 70 69 71 70 71 70 70 69 69 68 69
68 68 69 70 71 72 72 72 72 72 73 73 72 74 74 73 72 72 72 74 72 72 72 72 73 73 74 73 72 71 71 71 71 71 70 71 71 71 70 70 70 69
68 69 70 71 72 73 72 72 72 72 72 72 73 73 73 72 72 73 72 72 71 72 72 72 73 73 72 71 72 70 70 70 71 71 70 69 70 71 70 70 69 69
69 71 72 72 72 72 72 73 74 73 73 72 72 73 72 73 73 73 72 71 71 72 72 72 73 72 73 72 71 71 71 71 71 71 72 70 70 71 72 68 69 69
69 71 71 72 72 72 72 73 73 73 73 72 73 72 72 72 73 73 73 72 72 72 72 72 72 72 72 71 71 71 71 71 72 72 73 70 70 70 71 69 69 70
70 71 72 72 71 72 72 73 73 73 72 73 72 72 73 74 74 73 73 73 73 73 72 72 72 73 73 72 71 72 71 73 73 74 71 71 70 70 69 72 69 69
71 71 71 71 71 71 72 73 72 72 73 72 73 72 73 73 74 73 73 74 73 72 72 72 73 72 72 73 71 71 72 72 73 71 70 69 69 69 72 71 67 68
71 71 71 71 71 71 71 72 72 72 73 73 73 73 74 72 74 74 74 72 73 72 72 72 73 72 73 74 73 72 72 73 71 70 71 70 70 71 73 71 69 68
69 71 70 70 70 71 71 72 72 72 72 74 73 73 73 72 73 74 73 73 72 73 73 72 73 73 72 72 71 72 73 72 73 72 72 72 71 70 72 70 69 68
68 68 69 70 70 70 71 72 72 72 72 72 74 73 72 73 72 73 75 74 74 74 73 73 74 73 73 72 72 72 71 70 71 71 71 73 71 72 71 70 69 69
64 65 67 69 70 70 71 72 72 72 73 73 73 72 72 71 72 73 73 74 74 73 73 73 73 73 72 71 72 72 70 70 70 71 72 70 72 72 72 71 71 71
65 65 66 66 70 71 70 71 72 71 72 72 72 71 71 72 73 72 72 74 73 73 73 72 69 63 60 64 71 71 71 71 71 71 69 71 72 71 70 71 70 71
64 65 64 65 68 71 70 71 71 71 72 72 71 71 71 72 73 73 72 73 73 73 67 62 60 57 52 52 55 68 72 70 71 72 70 70 71 69 70 71 71 70
64 64 64 64 63 67 70 70 71 70 70 70 71 71 71 71 72 72 73 73 70 64 64 60 55 51 46 43 45 52 64 73 70 70 70 70 69 68 70 71 70 67
64 63 63 63 63 65 69 70 71 70 70 71 70 70 70 70 70 69 68 66 65 64 59 57 52 48 41 40 41 43 57 65 69 68 69 69 69 68 68 68 69 69
62 63 62 62 64 67 70 70 69 69 68 69 68 68 69 68 65 65 65 64 63 61 59 55 50 42 39 41 41 41 45 60 68 69 69 69 70 69 69 69 69 68
61 61 61 60 60 62 64 65 65 64 64 64 64 65 66 65 63 62 62 62 60 57 55 54 51 41 39 40 41 41 40 54 68 67 68 69 69 70 70 69 69 68
60 59 59 58 59 59 60 60 61 61 62 62 62 62 62 61 59 58 58 56 55 53 51 49 46 41 40 40 41 41 40 50 66 67 67 68 68 68 68 68 68 68
58 58 57 57 57 56 56 57 57 57 58 58 59 59 59 58 57 55 54 54 54 52 50 47 45 40 40 40 40 41 44 52 65 67 67 67 68 68 66 66 66 67
55 55 55 55 55 55 55 54 54 54 55 55 56 56 56 57 56 56 54 53 53 52 50 49 46 40 40 41 41 40 49 62 65 65 65 66 65 62 62 62 63 62
53 53 53 54 54 54 54 53 53 53 54 55 54 54 54 54 55 54 54 53 52 52 50 49 48 42 40 41 41 39 50 62 63 63 64 64 61 61 60 61 58 60
50 51 51 51 52 51 51 51 52 53 54 55 54 53 54 55 56 56 56 55 54 52 52 49 48 45 41 41 41 41 47 60 61 61 61 62 62 61 60 57 53 52
49 49 49 49 50 50 50 50 50 51 52 53 54 56 56 57 57 56 55 56 56 54 53 51 49 47 42 41 42 42 51 59 60 59 58 58 59 60 62 58 52 47
49 49 48 48 49 49 50 50 50 50 52 53 54 56 55 55 54 52 51 51 52 52 52 53 51 48 44 40 42 43 45 55 55 54 53 53 56 57 58 59 55 51

ECMWFNIL_sfc_temp_069.txt.gz
Temp
65 65 64 63 63 65 65 65 65 66 66 66 66 66 66 66 67 68 67 66 67 67 66 66 67 66 67 66 65 67 67 66 66 66 66 65 64 64 65 64 63 63
64 64 63 64 64 64 64 66 66 66 66 65 66 66 66 66 67 67 66 67 67 66 66 66 66 66 66 66 65 65 64 65 65 69 66 65 65 64 64 64 63 63
63 63 63 63 64 63 64 65 65 66 66 66 66 66 66 67 66 67 67 66 67 66 66 66 65 65 66 65 65 65 65 64 65 65 66 66 64 64 64 64 64 63
63 63 63 64 64 64 64 66 65 66 66 66 66 67 68 67 67 67 67 67 65 65 65 65 65 65 66 65 65 64 64 63 64 64 65 65 65 65 64 65 64 64
64 64 63 64 64 64 65 67 66 66 67 66 67 67 67 66 67 66 64 65 65 65 65 65 64 64 65 64 64 64 63 64 63 64 64 63 65 65 64 65 64 63
64 64 64 65 64 64 66 67 67 67 67 66 67 67 67 67 66 65 65 65 64 64 64 64 63 66 65 64 64 63 64 66 64 64 65 64 63 65 68 64 63 63
64 64 64 65 65 65 66 67 67 67 68 68 68 67 67 67 66 65 66 66 65 64 63 62 64 64 64 65 64 62 63 64 63 65 65 63 64 63 65 64 63 64
64 65 65 64 64 64 66 66 67 67 68 69 68 68 68 67 65 66 66 66 64 63 62 63 64 62 63 64 63 61 62 66 65 64 64 64 63 63 62 65 63 63
65 66 66 64 64 64 64 66 67 68 69 68 68 67 68 66 66 66 66 65 64 63 62 62 63 62 61 62 61 61 62 62 64 65 63 62 63 62 64 64 62 62
65 66 66 65 65 64 64 65 66 67 68 68 68 68 67 65 67 66 65 64 64 63 63 63 62 63 63 63 64 61 61 63 64 64 64 64 63 63 64 64 62 62
64 64 66 65 65 64 65 67 67 68 68 68 68 68 66 66 66 66 65 65 64 64 63 62 64 63 62 63 63 61 61 61 63 63 63 63 63 64 65 64 63 63
61 62 63 65 65 65 66 67 67 67 68 67 68 67 66 67 67 66 66 65 64 64 64 63 65 63 63 63 62 61 60 60 61 61 61 63 64 64 64 64 63 63
61 61 61 61 63 66 67 67 67 67 68 67 66 66 66 66 65 66 65 67 64 64 62 60 59 58 58 60 63 61 61 65 63 60 62 65 66 65 65 64 63 64
61 62 61 61 62 66 66 66 67 67 66 66 66 66 65 66 66 65 64 63 60 59 58 57 55 53 54 55 59 61 60 60 59 60 62 64 65 65 65 63 62 62
61 61 61 61 63 66 65 66 66 65 65 65 65 65 65 64 65 64 61 60 59 58 55 54 52 51 48 48 54 59 59 60 60 61 61 63 62 63 63 63 62 61
60 60 60 61 63 66 66 65 66 65 65 65 65 63 61 62 63 62 61 59 57 55 53 51 50 48 46 44 44 54 58 63 61 60 61 60 62 63 63 63 62 61
59 59 59 59 60 64 66 65 65 65 65 64 61 60 60 60 61 60 59 58 56 53 51 48 47 46 42 40 41 50 60 59 59 61 61 60 60 61 60 60 60 61
59 59 59 59 59 59 62 63 63 63 62 61 61 60 60 60 59 57 56 55 53 52 50 48 46 42 40 41 41 43 52 61 62 61 61 59 61 61 61 60 60 59
59 59 58 57 58 59 59 61 61 61 61 60 59 59 58 57 56 55 53 52 51 49 47 46 45 42 41 42 41 42 48 57 62 62 63 62 61 61 61 62 60 59
57 56 56 57 57 57 57 58 58 58 58 58 57 57 55 53 53 51 51 50 49 47 46 45 44 42 41 41 42 42 46 55 61 62 61 60 60 60 61 60 59 58
55 55 54 55 55 55 54 54 55 55 55 55 55 54 53 51 50 50 49 49 48 48 47 46 43 41 41 41 41 42 44 54 61 62 61 60 59 59 60 60 60 60
53 53 53 53 53 53 53 53 52 52 52 52 53 52 51 51 50 50 49 49 49 48 48 47 45 41 42 42 42 42 47 59 61 61 60 59 59 58 58 58 59 60
50 51 51 51 52 52 52 52 52 52 52 52 52 51 50 50 49 49 49 49 49 49 48 47 46 43 41 42 43 44 51 59 59 60 59 58 56 55 54 54 56 57
49 49 50 50 49 49 50 51 51 51 51 52 52 51 51 51 51 51 51 50 49 49 49 47 47 44 41 42 43 44 50 56 57 57 57 56 55 53 51 50 52 54
48 48 48 49 48 48 49 49 49 49 50 50 50 50 50 50 50 49 49 50 51 50 51 48 47 45 42 41 42 44 50 53 54 54 53 53 54 53 51 49 47 45
48 48 48 48 48 48 48 48 49 49 49 49 49 49 48 48 47 47 47 48 48 48 47 47 46 45 43 41 42 43 45 51 51 51 51 51 53 54 52 50 48 46

ECMWFNIL_sfc_temp_072.txt.gz
Temp
63 63 62 62 62 63 62 62 62 63 63 63 63 63 64 64 64 65 64 64 64 64 64 64 64 64 65 65 65 65 65 64 64 63 63 62 61 62 63 61 60 61
63 63 62 62 62 62 62 62 62 63 64 64 64 63 64 64 63 65 64 64 64 64 65 64 63 64 64 64 64 64 63 63 63 65 63 63 62 62 62 61 61 60
63 62 62 62 62 62 62 62 63 64 64 65 65 64 65 64 64 64 65 65 65 64 64 64 63 63 63 63 63 64 63 62 63 63 63 63 62 62 62 61 60 60
63 63 63 63 62 62 62 62 62 63 64 65 65 65 66 65 64 64 65 67 64 64 63 63 63 62 63 63 63 62 63 62 63 63 63 61 61 62 62 61 61 60
62 62 63 63 62 63 62 63 63 63 64 65 65 65 65 65 65 65 65 65 65 63 63 63 62 62 62 62 62 61 61 62 60 62 62 61 60 62 61 62 61 60
63 63 63 63 63 62 63 64 64 64 64 65 65 66 66 66 65 65 65 65 64 64 62 61 62 61 62 62 61 62 62 62 61 62 62 61 61 61 64 62 61 60
62 63 63 62 62 63 64 64 64 65 66 66 66 66 66 65 65 65 65 65 65 64 63 61 62 61 61 62 61 61 61 61 61 62 62 61 61 61 62 61 61 61
62 63 63 62 62 62 64 64 64 66 66 66 67 66 66 66 66 65 65 65 65 63 63 62 62 61 60 62 61 60 60 62 61 61 61 61 61 61 60 63 61 61
63 63 63 62 62 62 63 64 65 66 67 67 67 65 65 66 66 65 65 65 65 63 62 62 62 61 60 61 60 60 60 60 61 60 60 60 61 61 61 61 60 61
62 63 63 62 62 63 64 64 65 66 66 67 67 65 64 65 66 66 65 64 64 62 62 62 60 60 59 60 60 60 61 61 59 60 60 60 61 61 61 61 61 60
61 62 62 62 63 62 63 64 65 66 67 68 66 65 65 65 65 65 64 64 63 63 61 61 61 60 60 58 58 58 60 60 61 61 61 60 60 61 63 61 61 61
60 60 61 62 62 63 64 65 66 66 67 67 67 65 65 65 65 64 65 64 64 63 62 61 59 60 61 60 59 59 58 59 60 60 60 60 60 61 61 61 61 60
60 60 61 61 61 63 65 65 66 66 67 67 66 66 66 64 64 64 64 64 61 61 60 58 57 57 56 58 60 59 60 59 59 58 59 60 60 60 60 61 61 60
60 60 60 60 60 61 62 63 66 67 67 66 65 65 65 65 63 61 60 60 59 58 56 56 56 54 53 54 58 58 58 58 58 59 60 59 58 58 59 60 59 58
59 60 60 59 60 61 60 60 61 63 65 64 65 64 63 61 60 60 59 57 56 56 55 54 53 51 49 49 55 58 56 58 59 60 60 59 57 57 58 59 57 57
59 60 60 59 60 60 60 60 61 62 64 63 63 62 61 60 60 59 58 56 55 54 53 52 50 49 47 45 45 54 56 59 58 60 61 60 58 57 57 58 58 58
59 59 60 59 59 60 59 60 60 61 62 61 60 60 59 59 59 57 56 56 54 52 50 49 48 47 43 40 44 51 56 56 57 58 60 61 60 58 57 56 56 57
59 59 59 59 59 59 59 59 59 59 59 59 59 58 57 57 56 55 54 53 52 51 49 48 46 44 41 43 46 49 53 57 57 57 57 58 59 57 57 57 57 57
58 58 58 58 57 58 58 59 58 58 58 58 57 56 56 55 53 53 51 51 51 50 48 48 47 42 42 44 46 48 50 55 58 58 58 57 57 58 57 57 56 55
57 57 57 57 57 57 57 58 57 55 55 56 55 54 53 52 51 50 50 49 49 48 47 46 45 43 41 44 47 48 49 53 58 58 57 57 57 57 57 56 55 54
54 55 55 55 55 55 54 54 53 52 53 53 53 53 51 50 50 49 48 48 48 48 48 46 44 41 41 44 46 48 48 51 57 58 57 56 56 57 57 57 56 55
51 52 53 53 54 54 53 52 51 51 50 50 50 50 50 49 48 49 48 48 48 48 49 47 45 41 42 44 46 47 50 57 57 56 55 54 54 55 56 56 56 54
49 50 50 51 52 52 51 51 50 49 49 50 49 49 49 48 48 48 48 48 48 48 47 46 45 42 41 43 45 48 51 56 56 55 54 52 52 52 53 54 53 52
49 49 49 49 50 50 50 49 49 50 49 50 49 48 48 48 49 49 49 48 48 47 47 46 45 43 41 43 43 45 51 56 55 54 52 51 50 49 49 49 51 53
48 48 48 48 48 48 49 48 48 48 49 49 48 48 48 48 48 48 48 47 47 47 49 47 46 45 42 41 42 44 50 54 54 53 51 50 49 47 46 45 46 45
48 48 48 48 47 48 48 48 48 48 48 48 47 47 46 46 45 45 45 45 46 46 46 47 45 45 43 41 42 42 45 53 53 52 50 50 49 48 46 46 46 45

ECMWFNIL_sfc_temp_078.txt.gz
Temp
62 62 61 61 61 62 62 61 61 61 61 61 61 62 62 63 63 63 63 63 63 64 63 63 64 63 64 64 64 64 64 63 63 63 63 63 62 62 61 61 61 62
62 62 62 62 61 61 61 62 62 62 62 61 62 62 62 62 62 63 63 63 63 63 63 63 63 63 63 63 64 63 62 62 62 63 62 62 62 62 62 62 62 61
61 61 62 61 61 61 61 61 62 61 61 62 62 62 62 62 62 62 63 63 63 63 63 63 63 63 63 63 63 63 63 62 62 62 62 62 61 62 62 62 61 61
62 61 62 62 61 61 62 61 60 61 61 60 60 61 62 62 62 62 62 64 63 62 62 62 63 63 63 63 63 63 63 63 63 62 62 61 61 62 61 61 61 61
61 61 61 61 61 61 61 61 61 60 60 61 61 61 62 62 61 62 62 62 62 62 61 62 62 62 62 62 63 62 62 62 61 62 62 61 60 62 61 61 61 60
61 62 61 61 61 60 60 60 61 61 61 60 61 62 62 62 62 62 62 62 61 62 61 61 61 61 62 62 62 62 62 61 61 62 62 61 60 60 61 61 61 60
61 60 61 61 61 61 60 61 61 61 61 62 62 61 62 62 62 62 63 62 62 62 61 61 61 60 61 62 62 61 61 62 61 62 62 61 60 60 61 61 61 61
61 61 60 60 60 60 60 60 61 61 62 62 62 62 62 62 62 62 63 62 62 62 61 61 61 61 60 61 61 60 60 61 61 62 62 61 60 61 60 61 61 61
61 61 61 60 60 59 59 60 60 61 61 61 62 62 62 63 63 62 62 62 63 62 61 61 61 61 60 61 61 61 60 60 61 62 62 60 60 61 61 61 60 61
60 60 60 60 59 59 60 60 61 61 61 62 63 62 62 62 63 63 62 62 62 62 61 61 60 60 60 60 61 61 60 60 60 61 62 61 61 61 61 61 61 60
59 59 59 59 59 59 60 60 60 61 61 62 61 61 62 62 62 62 62 62 62 62 61 60 60 60 60 59 59 60 61 61 60 61 61 61 61 61 62 61 61 61
60 59 59 59 59 59 60 60 60 61 61 61 62 62 61 61 62 62 63 63 63 62 62 62 61 61 60 60 60 59 59 60 60 60 60 61 60 60 61 61 61 60
59 60 60 60 59 59 59 60 60 60 61 61 62 63 62 61 62 62 62 63 63 62 62 62 61 60 60 59 59 59 59 59 59 59 59 59 59 60 60 60 59 59
58 60 59 59 60 60 60 60 60 60 61 61 61 61 62 62 62 62 61 62 61 62 62 61 60 59 59 59 59 59 59 59 59 58 58 58 58 59 59 59 59 60
56 59 60 59 59 59 59 60 60 60 61 60 60 60 59 59 60 61 60 59 59 60 59 59 59 59 58 58 58 58 58 59 58 58 58 57 57 58 58 59 59 60
54 57 59 60 59 59 60 60 60 60 60 60 60 59 59 60 59 59 60 59 58 57 57 57 57 57 56 54 55 59 58 59 58 58 58 58 57 57 56 57 57 57
53 54 56 59 59 59 60 60 60 59 59 59 59 59 59 58 57 57 57 58 58 57 55 55 54 53 46 44 47 51 57 58 58 57 58 57 57 57 56 55 55 55
51 52 54 57 59 59 59 60 60 58 58 58 58 57 57 56 55 56 56 55 55 55 55 53 52 48 43 41 42 46 52 58 58 58 57 57 56 56 56 55 55 55
51 51 52 55 58 59 59 59 59 58 57 57 57 56 55 55 54 54 53 52 53 53 52 51 50 44 44 44 43 45 47 54 58 58 57 56 56 56 56 55 55 55
50 50 51 52 54 57 57 57 57 57 55 54 54 54 53 52 51 51 51 51 51 50 49 48 47 43 43 43 43 44 46 51 57 56 56 56 55 55 55 55 55 55
49 49 49 50 51 52 55 55 53 51 51 50 50 50 50 49 49 49 49 48 48 48 48 46 45 42 41 42 43 45 46 50 56 56 55 54 53 53 53 53 54 55
48 48 49 49 49 49 48 48 48 48 47 47 46 46 45 46 46 47 47 47 47 48 48 46 45 40 41 42 44 45 48 55 55 54 53 52 52 52 51 52 52 53
47 47 47 48 48 47 46 46 46 46 46 46 44 43 43 42 43 44 45 46 46 47 47 46 46 42 42 42 44 46 49 54 53 52 52 50 50 50 50 51 51 51
47 47 47 47 47 46 45 45 45 44 44 44 43 42 42 42 43 43 44 45 45 46 46 46 45 43 41 43 44 45 50 53 51 50 48 47 47 48 49 50 51 52
46 47 47 46 46 45 45 44 44 43 44 44 43 43 43 43 43 42 43 43 44 45 47 44 44 44 41 41 43 45 50 52 51 49 47 46 47 46 46 47 47 46
46 46 46 46 46 46 46 45 45 44 44 43 43 43 43 43 43 42 42 42 43 43 43 44 43 42 41 40 42 44 46 52 52 50 47 46 47 47 46 46 46 45

ECMWFNIL_sfc_temp_081.txt.gz
Temp
67 67 68 70 70 71 69 67 65 65 65 65 66 66 66 67 67 68 70 71 71 71 71 72 72 72 73 73 73 74 74 73 73 72 72 72 72 72 71 70 69 71
67 67 67 68 69 69 68 66 65 64 65 65 67 68 67 66 65 67 69 70 71 72 72 72 72 73 73 73 73 72 73 72 71 74 71 71 72 72 71 70 68 69
66 66 66 66 66 65 65 65 64 64 65 66 68 69 68 67 66 68 70 72 73 73 72 72 72 73 73 73 73 72 73 72 72 72 71 72 72 72 70 69 69 69
66 66 65 65 65 65 65 64 62 63 65 65 66 67 68 67 68 68 70 71 72 72 73 73 73 73 74 73 72 72 72 72 73 72 70 71 72 72 70 70 69 68
67 67 66 65 65 67 66 63 62 63 65 66 67 67 66 66 67 70 71 71 72 72 72 73 73 72 72 72 72 72 72 71 71 70 70 71 71 71 71 71 70 69
67 68 67 67 67 65 64 64 64 64 66 67 67 66 65 67 68 69 70 70 70 71 72 72 72 72 73 73 71 72 72 71 70 69 70 70 70 70 72 71 71 71
64 65 66 66 65 65 65 66 65 66 67 68 69 67 67 67 68 69 70 71 71 71 72 71 71 71 73 73 73 72 71 71 70 70 71 71 70 69 73 72 72 73
62 64 65 65 64 64 64 66 66 66 67 68 67 68 69 69 70 70 71 71 72 72 72 73 72 72 71 73 72 71 71 72 71 68 70 71 70 71 71 72 71 72
62 64 64 64 63 64 64 65 66 66 68 67 68 69 69 70 70 71 70 71 70 71 72 72 72 71 70 71 71 72 72 71 71 71 71 71 70 71 73 73 71 71
61 63 63 63 63 63 64 66 67 67 68 68 70 69 69 69 70 71 67 67 69 71 71 71 71 70 70 72 72 72 73 72 72 71 72 72 72 72 73 72 72 71
57 60 61 62 62 63 64 66 67 67 67 68 69 69 70 69 69 67 66 66 67 68 70 71 71 71 71 71 72 72 73 73 72 72 72 72 72 71 71 71 71 71
56 57 59 61 62 63 63 64 65 66 67 66 68 69 69 69 68 67 66 65 66 67 68 71 73 72 72 72 72 72 72 72 72 72 72 73 72 71 70 70 70 72
56 57 58 60 62 63 64 65 66 66 66 66 68 69 69 68 68 68 67 65 64 65 67 70 72 73 72 72 72 72 72 72 71 71 71 71 72 72 71 71 71 73
55 56 57 58 61 63 64 65 66 66 66 66 67 68 69 70 70 68 68 65 65 65 69 72 72 71 71 72 72 72 71 71 71 70 71 70 70 71 71 71 72 72
56 57 58 59 60 61 63 63 64 65 65 65 65 66 67 69 70 69 67 66 66 67 70 71 71 70 70 70 70 71 70 69 71 71 70 70 70 71 71 71 72 72
56 57 58 59 60 60 62 63 64 64 65 65 64 64 67 68 68 69 68 67 67 69 70 69 69 70 63 57 61 71 70 69 68 69 70 70 69 69 69 70 70 70
56 56 57 57 58 59 61 62 63 63 63 64 64 64 63 65 66 66 66 67 67 68 68 68 67 67 52 47 50 54 68 69 68 67 67 68 69 69 68 68 68 70
55 56 56 56 57 58 59 61 63 62 62 62 62 61 61 63 63 63 63 63 64 66 67 67 67 54 46 46 47 48 55 69 69 68 67 69 70 70 69 68 67 67
54 54 55 55 55 56 57 58 59 60 61 59 60 62 61 60 61 62 62 61 60 60 63 63 63 43 42 42 44 45 48 60 72 70 69 69 70 69 68 67 66 65
52 53 53 54 55 55 54 53 53 52 54 57 58 59 59 58 57 58 57 56 56 57 58 59 58 45 42 42 42 44 45 56 71 69 68 68 67 67 66 66 65 65
51 52 52 53 54 53 52 50 49 49 50 49 51 52 52 52 52 51 51 51 52 53 55 55 50 40 41 41 42 43 46 55 67 66 66 66 65 65 65 66 66 65
51 51 51 52 52 52 51 48 47 47 46 47 47 47 48 49 48 49 49 49 49 51 53 53 49 39 40 41 42 44 48 64 65 64 64 64 64 64 64 66 66 65
51 50 50 51 52 51 50 48 46 46 45 46 45 45 45 45 46 46 47 47 47 48 50 51 50 43 40 42 43 45 54 63 63 64 63 62 61 62 63 63 63 64
51 51 50 51 51 50 49 49 48 47 46 47 45 44 44 44 45 44 45 45 45 46 47 48 48 44 41 43 44 47 55 62 63 63 61 60 58 59 61 61 58 53
51 51 50 51 50 50 50 49 48 47 47 47 46 45 44 44 44 43 43 43 44 45 47 47 46 45 41 40 42 46 56 61 61 61 59 58 57 55 57 57 55 51
49 49 50 51 51 50 50 50 50 48 47 47 47 46 44 44 43 42 42 42 43 43 43 44 43 43 42 39 41 42 47 58 58 57 55 55 56 56 56 55 53 53

ECMWFNIL_sfc_temp_084.txt.gz
Temp
73 73 73 73 74 75 73 71 73 73 71 68 67 67 68 70 71 72 72 71 71 71 72 72 72 70 74 77 77 78 78 72 71 76 75 75 75 74 74 74 74 73
71 72 71 72 73 74 75 74 74 73 73 71 70 68 69 69 68 69 70 70 71 71 70 70 72 73 76 76 74 74 74 73 70 76 76 75 76 75 73 72 74 76
71 71 71 71 73 73 73 74 73 71 72 72 71 70 71 71 70 69 69 70 68 68 71 71 71 74 76 76 74 70 70 72 73 78 77 78 76 75 70 74 72 75
69 71 72 72 71 72 73 73 73 73 73 72 71 72 72 70 70 68 67 69 69 70 71 73 73 75 77 76 73 69 71 76 78 78 77 77 77 76 73 72 74 75
67 69 72 72 72 72 71 69 71 73 73 72 72 73 71 70 70 70 69 70 72 73 73 73 71 73 75 73 70 67 69 74 76 76 76 75 75 75 76 76 75 75
68 69 70 72 72 71 69 69 70 72 74 73 72 73 72 72 70 70 71 71 73 74 75 75 74 73 70 69 69 69 72 69 74 76 75 75 75 76 79 77 75 75
66 68 69 71 69 69 69 70 70 71 73 73 74 72 72 72 72 72 73 73 73 73 75 73 73 70 70 74 74 72 72 72 77 78 77 77 77 76 78 78 72 76
66 67 68 67 66 67 69 70 70 69 71 73 72 72 73 74 76 75 74 74 73 71 70 73 70 70 72 76 75 72 75 75 77 77 77 78 76 76 77 76 74 67
65 65 65 65 67 68 68 68 68 69 71 71 72 74 75 74 75 76 75 74 72 69 71 72 68 69 70 69 71 73 75 76 77 77 76 76 75 75 76 73 72 69
64 64 63 63 64 67 68 69 69 69 71 70 70 72 73 74 75 77 75 73 71 71 71 70 68 67 67 70 71 77 77 77 77 77 76 75 76 74 72 71 75 76
64 63 61 60 60 63 66 68 68 69 70 71 71 70 72 74 74 76 76 75 72 73 75 72 68 67 68 67 68 70 73 76 77 77 76 75 74 72 70 71 76 76
63 63 61 59 59 60 62 64 66 68 69 70 71 71 71 71 70 74 75 75 74 75 76 74 71 68 67 68 69 73 76 76 77 75 72 74 72 71 73 76 76 77
63 62 61 61 61 62 63 65 67 68 69 70 71 71 71 70 70 72 74 74 75 76 75 75 72 71 69 68 68 72 77 78 77 76 70 68 70 70 75 78 77 78
64 63 63 62 62 63 64 65 66 67 68 69 70 70 69 70 70 70 73 73 74 75 76 75 73 71 70 69 69 70 74 78 78 76 77 72 72 76 77 77 77 77
64 63 63 63 63 63 63 63 65 66 68 68 68 69 69 70 71 69 69 70 75 74 75 74 73 72 71 70 69 71 75 77 77 78 77 76 76 76 77 77 77 77
64 64 64 64 63 62 62 63 64 66 67 68 68 68 69 70 72 71 69 69 70 75 74 72 73 73 67 59 61 72 74 78 77 76 77 76 75 75 75 76 77 77
64 63 63 63 62 62 62 62 63 63 64 65 66 67 68 69 68 69 69 68 67 68 72 73 72 72 56 53 53 56 73 76 76 76 76 75 74 73 73 74 76 78
64 63 63 62 61 62 62 62 61 61 60 59 61 64 67 68 66 66 66 67 66 70 70 69 70 56 48 49 49 51 59 75 76 75 74 74 74 72 70 72 74 75
63 62 62 62 61 61 61 60 60 59 58 57 56 58 62 64 66 66 66 66 66 64 65 65 66 48 45 47 47 48 49 62 78 76 74 73 73 74 74 72 72 71
63 61 60 61 61 61 60 59 58 57 57 56 55 54 54 55 57 58 59 60 61 63 64 64 59 44 40 42 44 45 46 54 77 76 74 74 74 73 74 74 73 72
62 61 60 60 60 60 59 58 56 55 55 55 54 51 50 51 51 53 55 56 57 57 59 57 51 40 40 39 41 43 44 49 75 75 73 73 74 74 74 74 75 74
60 61 60 60 59 59 57 56 55 54 53 54 54 53 51 50 51 51 50 52 53 56 55 53 48 39 40 40 40 42 43 66 74 73 73 74 74 74 74 75 74 74
58 58 58 59 58 57 56 54 54 54 53 53 53 52 50 49 48 47 48 49 49 50 51 50 47 41 39 41 41 42 49 71 72 72 73 72 72 72 73 73 74 73
57 57 57 57 57 56 55 54 54 54 54 53 51 50 49 49 49 49 48 47 46 47 47 47 46 43 40 40 39 39 46 67 70 71 70 71 70 70 70 67 58 49
57 55 55 56 56 56 55 53 53 53 54 53 52 51 50 50 49 48 48 49 47 44 45 45 45 43 40 40 40 41 49 66 68 69 67 67 67 65 65 63 60 54
58 55 52 53 56 56 56 54 54 53 53 53 52 52 51 51 50 50 48 47 47 44 43 43 44 43 41 39 41 42 43 60 64 64 65 65 65 64 61 60 60 58

ECMWFNIL_sfc_temp_087.txt.gz
Temp
74 75 74 72 72 71 71 72 71 70 71 73 74 72 70 71 72 72 72 72 72 71 69 69 71 71 73 73 72 70 68 67 68 70 70 71 70 71 70 72 70 74
72 73 74 74 74 74 71 70 70 69 70 69 71 75 74 73 73 74 75 74 74 72 70 69 69 71 73 74 72 70 67 68 68 70 70 71 71 69 69 72 71 75
71 71 72 71 71 71 71 68 66 66 66 67 72 74 75 75 74 74 74 75 74 73 70 71 71 71 72 72 72 69 67 67 68 72 73 73 69 71 71 70 71 74
68 70 72 73 72 70 69 70 69 67 67 67 69 70 72 75 74 74 74 74 73 72 71 72 72 72 71 71 69 68 68 70 70 73 72 73 72 71 71 72 74 74
67 68 71 72 72 70 67 67 68 66 67 67 69 70 70 74 74 75 73 73 73 72 73 72 73 72 71 72 69 66 67 68 72 73 71 67 68 68 71 73 73 74
68 69 70 71 70 70 69 69 68 67 68 67 67 70 71 73 75 73 72 73 72 73 70 71 72 70 70 69 67 67 67 69 71 72 69 67 67 68 68 72 74 74
67 67 67 70 70 70 69 69 69 68 67 68 68 67 69 69 72 75 75 72 74 71 72 70 70 70 68 68 66 66 69 70 72 73 71 68 68 66 72 74 74 74
67 67 67 68 68 68 68 67 69 69 69 68 67 69 69 70 73 77 75 76 75 76 71 76 72 71 67 67 67 67 68 70 71 70 69 68 66 69 72 73 73 74
68 67 67 66 66 67 67 67 68 69 72 70 68 69 71 74 71 69 73 74 72 74 73 77 74 72 71 69 68 68 68 69 69 68 66 66 66 67 70 72 72 71
67 67 66 66 65 65 66 67 67 68 71 72 73 74 73 76 74 74 75 75 72 70 73 76 75 74 72 72 72 70 68 67 66 66 66 66 66 67 69 70 72 71
67 67 65 65 65 65 65 66 67 67 68 70 71 71 74 75 74 74 75 72 69 69 72 73 73 73 74 72 71 72 71 70 69 67 65 65 66 66 67 68 72 71
67 67 66 66 65 65 65 65 66 66 67 68 70 71 72 73 72 74 74 74 73 71 71 70 69 69 73 71 73 73 71 70 70 68 66 66 67 67 66 69 69 74
67 67 67 67 66 66 66 66 65 65 66 67 69 69 71 72 73 72 74 74 74 72 69 67 68 71 74 74 75 73 73 72 70 68 66 65 66 68 70 71 71 75
67 68 69 69 66 66 65 65 65 65 65 66 68 70 70 71 72 71 70 72 74 73 71 68 67 68 70 74 75 75 74 72 71 68 67 66 67 70 69 69 74 75
68 68 69 68 67 66 65 64 64 64 64 64 63 64 66 70 71 70 70 70 73 73 73 71 70 68 69 69 74 75 74 72 71 70 67 66 68 70 73 74 74 74
69 68 68 68 66 65 65 65 64 63 62 62 61 62 62 64 66 69 71 69 70 72 72 70 69 69 64 55 56 68 73 73 72 70 69 67 65 68 72 73 74 73
68 67 68 67 65 65 64 64 63 62 61 60 60 60 60 61 62 62 63 66 68 67 68 70 68 68 55 50 51 53 68 73 72 71 69 67 66 67 70 72 72 74
66 67 66 65 64 64 63 63 62 61 60 59 59 58 57 58 58 59 60 60 61 63 65 65 65 53 46 48 48 49 54 68 70 68 66 66 66 66 67 70 72 69
66 66 64 63 63 63 62 61 61 60 58 57 57 57 56 55 54 55 56 58 59 60 60 63 61 42 42 41 43 44 46 55 70 67 65 64 66 67 69 71 70 71
65 64 63 63 62 62 61 60 59 58 57 57 57 56 55 53 52 52 52 53 55 56 58 57 52 43 39 41 42 41 42 47 66 67 64 64 66 70 71 74 74 74
63 63 62 62 62 61 61 59 58 57 56 56 55 54 53 52 51 50 50 50 51 52 55 56 52 40 39 39 41 41 39 45 63 66 68 67 68 69 73 71 73 72
62 60 60 62 61 61 60 58 57 56 55 55 54 54 54 53 52 51 49 49 49 49 49 50 51 41 38 39 39 41 43 58 63 65 67 69 67 73 75 74 71 73
61 60 59 60 60 60 59 57 56 56 55 55 54 53 52 51 51 50 50 49 49 48 46 47 49 44 39 38 39 39 49 59 60 63 65 64 62 67 73 64 61 63
60 60 58 59 60 59 58 58 58 58 56 56 54 52 52 52 52 51 50 49 48 47 46 46 47 45 39 38 39 39 49 58 59 60 61 61 62 66 65 64 57 47
61 59 58 58 59 58 58 58 58 58 58 57 55 54 52 53 53 51 50 50 49 48 47 46 46 45 41 38 39 40 48 57 59 60 60 61 61 61 65 64 62 54
61 59 59 59 59 59 58 58 59 59 59 58 57 57 54 53 53 52 50 49 49 48 47 46 44 45 43 38 39 39 43 54 56 58 57 57 58 59 57 57 57 57

ECMWFNIL_sfc_temp_090.txt.gz
Temp
68 68 68 69 70 70 70 69 69 68 68 68 67 68 68 69 70 70 70 70 70 69 69 69 69 69 69 69 68 67 67 67 66 67 66 65 65 66 66 68 68 67
67 67 68 68 69 70 69 69 68 67 67 67 68 68 68 68 68 69 69 69 69 70 70 69 68 69 68 67 67 67 66 66 66 67 66 66 65 66 67 68 68 68
67 67 67 67 68 68 68 68 68 67 66 67 67 68 68 68 67 67 67 68 68 68 69 68 67 67 68 67 66 65 65 65 65 66 65 66 66 66 67 66 66 67
67 67 67 67 68 68 68 68 68 68 68 68 68 69 69 69 68 67 67 69 68 68 67 65 66 67 68 67 66 65 66 67 67 66 65 65 66 66 65 65 65 66
67 67 67 67 68 68 68 68 68 68 68 68 69 69 68 68 68 68 67 66 67 66 65 65 66 66 66 66 66 65 65 66 67 66 65 65 65 65 65 64 64 64
67 68 68 67 67 66 66 67 68 68 68 67 67 69 68 68 68 68 67 67 67 65 66 66 65 65 65 65 65 66 66 66 66 67 65 65 64 65 65 64 64 64
66 66 66 67 66 66 65 66 67 67 67 67 67 66 67 68 67 67 67 67 66 65 66 66 65 63 64 65 65 66 66 67 67 67 66 65 66 65 65 65 64 64
67 67 66 66 65 65 65 65 65 66 67 68 67 67 67 68 68 68 67 67 66 66 66 66 66 65 66 65 65 65 66 67 66 65 64 65 65 64 64 64 64 64
67 66 66 65 65 65 64 65 65 65 67 66 67 67 69 69 68 67 67 67 65 64 64 65 66 66 66 65 64 65 65 66 64 64 64 64 65 65 65 64 63 63
65 66 65 65 64 64 64 65 65 65 66 65 66 67 68 68 69 68 67 65 64 64 65 65 65 65 65 65 66 66 65 64 64 64 65 66 67 66 66 65 64 64
65 65 65 64 63 64 64 64 64 64 64 65 65 64 65 66 67 68 67 65 63 64 65 64 65 67 66 65 66 66 65 64 65 65 65 66 67 66 66 65 64 64
65 64 64 64 63 63 63 64 64 64 63 63 64 63 64 64 64 65 67 68 66 64 65 65 65 64 64 64 65 64 64 65 65 64 65 65 66 66 66 65 65 65
64 64 64 63 63 63 63 63 63 63 62 62 62 62 61 61 62 63 64 65 66 65 65 64 65 65 64 64 65 65 65 64 64 64 65 66 66 66 66 66 65 65
64 64 64 63 63 63 62 62 62 61 61 61 61 60 59 59 60 60 62 63 62 64 64 64 64 64 63 63 65 65 64 64 64 64 66 66 66 66 66 65 65 65
64 64 63 63 63 62 61 61 60 60 60 59 59 59 58 58 58 57 58 59 61 62 62 63 63 60 54 54 59 65 64 64 64 65 66 66 66 66 66 66 65 64
64 63 63 62 62 61 60 60 59 59 59 58 58 58 57 57 56 56 55 55 56 57 59 60 56 50 48 45 44 50 60 63 64 64 64 64 65 66 66 66 66 64
63 63 63 62 61 61 60 59 59 59 58 57 57 56 55 55 54 54 53 53 53 54 55 56 53 47 43 41 41 42 50 59 62 62 63 64 65 65 65 65 65 64
61 61 61 61 61 60 60 59 58 58 56 56 55 55 55 54 53 52 52 52 51 52 52 53 52 45 40 41 41 40 43 50 59 62 62 64 65 65 65 65 62 63
61 60 60 60 60 59 59 59 57 56 55 55 54 54 54 53 52 52 51 51 51 49 49 50 51 44 41 40 40 39 40 44 54 60 63 64 65 65 65 64 62 60
59 59 59 59 59 59 58 57 57 56 56 55 55 54 53 52 52 51 50 50 50 49 48 49 50 44 41 40 39 39 39 41 53 57 61 62 64 64 64 64 63 62
59 58 58 58 59 58 58 57 56 55 55 55 54 53 53 52 51 50 50 49 49 49 48 47 47 42 40 40 39 39 39 41 52 58 60 62 62 64 64 63 63 64
58 58 57 58 58 58 57 56 56 56 55 55 54 54 53 53 52 51 50 49 49 48 47 46 46 42 40 40 39 39 39 49 55 58 60 62 62 62 61 60 60 62
58 57 57 57 57 57 57 56 56 56 56 56 55 54 53 53 52 51 51 50 49 48 47 46 46 44 41 40 39 39 41 48 54 58 60 61 60 59 55 53 52 54
58 58 56 56 57 56 56 56 56 56 56 56 55 54 53 53 53 52 52 51 49 48 47 45 45 45 41 40 40 39 41 47 52 57 59 59 59 57 55 52 50 49
58 58 57 56 56 55 55 55 56 56 56 57 55 55 54 54 53 52 52 52 51 49 48 46 45 45 42 40 40 40 41 46 53 56 55 54 53 51 51 50 50 48
59 58 56 56 56 55 55 55 56 56 56 56 55 55 54 53 53 52 51 51 51 50 49 48 45 45 44 40 41 41 40 44 50 51 51 50 49 49 49 48 47 47

ECMWFNIL_sfc_temp_093.txt.gz
Temp
64 63 62 61 62 64 65 65 64 63 63 63 62 63 63 64 64 65 65 64 63 63 64 64 65 65 65 66 65 64 64 65 65 64 64 64 64 64 64 64 65 65
64 63 62 63 64 65 65 64 64 64 63 63 63 63 64 64 64 64 64 64 64 63 64 64 64 65 65 65 64 63 64 64 64 65 63 63 64 64 64 65 65 65
63 63 62 64 64 64 63 64 65 64 64 64 64 64 64 65 64 63 64 63 63 63 64 64 64 64 65 64 64 63 63 64 64 64 64 64 64 63 63 64 64 65
61 62 64 64 64 64 64 64 64 64 65 64 64 64 64 65 64 64 63 65 63 63 63 63 63 64 64 65 64 64 63 63 64 64 64 64 64 64 63 64 64 65
60 62 64 64 64 63 63 63 63 63 64 64 64 64 63 63 63 63 63 63 63 62 62 63 63 63 63 63 63 62 62 62 63 64 63 63 64 64 64 64 64 64
59 59 60 62 63 62 62 62 63 63 63 62 63 64 63 64 63 63 63 62 62 62 62 62 62 62 62 63 63 63 63 62 63 63 63 63 63 64 64 63 63 63
59 60 59 61 60 61 62 62 61 62 62 63 63 62 62 63 63 63 63 63 63 62 62 62 62 61 61 61 62 62 62 62 63 63 63 63 63 63 64 64 63 63
60 61 61 61 60 60 61 62 62 62 62 63 62 62 62 62 63 63 63 63 63 62 62 62 62 62 62 62 62 62 62 63 62 62 63 63 63 63 63 63 63 62
60 60 60 60 59 59 60 61 61 62 62 61 61 61 61 61 62 63 63 63 62 62 62 62 62 62 62 62 62 63 62 62 63 63 62 62 62 62 63 63 63 62
59 59 58 58 57 58 59 60 60 60 61 60 60 60 59 60 60 60 61 61 60 61 62 62 62 62 62 63 63 63 62 62 63 62 62 62 62 62 63 63 62 62
58 58 57 57 57 58 58 59 59 59 59 59 59 58 58 58 58 58 59 58 59 59 61 61 58 57 58 59 61 62 62 62 62 61 61 62 62 62 64 63 63 62
57 57 57 57 58 58 58 58 58 58 58 58 58 57 57 56 55 56 56 56 57 57 59 54 52 52 51 50 51 53 58 62 62 62 62 62 62 62 63 64 63 63
57 57 57 58 58 58 58 58 58 57 57 56 57 56 55 54 55 54 54 54 54 55 56 52 51 50 49 47 48 50 52 56 61 61 61 62 63 63 63 63 63 63
59 59 58 59 59 58 58 57 57 57 56 56 56 55 54 54 54 53 53 54 53 53 54 53 50 49 47 46 45 47 48 51 57 61 61 61 62 62 62 62 63 64
59 59 59 58 58 57 57 56 56 56 56 55 55 55 54 54 53 53 52 52 52 52 52 53 49 47 46 44 43 44 45 48 52 57 61 61 61 62 62 63 63 63
58 58 58 57 57 56 56 56 56 56 55 54 54 54 53 53 52 51 51 51 50 50 50 50 49 47 46 44 43 43 43 46 49 53 57 60 60 61 61 62 63 63
57 57 57 56 56 56 56 56 55 55 54 53 53 52 52 52 51 50 50 50 49 49 48 48 48 47 43 40 40 41 43 44 46 50 55 58 60 61 61 60 62 62
57 57 56 56 56 56 55 55 54 53 52 51 51 51 51 50 49 49 49 49 49 49 48 48 47 46 41 41 40 40 42 42 44 48 54 57 59 60 61 61 61 61
56 56 56 55 56 56 55 55 54 52 51 50 50 50 50 49 48 48 47 48 48 47 47 47 47 44 41 41 40 40 40 42 43 48 52 55 58 60 61 61 60 59
55 55 55 55 55 54 53 53 53 52 51 51 50 50 49 48 48 47 47 46 47 47 47 47 46 43 41 40 40 40 40 41 46 48 52 55 58 60 61 60 60 59
52 52 53 53 54 54 53 51 50 51 51 50 50 50 49 48 47 46 47 46 46 46 46 46 46 42 40 40 40 40 40 42 49 52 55 56 58 60 61 60 60 60
50 50 50 51 51 51 51 51 50 50 50 49 48 48 49 49 49 48 46 46 46 45 45 44 45 42 40 40 40 39 41 47 51 53 55 56 58 54 53 52 53 57
49 49 49 49 49 49 48 49 49 49 49 49 48 47 48 48 48 47 47 46 45 45 44 43 44 43 40 40 40 39 42 46 49 52 53 53 52 52 51 50 50 50
50 50 49 49 48 47 47 48 49 50 49 50 49 48 48 48 47 47 47 46 45 44 45 43 43 44 41 40 40 40 42 44 46 48 50 49 49 50 49 48 49 48
50 50 49 49 48 47 48 47 47 48 49 49 48 48 48 48 47 46 46 46 46 45 47 44 44 44 41 40 40 40 42 44 44 45 47 46 46 46 46 46 46 46
50 49 49 48 47 47 47 47 48 48 47 47 47 47 46 46 46 46 45 44 45 45 45 45 44 43 43 40 40 40 40 43 44 43 43 44 44 44 44 44 44 44

ECMWFNIL_sfc_temp_096.txt.gz
Temp
60 60 61 62 62 63 62 62 62 62 63 63 62 63 63 63 63 63 63 63 63 62 62 63 63 63 63 63 63 64 64 64 64 64 64 63 63 63 63 63 63 63
61 60 61 61 61 62 63 63 62 62 62 62 62 63 63 64 64 63 63 62 63 62 63 63 63 63 63 63 63 63 63 63 63 64 64 63 63 63 63 64 64 64
58 58 58 58 59 59 60 62 61 61 61 62 62 62 62 63 63 64 63 63 63 62 62 62 62 63 63 63 63 63 63 63 63 63 63 62 63 63 63 63 63 63
59 59 58 58 58 58 59 58 58 60 62 61 61 62 62 62 63 63 63 64 63 63 63 62 62 62 62 62 63 63 63 63 63 63 63 63 63 63 63 63 63 63
59 59 58 58 57 58 57 57 58 59 60 60 61 61 61 61 61 62 62 62 62 62 63 62 62 62 62 62 63 63 63 62 63 63 62 62 63 63 63 63 62 62
57 57 57 57 57 57 58 58 59 59 59 58 58 60 60 60 60 60 61 61 61 61 62 62 62 62 62 62 63 62 62 62 63 63 62 62 62 63 63 63 63 62
55 56 55 56 56 58 58 58 58 59 59 59 59 57 58 58 58 58 60 59 60 60 57 56 56 57 58 60 62 62 62 62 63 62 62 62 62 62 63 63 63 63
55 55 55 56 56 57 57 57 57 57 58 58 57 57 57 56 56 57 58 57 58 58 55 55 53 54 53 53 54 56 59 62 62 62 61 61 61 62 62 63 63 62
54 55 56 56 56 56 56 56 57 57 57 56 56 56 56 56 55 55 55 55 56 56 53 53 52 52 51 51 51 52 53 55 60 62 62 62 61 61 62 63 62 62
55 56 56 56 56 56 56 56 56 56 56 55 55 55 54 55 55 54 54 53 53 54 53 51 50 50 49 49 49 49 50 51 53 57 61 62 61 61 62 62 62 62
56 56 55 55 55 55 55 55 55 55 55 55 54 54 53 53 53 54 53 52 51 52 52 50 49 49 48 47 47 48 48 49 51 53 56 60 62 62 62 62 62 62
55 55 55 55 55 55 55 55 55 54 54 54 53 51 51 51 51 52 52 51 51 51 52 51 49 48 47 46 46 46 47 48 49 51 54 57 61 61 61 62 62 62
54 53 54 54 54 54 53 53 53 53 53 52 52 50 49 49 51 51 51 51 50 51 50 50 49 48 46 45 45 45 45 46 47 49 52 54 58 61 62 62 62 62
54 54 53 53 53 52 52 52 52 51 51 51 51 50 49 49 49 49 50 50 50 50 50 50 48 47 46 45 44 44 44 44 45 47 49 52 55 59 61 61 62 63
54 55 53 52 52 52 51 51 50 50 50 50 50 49 49 49 49 48 48 49 49 49 49 49 48 46 45 44 42 42 43 43 44 46 47 50 53 57 61 61 61 61
52 52 52 52 52 51 50 50 50 50 49 49 49 49 48 49 48 48 48 48 48 48 48 48 47 46 46 43 43 42 42 43 44 45 46 49 52 55 59 61 61 61
51 50 50 50 50 50 49 49 49 49 49 48 48 48 48 48 47 46 46 47 47 47 47 46 46 46 43 40 40 41 43 43 43 44 45 47 51 54 56 58 60 61
50 51 50 50 50 49 49 48 48 48 48 48 47 47 47 47 46 45 45 45 46 46 46 46 46 45 40 41 40 40 42 44 45 45 46 48 50 53 56 58 59 60
49 49 49 49 49 49 48 48 47 47 46 47 46 47 46 46 45 45 44 45 45 45 45 46 46 43 40 40 40 40 40 44 49 50 50 50 51 54 56 57 59 59
48 48 47 47 48 48 48 47 46 46 45 44 45 45 45 45 45 44 44 43 44 45 45 46 46 43 40 40 40 40 40 43 48 51 52 53 53 52 52 51 52 55
47 46 46 46 47 47 46 46 46 45 45 45 44 43 43 43 43 43 44 43 43 43 44 45 45 42 40 40 40 40 40 44 47 50 50 50 50 50 50 49 50 49
46 45 45 45 46 45 45 45 45 44 44 44 44 43 43 43 42 42 42 42 42 42 43 43 44 42 40 40 40 39 41 46 46 48 47 47 48 48 48 48 48 48
46 45 45 44 44 44 44 43 43 43 43 44 42 42 42 42 42 42 42 42 42 42 42 42 43 42 40 40 40 39 42 45 46 46 46 45 46 46 46 46 47 48
45 45 44 44 43 43 42 42 42 43 42 43 41 41 41 41 42 42 42 42 42 41 43 40 41 42 41 40 40 40 41 44 44 45 45 44 44 45 45 45 46 48
44 44 43 43 42 42 42 42 41 42 42 42 41 41 41 40 42 41 41 41 41 41 45 41 41 42 41 39 40 40 41 43 43 43 44 43 43 43 44 44 44 45
44 44 43 42 42 42 42 42 42 42 41 41 41 40 40 40 40 40 39 40 40 41 41 41 41 41 41 39 40 40 40 42 43 41 42 42 42 43 42 42 42 42

ECMWFNIL_sfc_temp_099.txt.gz
Temp
58 59 59 59 60 60 60 60 60 60 60 60 60 60 60 61 61 62 62 62 62 62 62 62 62 62 62 62 63 63 63 63 64 64 64 64 63 63 63 63 63 62
56 57 57 57 57 58 59 60 59 59 59 60 60 60 60 60 60 61 61 61 61 62 62 63 63 63 63 63 63 62 63 63 63 64 63 63 63 63 63 63 63 63
55 55 55 55 55 55 55 56 57 58 58 59 59 59 59 60 59 60 60 60 60 59 58 59 61 61 62 62 63 63 63 63 63 64 63 63 63 63 63 63 62 63
54 54 54 54 54 54 54 54 55 55 56 57 57 58 58 58 58 58 59 59 59 56 56 56 57 56 57 58 59 61 62 63 63 63 63 63 63 63 62 63 62 63
53 53 53 54 54 54 54 54 55 56 55 56 56 57 56 56 56 57 57 57 58 55 55 55 55 54 54 54 55 56 58 60 62 63 62 62 63 62 63 62 62 62
53 53 54 54 54 54 55 56 56 56 55 54 54 55 55 55 55 55 55 55 56 55 54 53 53 53 52 52 52 52 53 54 56 58 60 61 62 63 63 62 62 62
53 53 54 56 56 56 55 55 55 55 55 55 55 53 54 54 54 54 54 54 54 54 52 52 51 51 51 50 50 50 50 52 54 55 55 58 61 62 63 62 62 62
55 56 56 56 55 55 54 54 53 53 53 53 52 53 53 53 53 53 53 53 53 53 52 51 50 50 50 49 48 48 48 49 50 51 52 54 57 60 62 62 62 62
55 55 55 54 53 53 53 52 51 51 51 50 50 50 51 52 52 52 52 52 52 52 52 51 50 49 49 48 47 47 47 47 48 49 50 51 53 56 60 62 62 61
54 53 52 51 50 50 50 50 50 50 51 49 49 49 49 50 51 52 51 51 50 50 50 50 49 48 48 47 46 46 46 46 47 48 49 50 51 54 57 60 61 61
51 51 50 50 49 49 49 50 49 49 50 49 48 48 48 48 49 50 50 50 49 49 49 49 48 47 46 46 46 46 45 45 46 47 47 48 49 52 56 58 60 61
48 48 48 48 49 48 48 48 49 49 48 49 49 47 47 47 47 48 49 49 49 49 49 49 48 47 46 45 45 44 44 44 45 46 46 47 48 50 53 55 58 61
48 48 48 48 48 48 48 48 48 48 48 48 48 47 46 46 46 46 48 49 49 49 48 48 47 47 46 45 44 44 44 44 44 45 46 47 48 48 50 53 56 60
48 48 48 48 48 48 48 47 47 47 47 48 48 47 46 46 45 46 47 48 48 48 48 48 47 46 46 44 43 43 43 43 44 45 46 47 47 48 50 51 54 58
48 48 48 48 47 47 47 47 47 46 46 47 47 46 47 46 46 46 46 47 47 48 47 48 47 46 45 43 42 42 43 43 44 45 46 47 48 49 50 52 54 57
48 48 47 47 47 46 46 46 46 46 46 46 46 46 45 46 45 45 45 46 46 47 47 47 46 45 45 43 43 42 43 43 45 47 49 49 49 49 51 53 55 56
46 46 47 46 46 46 45 45 45 45 45 45 45 45 45 45 44 43 43 45 46 46 46 46 46 45 42 40 40 41 43 44 46 48 50 51 51 50 50 51 51 52
45 46 45 45 46 45 45 45 45 44 44 43 44 44 44 44 43 43 42 43 44 44 45 45 45 44 40 40 40 40 42 44 47 49 49 49 49 49 49 49 49 49
45 44 44 44 44 44 44 44 43 43 43 43 42 43 43 42 42 42 42 42 42 41 42 43 44 43 40 40 40 40 40 44 48 48 48 47 48 48 47 47 47 48
44 43 43 43 43 43 43 42 42 41 41 42 42 42 41 41 41 41 41 41 41 41 41 42 43 42 40 40 40 39 40 42 47 48 48 47 47 47 47 46 46 46
43 42 42 42 42 42 41 41 41 40 41 41 40 39 39 39 39 39 40 40 40 40 40 40 42 41 39 39 39 39 40 43 45 47 47 47 47 46 46 46 46 46
42 41 41 41 41 41 40 40 39 39 39 39 40 38 39 39 39 39 39 39 40 40 39 39 41 41 39 39 39 39 41 45 45 46 46 45 45 46 46 46 45 46
41 41 41 40 40 40 39 39 38 39 39 39 38 38 38 38 38 38 38 38 39 39 39 39 40 41 40 39 39 39 41 44 44 44 45 44 44 45 45 45 45 46
40 40 40 40 39 39 38 38 38 39 38 39 37 36 37 37 38 37 38 38 38 38 40 38 39 41 40 39 39 39 41 42 43 42 43 43 43 44 44 44 45 46
39 40 39 39 39 38 38 38 37 38 38 38 37 36 37 36 39 36 37 38 38 38 43 39 38 40 41 39 40 40 41 42 42 41 41 41 41 41 43 43 43 44
39 40 39 38 38 38 38 38 38 38 37 37 37 37 37 36 36 37 36 37 37 38 38 38 39 39 41 39 40 40 40 41 41 40 39 40 41 41 40 41 41 42

ECMWFNIL_sfc_temp_102.txt.gz
Temp
55 55 55 54 54 55 55 56 57 57 57 57 57 57 57 58 59 58 59 59 58 57 57 57 58 57 58 59 60 62 63 63 64 64 64 64 63 64 63 63 63 63
54 54 55 54 54 54 54 55 55 55 55 56 56 57 57 57 57 58 57 58 57 56 56 56 56 56 55 55 56 58 59 61 62 64 63 63 63 64 63 64 63 63
53 53 52 52 52 52 52 53 53 53 54 55 55 55 55 57 56 57 56 57 56 55 55 55 54 54 54 54 54 55 55 56 57 58 59 61 63 63 63 63 63 63
52 52 52 52 52 52 53 53 53 53 53 53 53 54 55 55 55 55 55 56 56 55 54 54 53 53 52 52 52 52 53 53 54 55 56 58 60 62 63 63 63 63
52 52 53 53 53 54 53 53 53 53 52 52 52 53 53 53 54 54 54 54 54 54 53 52 52 52 51 51 51 50 50 50 52 53 53 54 56 58 60 62 62 62
53 53 54 54 54 54 52 51 51 50 50 50 50 52 51 52 53 52 52 52 53 53 52 52 51 51 50 50 49 49 48 48 50 51 51 51 53 55 57 59 61 62
53 53 53 54 53 53 51 50 50 50 49 49 50 49 50 50 51 51 51 51 52 52 51 50 49 49 49 48 48 47 48 48 48 49 49 49 51 52 54 56 58 60
51 51 51 52 51 50 49 49 49 49 49 49 48 48 49 50 51 51 51 51 50 50 50 49 48 48 48 47 47 46 46 47 46 46 47 48 49 49 51 52 54 56
50 50 50 49 48 48 48 48 48 49 49 48 47 47 48 49 49 50 50 50 50 50 49 49 48 48 48 47 46 46 45 45 46 46 46 46 47 48 49 50 51 53
49 49 48 48 48 48 48 48 48 48 49 48 48 47 47 47 49 50 50 49 49 49 49 48 48 48 47 47 46 45 44 44 45 46 46 47 47 48 49 50 50 51
48 48 48 48 47 47 47 48 48 48 48 48 47 46 47 47 47 49 49 48 47 48 48 48 48 47 46 46 45 45 44 44 45 45 46 47 47 48 50 50 50 50
47 48 48 48 48 47 47 47 47 47 47 47 47 46 46 46 46 48 48 48 48 48 48 48 48 47 46 45 44 44 44 45 45 46 46 47 48 49 50 51 50 51
47 47 47 47 47 46 47 47 47 47 47 46 47 46 45 45 46 47 48 48 48 48 48 48 47 47 45 44 44 44 44 44 45 46 47 48 49 50 52 53 52 52
47 47 47 47 47 46 46 46 46 46 46 46 47 45 45 45 45 45 47 48 48 48 48 48 47 46 45 44 43 43 44 45 45 46 48 50 51 52 52 52 53 53
47 47 46 46 46 46 45 45 45 45 45 46 45 45 45 45 45 45 44 45 46 47 47 47 46 45 44 43 42 43 45 45 46 47 49 49 49 50 50 51 51 51
46 46 45 45 45 44 44 45 45 45 45 44 44 44 44 45 44 44 44 44 43 44 45 45 45 44 44 42 43 43 44 45 46 48 49 49 48 48 48 49 49 49
45 44 44 44 44 44 44 44 44 44 43 43 43 43 43 44 43 42 42 43 43 43 43 43 44 44 41 40 40 41 45 46 46 48 49 48 47 47 46 47 47 48
44 44 43 43 43 43 43 43 43 42 42 42 42 42 43 43 42 42 42 42 42 42 42 43 43 43 39 40 40 40 43 46 47 47 48 47 47 46 46 46 46 46
43 42 42 42 41 42 42 42 41 41 41 41 40 42 41 41 40 41 41 41 42 41 42 42 43 42 40 40 40 40 40 44 46 47 47 46 46 46 46 45 45 45
41 41 41 40 41 41 41 40 40 39 40 40 40 40 40 40 40 40 40 40 41 40 41 42 43 42 40 40 40 39 39 42 46 46 46 46 46 46 45 45 45 45
41 40 40 40 40 40 40 39 39 39 39 39 39 38 38 38 38 38 40 40 40 40 41 40 42 41 39 39 39 39 40 42 45 45 46 46 46 45 45 45 45 45
40 39 39 39 39 39 39 38 38 38 37 39 39 38 39 39 39 39 38 38 39 40 40 39 41 40 39 39 39 39 40 43 44 44 44 45 44 45 45 45 45 45
39 39 39 39 39 39 38 37 37 37 38 39 37 37 37 38 37 38 38 38 39 40 40 39 40 41 40 39 39 39 41 42 42 42 43 43 43 44 44 44 44 45
39 39 38 38 38 37 37 37 37 38 38 38 36 36 37 37 38 38 39 39 39 39 41 39 39 41 40 39 39 39 41 41 41 41 41 42 42 44 44 44 44 45
39 38 38 38 37 37 37 37 37 37 37 37 37 37 37 37 39 37 38 39 39 39 43 40 40 41 41 39 40 39 41 41 41 40 40 40 41 41 42 43 42 43
39 40 38 38 37 37 37 37 38 37 36 37 37 37 37 37 38 38 37 38 39 39 39 39 40 41 41 39 40 40 40 41 41 39 38 39 40 41 40 41 41 41

ECMWFNIL_sfc_temp_105.txt.gz
Temp
63 62 62 61 61 61 60 60 60 60 60 61 61 61 60 61 62 61 62 61 60 60 60 60 60 59 59 60 60 61 61 62 62 62 63 63 65 66 67 67 68 68
60 61 61 61 60 60 60 60 60 60 59 59 60 61 61 62 62 61 60 60 60 58 58 58 58 58 58 59 58 58 59 59 59 62 60 61 62 63 64 65 66 67
60 59 59 58 58 58 59 59 59 59 59 59 59 59 59 60 60 61 60 60 59 58 58 58 58 57 57 58 58 58 57 57 57 58 59 59 60 61 61 62 62 63
59 59 59 58 58 57 57 57 57 58 58 58 57 58 59 59 59 59 59 59 58 57 57 57 56 56 56 56 56 56 56 56 57 56 57 58 59 59 58 59 60 60
58 58 58 57 57 57 56 55 55 55 57 56 57 57 58 57 57 57 57 56 56 55 55 55 55 54 54 54 55 54 54 54 55 54 54 54 56 57 57 57 58 58
58 58 58 57 56 56 55 55 55 55 55 55 56 57 57 56 56 55 55 55 55 54 54 54 55 54 54 54 54 54 53 53 53 53 53 53 54 55 56 56 56 56
56 56 56 56 56 55 55 55 55 55 55 55 56 56 57 56 55 55 55 54 54 54 54 54 56 54 54 54 53 52 52 52 52 52 52 52 53 53 55 55 56 56
56 56 56 56 55 55 55 55 55 54 55 55 54 56 57 55 55 55 54 54 54 54 55 56 56 55 54 53 51 50 51 51 50 51 51 52 52 52 54 54 54 55
56 56 56 55 54 54 54 54 54 55 55 54 54 55 57 55 54 54 54 54 54 54 55 55 55 55 54 52 51 50 50 50 50 51 51 51 51 52 53 54 54 54
55 55 55 54 54 54 53 54 54 54 55 54 54 54 55 55 55 55 55 54 54 55 55 56 55 55 55 54 51 50 49 49 50 51 52 53 53 53 53 54 54 54
54 55 54 54 53 53 53 54 54 54 54 54 54 53 54 55 56 56 56 55 53 55 55 54 54 54 53 53 52 51 50 50 51 52 52 53 54 54 54 54 54 54
54 54 54 53 53 53 53 53 54 54 54 54 54 53 54 54 55 55 55 56 56 56 55 54 54 53 52 52 51 51 51 51 52 52 53 54 54 54 55 54 53 54
54 54 54 53 53 53 53 54 53 53 54 53 54 53 53 53 54 55 55 55 55 54 54 53 53 52 50 50 51 52 52 52 52 53 54 54 55 55 55 54 54 53
54 54 54 54 54 54 53 53 53 53 53 53 53 52 52 52 54 54 54 55 54 54 54 53 52 51 49 48 49 51 51 52 52 53 53 53 54 55 55 54 53 53
54 54 54 54 54 53 53 52 52 52 53 53 53 52 52 52 53 53 53 53 54 53 53 52 51 49 47 46 46 49 51 52 52 53 53 53 53 54 54 54 54 53
54 54 54 53 53 52 52 52 52 52 52 52 52 52 52 52 52 52 53 52 52 53 53 51 50 49 45 42 43 46 49 51 52 53 53 52 52 51 52 53 52 52
54 53 53 52 52 52 52 52 52 52 51 51 51 51 50 51 51 52 51 51 51 52 51 51 49 46 41 40 40 41 47 50 51 51 52 52 51 50 49 50 50 51
53 53 52 52 52 52 52 52 52 51 51 51 50 50 50 51 50 50 50 51 51 52 51 50 49 43 40 40 40 40 42 49 52 50 50 50 50 49 49 49 49 49
53 52 52 51 51 51 51 51 51 50 50 50 49 50 50 50 50 49 49 50 51 51 50 51 49 42 40 40 40 39 39 45 53 51 50 50 50 49 49 49 48 48
52 52 51 51 51 51 51 51 50 49 49 50 50 50 50 49 49 49 49 50 51 51 51 51 49 42 40 40 40 39 39 44 53 50 50 51 50 49 49 48 47 46
51 51 50 50 51 51 50 50 49 49 49 50 50 49 49 49 49 49 49 50 50 51 51 50 48 40 40 39 39 39 39 45 52 51 50 50 50 49 49 48 48 47
51 50 50 51 50 50 50 49 49 49 49 50 50 50 50 50 50 50 49 50 50 50 50 50 49 40 39 39 39 39 41 52 52 50 49 49 49 49 50 49 48 47
51 50 50 50 50 49 49 48 48 48 49 50 50 50 49 49 49 49 50 50 50 50 49 49 50 44 39 39 39 38 45 52 51 50 49 48 48 49 49 49 48 47
51 51 50 49 49 49 48 48 49 49 49 49 49 49 49 49 50 50 50 50 49 48 48 49 49 46 40 39 39 39 43 50 51 49 48 47 48 49 49 49 48 46
51 51 50 49 49 48 48 48 48 48 49 50 50 50 49 50 51 50 50 50 50 49 46 48 49 47 41 39 39 39 43 50 50 48 47 46 47 47 48 48 48 47
51 50 50 50 49 48 49 48 49 49 49 49 50 51 50 50 50 50 49 49 50 50 49 49 48 49 46 39 40 40 39 48 50 47 45 46 47 47 46 47 48 48

ECMWFNIL_sfc_temp_111.txt.gz
Temp
70 70 69 68 67 67 67 67 68 67 67 67 67 66 66 66 67 67 67 67 67 67 67 66 67 66 67 67 67 68 68 66 66 65 64 64 64 63 63 63 64 64
68 68 68 69 68 67 67 67 67 67 66 66 66 66 66 67 67 67 67 67 68 67 67 67 67 67 67 67 66 66 66 66 65 65 64 64 64 64 63 63 63 63
66 66 66 66 65 65 66 66 66 66 66 66 65 65 66 67 67 67 66 66 66 66 66 66 66 67 67 66 66 66 65 65 64 64 64 65 65 64 64 64 64 64
67 67 67 67 67 66 67 67 67 67 67 65 66 66 67 66 67 67 66 66 66 66 66 66 66 66 66 66 66 65 65 65 65 64 64 65 65 65 64 64 64 64
66 67 68 68 67 67 66 66 66 67 67 67 67 67 67 66 66 66 66 66 66 66 66 66 66 66 66 66 65 64 64 64 63 64 63 63 64 64 65 65 64 64
68 69 69 68 67 67 67 66 66 66 66 66 65 66 66 66 67 66 66 67 67 66 66 66 66 65 65 65 65 63 63 62 63 64 63 63 64 65 66 65 64 64
66 66 67 68 67 66 65 65 66 66 66 66 66 65 66 66 66 66 67 67 67 66 66 65 65 64 64 65 64 63 64 63 63 63 63 63 64 64 65 64 64 64
65 66 66 67 66 66 65 65 65 65 65 66 65 66 67 67 67 67 67 66 66 66 66 66 65 65 64 64 63 63 63 64 63 63 64 64 63 64 64 64 63 62
66 65 66 66 64 65 65 65 65 66 67 66 66 65 66 67 66 66 66 66 66 65 65 64 64 64 63 63 62 63 63 63 63 64 63 63 63 64 64 64 62 61
65 65 65 65 64 64 64 65 65 65 66 66 66 66 66 65 66 67 66 65 64 65 64 64 63 62 62 62 62 62 63 63 64 64 64 64 63 63 63 62 62 60
65 65 64 63 63 64 64 64 65 65 66 66 65 65 66 66 66 66 65 64 63 63 63 62 61 60 59 59 60 62 63 63 63 63 63 63 63 62 62 61 61 60
64 63 63 63 63 63 64 64 65 65 65 65 67 65 65 65 64 65 65 64 64 63 62 62 60 58 57 57 59 61 63 63 63 63 62 63 63 62 61 61 59 59
63 63 63 63 63 63 64 65 65 64 65 65 66 65 65 64 65 65 64 64 63 62 61 59 58 56 55 55 57 60 63 63 62 62 62 61 62 62 61 61 60 59
63 63 63 64 64 64 64 64 64 64 64 64 65 64 64 65 65 64 64 64 63 62 60 58 57 55 54 53 55 58 60 63 62 61 61 61 61 61 62 61 60 59
63 63 64 64 64 64 63 63 63 64 64 64 64 63 63 65 65 65 64 63 63 61 60 57 55 52 50 49 51 54 55 60 62 62 60 60 60 61 60 60 59 58
64 64 64 64 64 63 63 63 63 63 63 63 63 63 64 64 64 64 64 62 61 61 59 56 53 51 45 42 43 48 53 57 62 61 61 60 59 58 58 58 58 57
64 64 64 63 63 63 63 63 63 63 63 62 62 62 62 63 63 62 62 62 61 59 57 56 53 48 40 41 40 41 48 54 60 60 60 59 58 57 57 56 56 57
64 64 64 63 63 64 64 64 63 63 62 62 61 61 61 62 61 61 61 61 60 59 57 55 53 43 40 41 40 40 42 50 60 60 60 59 58 57 57 56 55 55
65 64 64 63 63 63 63 63 63 62 62 61 60 61 61 60 60 60 60 61 60 58 56 55 53 42 40 40 41 40 41 45 62 60 60 59 58 58 57 55 55 54
64 63 63 63 63 62 62 62 61 60 60 61 61 61 60 59 59 59 60 60 60 58 57 55 51 43 40 40 41 39 41 42 62 61 60 60 59 58 57 56 55 54
63 63 62 62 63 62 61 61 60 59 59 60 60 60 60 60 59 58 59 59 59 59 57 54 50 40 40 40 40 40 40 45 62 61 61 60 60 60 59 57 56 55
63 62 62 62 61 61 60 59 59 58 58 59 60 60 61 60 60 59 58 59 59 58 56 54 52 41 40 40 40 40 40 59 62 62 61 61 60 61 60 58 57 55
62 62 61 61 60 59 59 59 58 58 59 60 60 60 59 59 59 58 59 58 58 58 56 55 53 45 40 41 41 40 45 60 62 62 61 61 61 60 61 58 56 56
60 60 59 59 59 59 59 59 59 59 60 61 60 60 59 60 60 59 58 58 57 56 57 56 54 47 41 41 41 41 44 57 62 61 60 60 60 61 61 60 55 49
59 59 58 58 58 58 59 58 59 59 60 61 61 61 60 61 61 60 59 58 58 56 53 55 55 51 43 41 41 42 46 56 60 59 59 59 59 59 60 59 59 55
59 59 59 59 59 59 59 59 60 60 60 61 61 63 62 61 61 60 59 58 58 58 56 56 56 55 50 41 42 42 42 52 59 57 55 57 59 58 58 58 58 58

ECMWFNIL_sfc_temp_114.txt.gz
Temp
68 67 66 66 65 65 65 65 65 65 65 64 63 63 63 64 65 64 64 64 64 63 63 63 64 63 64 63 63 63 63 62 61 61 61 62 61 61 61 62 61 61
67 67 66 66 65 64 65 65 65 65 64 64 64 64 64 64 63 64 63 64 64 63 63 63 63 63 63 63 62 61 61 61 60 62 61 62 61 61 61 61 61 62
66 65 65 64 64 64 64 65 65 64 63 64 64 64 63 64 63 64 63 63 63 63 63 63 63 63 63 62 62 61 60 60 59 60 61 60 60 61 62 61 61 61
65 65 65 65 65 64 64 64 64 64 64 63 63 64 64 64 64 63 63 64 63 63 63 63 62 62 63 62 61 60 60 60 60 61 61 61 61 62 62 61 61 61
65 65 66 66 66 66 65 64 64 63 63 63 63 63 63 63 63 63 63 63 62 62 62 62 62 61 62 61 61 59 60 59 60 60 60 60 61 61 61 60 60 59
65 66 66 66 65 64 63 64 64 64 63 62 62 63 63 64 64 63 63 62 62 62 61 61 61 60 61 61 60 60 60 59 60 60 61 60 60 61 61 60 59 59
64 64 64 65 64 64 63 63 63 63 63 63 64 62 63 63 63 63 63 62 62 62 61 60 60 59 59 60 60 60 60 60 60 61 60 60 60 60 61 60 59 59
64 65 64 64 63 63 63 63 63 62 63 63 62 63 64 63 63 63 62 62 61 61 60 60 59 59 59 59 59 59 59 60 59 59 59 59 58 58 58 58 57 57
64 63 63 63 62 62 62 63 63 63 64 62 62 62 63 63 62 62 62 62 61 60 59 58 57 57 57 58 58 59 59 59 59 59 58 57 57 56 57 57 56 55
63 63 62 62 62 62 62 62 63 63 64 63 63 62 62 62 62 62 61 60 59 59 58 56 55 55 56 57 58 59 59 59 59 58 58 58 57 57 56 56 55 54
62 62 61 61 61 61 62 62 62 63 63 63 62 62 62 62 61 62 60 59 57 57 56 55 54 54 54 55 56 58 59 58 58 58 57 57 57 57 57 56 55 54
61 61 61 61 61 61 61 62 62 62 62 62 63 62 61 61 60 60 60 59 57 56 55 54 53 52 52 52 54 56 57 58 58 58 57 57 57 56 56 56 54 54
61 61 61 61 61 61 61 62 62 62 63 62 63 62 61 60 61 60 59 58 57 55 54 53 52 51 50 50 52 53 54 56 57 57 57 56 57 56 56 55 54 54
61 61 61 61 61 61 61 61 61 61 61 62 62 61 61 61 60 60 59 58 57 55 54 53 51 50 48 47 50 51 52 54 57 56 56 56 55 56 55 54 54 54
61 61 61 61 62 61 61 60 60 60 61 61 61 60 61 61 61 60 58 57 56 55 53 52 50 48 46 44 45 47 50 52 57 57 55 55 55 55 55 54 54 54
61 61 61 61 60 60 60 60 60 60 60 60 60 60 60 60 60 59 58 56 55 54 52 50 49 47 44 42 43 44 48 51 55 56 56 55 54 53 53 54 54 53
61 61 61 60 60 60 60 60 60 60 59 59 59 59 59 59 59 58 57 56 54 53 51 50 48 45 42 40 41 42 45 48 53 55 55 55 54 53 52 52 53 53
61 61 61 60 61 60 60 60 60 59 59 58 58 58 58 58 57 57 57 55 54 52 50 49 47 43 40 41 41 41 43 45 53 55 55 54 54 53 53 52 51 51
62 61 61 60 60 60 60 60 59 59 58 57 57 57 57 57 57 57 56 55 54 52 50 49 47 42 41 41 41 41 41 44 55 55 55 54 54 54 52 51 51 50
62 61 60 60 60 60 60 59 58 57 57 57 57 57 56 56 56 56 55 55 54 52 50 49 46 42 41 41 41 41 41 43 56 56 55 55 55 54 52 51 51 50
61 60 59 59 60 59 58 58 58 57 57 57 56 56 55 55 55 55 55 54 53 53 51 49 46 41 41 41 41 41 42 46 58 57 56 55 55 54 52 51 51 51
60 59 59 59 59 58 58 57 57 57 56 56 56 55 56 56 55 55 55 54 54 52 50 49 48 42 41 42 42 41 44 53 56 56 55 55 55 54 53 52 51 51
60 59 58 58 58 57 57 56 56 56 56 57 55 55 55 54 54 54 55 54 54 53 50 49 48 44 41 42 42 42 46 52 56 56 55 55 54 54 53 51 51 52
60 59 57 57 57 57 56 56 56 57 57 57 56 55 55 54 54 53 53 54 53 52 51 49 49 46 42 42 42 42 46 51 55 54 53 54 54 54 54 52 51 53
59 58 57 56 55 55 55 55 55 56 57 57 57 57 56 56 55 54 53 53 53 52 53 51 50 48 43 42 42 42 46 51 53 52 51 51 53 53 53 53 53 53
57 56 56 56 56 56 56 56 57 57 56 56 56 57 56 56 56 55 53 52 53 53 53 52 51 50 47 42 42 42 43 50 52 50 49 49 52 53 52 51 51 52

ECMWFNIL_sfc_temp_117.txt.gz
Temp
63 63 62 62 63 63 62 61 61 61 60 59 58 57 56 56 57 56 56 57 57 56 57 57 57 57 58 57 57 57 56 55 56 56 56 56 56 56 57 56 57 56
62 62 62 62 62 62 62 61 61 61 59 58 57 56 57 56 57 57 56 57 57 57 57 57 57 57 57 56 56 55 54 55 54 58 56 56 55 56 56 56 55 56
61 61 61 61 61 61 61 61 60 59 58 58 58 57 58 57 56 56 57 57 57 56 57 56 56 56 56 55 54 54 54 53 54 54 55 55 55 56 56 55 55 55
61 61 61 61 60 60 60 60 58 58 57 57 56 57 57 59 56 57 57 58 56 55 55 56 55 55 55 54 53 53 53 54 54 54 55 55 56 56 55 55 55 54
61 60 60 60 60 60 60 58 57 57 57 56 56 56 57 57 56 56 56 55 55 54 54 55 55 54 55 54 53 53 55 54 55 55 54 54 55 55 55 54 53 52
60 60 61 60 60 59 58 58 58 57 56 55 56 57 56 57 56 56 55 55 55 54 53 53 53 53 54 54 53 54 53 54 54 55 54 53 53 54 54 53 52 51
58 59 59 59 58 58 58 57 57 57 56 55 56 56 56 56 55 55 55 54 54 53 52 52 52 52 52 52 53 53 53 54 54 54 53 52 52 52 53 52 51 51
58 58 59 58 58 58 57 57 56 55 56 57 56 56 57 56 55 55 54 53 52 51 51 51 51 51 51 51 52 52 52 54 53 52 51 51 51 51 51 51 50 49
58 58 58 57 57 57 57 57 57 57 57 56 56 55 56 55 54 54 53 52 51 50 50 49 49 49 50 50 50 52 52 52 52 51 51 50 50 50 50 50 49 49
57 57 57 56 56 55 55 56 56 57 58 57 56 56 55 55 54 53 52 51 50 49 49 48 48 48 48 49 50 50 51 51 51 51 51 51 50 50 49 49 48 48
55 56 55 55 55 55 55 56 56 56 56 55 54 54 54 54 53 52 51 50 49 48 48 47 47 47 47 47 48 49 49 51 51 51 50 50 50 50 51 49 48 48
55 55 55 55 55 55 55 56 56 56 55 55 56 54 54 53 52 52 51 49 49 48 47 46 46 45 45 46 47 48 48 50 50 50 50 50 49 49 49 49 48 48
54 54 55 55 55 55 56 56 56 55 56 55 55 54 53 52 52 51 50 49 48 47 47 46 45 44 43 44 45 46 47 49 50 49 49 49 49 49 49 49 49 48
54 54 54 54 54 55 55 54 54 54 54 54 54 53 53 52 51 50 50 49 48 47 46 45 44 43 42 42 43 44 46 47 49 49 48 48 49 49 49 48 48 48
54 54 54 55 55 55 54 54 54 54 54 54 54 54 53 52 52 50 49 48 47 46 46 45 43 43 42 41 41 43 43 45 48 49 48 48 48 48 48 48 47 48
54 54 54 54 54 53 53 53 53 53 53 53 53 53 52 52 50 50 48 47 46 45 45 44 43 43 44 43 44 42 43 44 48 48 48 48 48 47 47 47 46 46
54 54 54 53 53 53 52 53 53 53 52 52 51 51 51 51 50 48 47 46 45 44 43 43 42 43 42 41 41 43 44 42 46 47 48 48 47 46 46 46 46 46
54 54 54 53 53 53 53 53 53 52 51 51 51 51 51 50 49 48 47 46 45 44 42 43 42 43 41 42 41 41 44 43 44 48 48 47 47 46 46 45 44 44
54 54 53 53 53 52 52 52 51 51 51 51 50 51 50 49 48 47 46 45 45 43 42 42 41 42 41 42 42 42 42 44 46 50 48 47 46 46 45 44 44 45
54 53 53 52 52 52 52 51 51 50 49 49 50 49 49 48 47 46 46 45 44 43 42 42 41 42 41 42 42 42 42 44 49 49 48 47 46 45 44 43 44 45
54 53 52 52 52 52 52 51 50 49 49 49 48 48 48 47 47 45 46 45 43 42 42 42 43 42 42 42 42 43 44 46 48 50 48 46 46 44 44 44 45 46
53 52 51 51 51 51 50 49 48 49 48 48 48 47 47 47 46 46 45 44 43 41 41 41 42 42 42 42 43 43 46 49 48 47 46 45 45 44 44 45 45 44
52 52 51 51 50 49 49 49 48 48 48 48 47 47 47 47 46 46 45 44 42 42 40 40 42 42 42 42 43 43 45 47 47 46 46 44 44 44 44 45 46 46
52 51 50 50 49 49 48 48 48 48 48 49 49 48 48 48 47 46 44 43 41 42 42 41 40 43 42 42 42 43 45 45 45 44 44 44 43 44 45 44 45 54
51 50 49 49 48 48 49 48 49 49 49 49 48 48 47 47 46 45 43 42 41 43 51 43 40 43 42 42 42 42 45 44 44 43 43 42 43 42 42 44 45 48
50 50 49 49 49 48 48 48 48 49 49 48 48 48 47 46 45 44 42 42 43 42 44 42 42 41 42 42 42 42 42 45 44 42 41 41 42 46 45 44 44 45

ECMWFNIL_sfc_temp_120.txt.gz
Temp
61 61 61 60 60 60 59 58 58 57 56 56 55 54 54 55 55 54 55 55 56 54 55 54 54 54 55 53 53 54 54 53 54 54 53 53 53 52 51 50 50 50
60 61 61 60 59 59 59 59 58 57 56 56 55 54 56 55 54 55 54 54 54 53 53 53 53 53 52 53 53 53 53 53 53 55 53 52 52 51 50 50 49 49
59 59 59 58 58 58 58 58 58 57 57 56 55 55 55 55 54 54 54 54 53 53 53 53 52 52 53 53 53 53 52 52 51 52 52 51 51 50 50 50 49 49
58 59 59 58 58 58 58 57 57 56 56 55 54 56 56 56 54 53 53 54 52 52 52 52 52 52 52 52 53 52 52 51 51 51 51 51 51 50 49 50 49 48
58 58 58 58 58 58 58 57 56 55 54 53 55 55 55 54 53 52 52 51 51 51 51 51 51 51 52 52 52 51 52 51 51 51 50 49 50 50 50 49 47 47
57 58 58 57 57 57 57 56 56 55 54 54 53 54 53 53 52 51 51 50 50 50 50 50 50 50 51 51 51 50 50 50 50 50 49 48 48 49 49 48 47 46
56 56 56 57 57 57 56 56 55 55 53 53 54 52 52 51 51 50 50 49 49 50 49 48 49 49 49 50 51 50 50 49 49 49 48 47 48 47 48 48 47 46
55 55 56 56 56 56 55 54 54 53 54 53 52 52 51 51 50 49 49 48 48 48 48 48 48 48 48 49 50 49 49 50 49 48 47 47 47 46 46 47 46 45
56 56 56 56 55 54 54 54 53 53 54 52 51 50 51 50 49 48 48 48 47 47 47 47 47 47 47 48 48 49 48 48 48 47 47 46 46 46 46 46 45 45
55 55 55 55 54 54 53 53 54 53 53 52 51 50 49 49 49 48 47 47 46 46 45 45 46 46 47 47 47 48 48 47 47 47 46 46 46 45 45 45 45 44
54 54 54 54 53 53 53 53 53 53 53 51 50 49 49 48 48 47 46 46 45 45 44 44 44 45 46 46 46 47 47 47 46 46 46 46 45 46 48 44 45 44
53 53 52 52 52 52 53 53 53 53 52 51 50 49 48 48 47 47 47 45 45 44 44 43 43 43 43 44 45 46 47 46 46 46 46 46 45 45 44 44 44 43
52 52 52 53 53 52 53 53 52 52 51 50 50 49 47 47 46 46 46 45 44 44 43 43 42 42 42 42 43 44 45 46 46 45 45 45 45 45 45 44 43 44
52 52 52 52 52 53 52 52 52 51 50 50 50 48 47 47 46 45 45 45 44 43 43 43 42 42 41 41 41 42 44 45 45 45 45 44 44 44 43 43 43 43
51 51 52 52 52 51 51 51 51 50 50 49 49 48 48 46 46 45 44 44 43 43 42 43 42 42 42 40 39 41 42 45 45 45 45 44 43 43 43 42 42 43
52 52 52 51 51 51 50 51 50 50 49 48 47 47 46 46 45 45 44 43 43 42 42 42 41 42 44 43 44 42 40 45 45 44 44 43 43 42 42 43 43 42
52 51 52 51 50 50 50 50 50 49 48 47 46 46 45 45 44 43 42 42 42 42 41 41 41 42 42 40 40 44 43 43 44 43 42 42 42 41 42 43 43 43
51 51 51 50 51 50 50 50 49 49 47 47 46 45 45 44 43 42 42 42 42 41 41 41 41 43 40 41 41 42 46 44 43 44 44 42 42 42 43 42 42 43
51 51 50 50 50 50 50 50 49 48 47 46 45 45 44 43 42 42 41 41 42 42 41 40 40 42 41 42 41 41 43 45 44 43 43 42 42 42 42 41 41 44
51 51 50 49 49 49 49 49 48 47 47 46 45 44 43 42 41 41 42 42 43 42 42 42 42 42 42 43 43 42 43 45 43 43 42 42 42 42 42 42 41 41
50 50 49 49 49 49 48 48 47 46 46 45 45 44 42 42 41 41 42 42 42 43 44 42 42 41 41 42 43 43 43 43 42 44 43 42 41 41 41 43 41 42
50 50 49 49 49 48 47 47 46 46 45 44 44 42 42 42 41 42 42 42 43 44 43 40 40 41 41 42 42 43 44 45 42 41 40 41 40 40 40 39 40 41
51 50 49 49 48 47 46 45 45 44 44 45 44 43 42 41 41 42 42 42 42 41 41 39 39 41 41 41 41 42 43 42 41 42 40 38 38 39 40 40 41 43
51 51 49 49 48 47 46 45 45 45 45 46 44 43 42 42 42 41 40 40 40 39 41 40 38 41 41 41 41 42 43 41 40 41 39 38 39 39 39 39 42 50
51 50 49 48 47 46 46 45 45 46 45 45 44 43 43 42 43 40 39 38 39 41 48 42 39 41 41 40 41 42 42 39 41 40 40 37 38 40 40 40 41 44
51 50 49 48 47 46 46 46 45 45 44 44 43 43 42 41 42 41 40 39 39 40 42 39 40 38 39 40 41 41 42 41 40 39 39 38 37 40 41 40 39 40

ECMWFNIL_sfc_temp_123.txt.gz
Temp
62 61 61 60 58 58 57 56 56 55 54 53 53 52 51 52 53 52 52 52 53 51 52 51 52 52 53 52 52 52 52 51 50 50 49 49 48 48 47 46 46 46
61 61 60 59 58 57 57 57 56 55 54 53 52 52 52 52 52 52 52 51 52 51 51 52 52 52 52 51 51 51 50 50 49 51 49 48 48 47 46 46 45 45
60 59 59 58 57 56 56 56 56 55 54 53 53 52 52 52 51 52 51 51 51 51 51 52 52 52 51 51 50 50 49 49 48 49 49 47 47 47 46 46 45 45
60 60 59 58 58 57 57 55 54 54 54 53 52 53 52 53 51 51 51 52 50 50 51 51 51 51 51 50 50 49 49 48 48 48 48 48 48 46 46 46 46 45
59 59 59 59 58 58 57 55 53 53 52 52 52 52 52 51 50 50 50 50 50 50 50 50 50 50 50 49 49 48 49 48 48 47 47 46 46 47 46 45 44 44
60 60 59 59 58 57 56 55 54 53 51 51 50 51 50 50 49 49 49 49 49 49 49 49 49 49 49 49 48 47 47 47 47 47 46 45 45 45 46 44 44 43
58 58 58 58 58 58 56 55 54 53 51 50 50 49 49 49 48 48 48 48 49 49 48 48 48 48 48 48 48 47 47 46 46 46 45 44 45 44 44 44 43 43
57 58 58 58 57 56 55 53 52 51 50 50 49 48 49 48 48 47 48 48 48 48 48 48 48 48 47 48 47 46 46 47 45 45 44 44 44 43 43 44 43 42
56 56 56 55 55 54 53 52 50 50 50 49 48 47 48 47 47 47 47 47 47 47 47 47 47 47 47 47 46 46 45 45 45 44 44 43 43 42 42 42 42 42
54 54 54 53 53 52 51 50 49 49 49 48 47 47 46 46 46 46 47 47 46 46 46 46 46 46 46 46 46 45 45 44 44 44 43 43 43 42 42 42 41 41
53 53 52 51 51 50 49 49 49 48 49 48 47 46 46 46 46 46 46 46 45 45 45 45 45 46 45 45 45 45 45 44 44 43 43 42 42 43 45 41 41 40
52 52 51 51 50 49 49 49 48 48 47 47 47 46 45 45 45 45 46 44 44 44 44 44 44 44 44 44 44 45 44 44 44 43 43 42 42 42 41 41 41 40
52 51 51 51 50 49 49 48 47 47 47 46 47 46 45 44 44 44 44 44 44 44 44 44 43 43 43 43 44 44 44 44 43 43 42 42 41 41 41 41 40 41
51 51 51 50 50 49 48 48 47 47 46 46 46 45 44 44 44 43 43 44 43 43 43 43 42 42 41 42 42 43 43 43 43 43 42 41 41 41 41 40 41 41
51 51 51 51 50 49 48 47 47 46 46 46 45 45 45 43 43 43 43 42 42 42 42 43 42 42 42 42 42 42 42 43 43 43 42 41 40 40 40 40 40 41
51 51 50 50 49 48 47 47 46 46 45 44 44 43 43 43 43 43 43 42 42 41 41 42 41 42 45 47 47 44 42 43 42 41 40 41 41 41 41 41 41 40
50 50 50 49 48 47 47 46 45 45 44 44 43 43 42 43 42 42 41 42 42 41 40 40 40 42 43 42 43 45 44 42 42 40 40 40 39 39 40 43 42 41
50 49 49 48 48 47 46 46 45 44 44 43 42 42 42 42 41 40 40 40 41 40 39 40 40 44 40 42 43 44 46 43 41 41 41 40 40 39 39 39 41 42
49 49 48 48 47 47 46 46 45 44 43 42 41 41 41 41 40 40 39 40 41 40 39 39 38 42 41 42 43 43 43 43 41 40 41 40 40 40 39 38 40 42
49 49 48 48 47 47 46 45 44 43 42 42 42 41 40 40 39 39 39 40 40 40 39 38 39 42 41 42 43 42 42 43 39 40 40 40 40 37 38 39 39 40
49 49 48 47 47 47 46 45 44 42 42 41 41 41 40 39 39 39 40 40 40 40 41 40 40 42 41 41 42 42 41 42 39 41 39 38 37 38 37 37 38 39
49 48 48 47 47 46 45 44 43 43 41 41 40 38 39 39 38 40 39 39 40 41 40 38 37 41 41 42 42 42 43 43 39 37 37 37 37 37 38 37 37 38
48 48 47 47 47 46 45 44 43 42 41 41 40 39 39 39 39 39 39 39 39 40 39 36 36 40 41 42 42 41 42 40 38 39 37 36 36 37 36 37 37 40
49 48 47 47 46 45 45 44 43 43 42 43 41 40 39 39 39 38 37 38 39 38 40 38 36 39 41 41 41 42 43 39 38 38 35 36 36 36 37 36 38 48
48 49 48 47 47 46 45 44 44 44 43 42 41 41 40 39 40 38 37 36 38 39 46 40 37 39 40 40 40 41 42 39 39 38 36 34 35 38 37 37 37 40
48 48 47 47 46 46 45 45 45 43 42 42 40 40 40 38 39 39 38 37 37 38 39 38 38 37 38 40 40 40 41 39 38 38 38 36 34 38 38 36 36 36